[[{"header":{"parameterUnit":"m.s-1","parameterCategory":1,"la1":31.0,"la2":29.5877,"lo1":-88.7671,"lo2":-86.6584,"dy":0.0162,"dx":0.0185,"nx":115,"ny":88,"refTime":"2024-09-30T06:00:00:Z","depth":0,"parameterNumber":2,"parameterNumberName":"U-component_of_WINDS"},"data":[0.0,0.0,0.0,0.0,0.0,0.0,0.0,0.0,0.0,0.0,0.0,0.0,0.0,0.0,0.0,0.0,0.0,0.0,0.0,0.0,0.0,0.0,0.0,0.0,0.0,0.0,0.0,0.0,0.0,0.0,0.0,0.0,0.0,0.0,0.0,0.0,0.0,0.0,0.0,0.0,0.0,0.0,0.0,0.0,0.0,0.0,0.0,0.0,0.0,0.0,0.0,0.0,0.0,0.0,0.0,0.0,0.0,0.0,0.0,0.0,0.0,0.0,0.0,0.0,0.0,0.0,0.0,0.0,0.0,0.0,0.0,0.0,0.0,0.0,0.0,0.0,0.0,0.0,0.0,0.0,0.0,0.0,0.0,0.0,0.0,0.0,0.0,0.0,0.0,0.0,0.0,0.0,0.0,0.0,0.0,0.0,0.0,0.0,0.0,0.0,0.0,0.0,0.0,0.0,0.0,0.0,0.0,0.0,0.0,0.0,0.0,0.0,0.0,0.0,0.0,0.0,0.0,0.0,0.0,0.0,0.0,0.0,0.0,0.0,0.0,0.0,0.0,0.0,0.0,0.0,0.0,0.0,0.0,0.0,0.0,0.0,0.0,0.0,0.0,0.0,0.0,0.0,0.0,0.0,0.0,0.0,0.0,0.0,0.0,0.0,0.0,0.0,0.0,0.0,0.0,0.0,0.0,0.0,0.0,0.0,0.0,0.0,0.0,0.0,0.0,0.0,0.0,0.0,0.0,0.0,0.0,0.0,0.0,0.0,0.0,0.0,0.0,0.0,0.0,0.0,0.0,0.0,0.0,0.0,0.0,0.0,0.0,0.0,0.0,0.0,0.0,0.0,0.0,0.0,0.0,0.0,0.0,0.0,0.0,0.0,0.0,0.0,0.0,0.0,0.0,0.0,0.0,0.0,0.0,0.0,0.0,0.0,0.0,0.0,0.0,0.0,0.0,0.0,0.0,0.0,0.0,0.0,0.0,0.0,0.0,0.0,0.0,0.0,0.0,0.0,0.0,0.0,0.0,0.0,0.0,0.0,0.0,0.0,0.0,0.0,0.0,0.0,0.0,0.0,0.0,0.0,0.0,0.0,0.0,0.0,0.0,0.0,0.0,0.0,0.0,0.0,0.0,0.0,0.0,0.0,0.0,0.0,0.0,0.0,0.0,0.0,0.0,0.0,0.0,0.0,0.0,0.0,0.0,0.0,0.0,0.0,0.0,0.0,0.0,0.0,0.0,0.0,0.0,0.0,0.0,0.0,0.0,0.0,0.0,0.0,0.0,0.0,0.0,0.0,0.0,0.0,0.0,0.0,0.0,0.0,0.0,0.0,0.0,0.0,0.0,0.0,0.0,0.0,0.0,0.0,0.0,0.0,0.0,0.0,0.0,0.0,0.0,0.0,0.0,0.0,0.0,0.0,0.0,0.0,0.0,0.0,0.0,0.0,0.0,0.0,0.0,0.0,0.0,0.0,0.0,0.0,0.0,0.0,0.0,0.0,0.0,0.0,0.0,0.0,0.0,0.0,0.0,0.0,0.0,0.0,0.0,0.0,0.0,0.0,0.0,0.0,0.0,0.0,0.0,0.0,0.0,0.0,0.0,0.0,0.0,0.0,0.0,0.0,0.0,0.0,0.0,0.0,0.0,0.0,0.0,0.0,0.0,0.0,0.0,0.0,0.0,0.0,0.0,0.0,0.0,0.0,0.0,0.0,0.0,0.0,0.0,0.0,0.0,0.0,0.0,0.0,0.0,0.0,0.0,0.0,0.0,0.0,0.0,0.0,0.0,0.0,0.0,0.0,0.0,0.0,0.0,0.0,0.0,0.0,0.0,0.0,0.0,0.0,0.0,0.0,0.0,0.0,0.0,0.0,0.0,0.0,0.0,0.0,0.0,0.0,0.0,0.0,0.0,0.0,0.0,0.0,0.0,0.0,0.0,0.0,0.0,0.0,0.0,0.0,0.0,0.0,0.0,0.0,0.0,0.0,0.0,0.0,0.0,0.0,0.0,0.0,0.0,0.0,0.0,0.0,0.0,0.0,0.0,0.0,0.0,0.0,0.0,0.0,0.0,0.0,0.0,0.0,0.0,0.0,0.0,0.0,0.0,0.0,0.0,0.0,0.0,0.0,0.0,0.0,0.0,0.0,0.0,0.0,0.0,0.0,0.0,0.0,0.0,0.0,0.0,0.0,0.0,0.0,0.0,0.0,0.0,0.0,0.0,0.0,0.0,0.0,0.0,0.0,0.0,0.0,0.0,0.0,0.0,0.0,0.0,0.0,0.0,0.0,0.0,0.0,0.0,0.0,0.0,0.0,0.0,0.0,0.0,0.0,0.0,0.0,0.0,0.0,0.0,0.0,0.0,0.0,0.0,0.0,0.0,0.0,0.0,0.0,0.0,0.0,0.0,0.0,0.0,0.0,0.0,0.0,0.0,0.0,0.0,0.0,0.0,0.0,0.0,0.0,0.0,0.0,0.0,0.0,0.0,0.0,0.0,0.0,0.0,0.0,0.0,0.0,0.0,0.0,0.0,0.0,0.0,0.0,0.0,0.0,0.0,0.0,0.0,0.0,0.0,0.0,0.0,0.0,0.0,0.0,0.0,0.0,0.0,0.0,0.0,0.0,0.0,0.0,0.0,0.0,0.0,0.0,0.0,0.0,0.0,0.0,0.0,0.0,0.0,0.0,0.0,0.0,0.0,0.0,0.0,0.0,0.0,0.0,0.0,0.0,0.0,0.0,0.0,0.0,0.0,0.0,0.0,0.0,0.0,0.0,0.0,0.0,0.0,0.0,0.0,0.0,0.0,0.0,0.0,0.0,0.0,0.0,0.0,0.0,0.0,0.0,0.0,0.0,0.0,0.0,0.0,0.0,0.0,0.0,0.0,0.0,0.0,0.0,0.0,0.0,0.0,0.0,0.0,0.0,0.0,0.0,0.0,0.0,0.0,0.0,0.0,0.0,0.0,0.0,0.0,0.0,0.0,0.0,0.0,0.0,0.0,0.0,0.0,0.0,0.0,0.0,0.0,0.0,0.0,0.0,0.0,0.0,0.0,0.0,0.0,0.0,0.0,0.0,0.0,0.0,0.0,0.0,0.0,0.0,0.0,0.0,0.0,0.0,0.0,0.0,0.0,0.0,0.0,0.0,0.0,0.0,0.0,0.0,0.0,0.0,0.0,0.0,0.0,0.0,0.0,0.0,0.0,0.0,0.0,0.0,0.0,0.0,0.0,0.0,0.0,0.0,0.0,0.0,0.0,0.0,0.0,0.0,0.0,0.0,0.0,0.0,0.0,0.0,0.0,0.0,0.0,0.0,0.0,0.0,0.0,0.0,0.0,0.0,0.0,0.0,0.0,0.0,0.0,0.0,0.0,0.0,0.0,0.0,0.0,0.0,0.0,0.0,0.0,0.0,0.0,0.0,0.0,0.0,0.0,0.0,0.0,0.0,0.0,0.0,0.0,0.0,0.0,0.0,0.0,0.0,0.0,0.0,0.0,0.0,0.0,0.0,0.0,0.0,0.0,0.0,0.0,0.0,0.0,0.0,0.0,0.0,0.0,0.0,0.0,0.0,0.0,0.0,0.0,0.0,0.0,0.0,0.0,0.0,0.0,0.0,0.0,0.0,0.0,0.0,0.0,0.0,0.0,0.0,0.0,0.0,0.0,0.0,0.0,0.0,0.0,0.0,0.0,0.0,0.0,0.0,0.0,0.0,0.0,0.0,0.0,0.0,0.0,0.0,0.0,0.0,0.0,0.0,0.0,0.0,0.0,0.0,0.0,0.0,0.0,0.0,0.0,0.0,0.0,0.0,0.0,0.0,0.0,0.0,0.0,0.0,0.0,0.0,0.0,0.0,0.0,0.0,0.0,0.0,0.0,0.0,0.0,0.0,0.0,0.0,0.0,0.0,0.0,0.0,0.0,0.0,0.0,0.0,0.0,0.0,0.0,0.0,0.0,0.0,0.0,0.0,0.0,0.0,0.0,0.0,0.0,0.0,0.0,0.0,0.0,0.0,0.0,0.0,0.0,0.0,0.0,0.0,0.0,0.0,0.0,0.0,0.0,0.0,0.0,0.0,0.0,0.0,0.0,0.0,0.0,0.0,0.0,0.0,0.0,0.0,0.0,0.0,0.0,0.0,0.0,0.0,0.0,0.0,0.0,0.0,0.0,0.0,0.0,0.0,0.0,0.0,0.0,0.0,0.0,0.0,0.0,0.0,0.0,0.0,0.0,0.0,0.0,0.0,0.0,0.0,0.0,0.0,0.0,0.0,2.1837,0.0,0.0,0.0,0.0,0.0,0.0,0.0,0.0,0.0,0.0,0.0,0.0,0.0,0.0,0.0,0.0,0.0,0.0,0.0,0.0,0.0,0.0,0.0,0.0,0.0,0.0,0.0,0.0,0.0,0.0,0.0,0.0,0.0,0.0,0.0,0.0,0.0,0.0,0.0,0.0,0.0,0.0,0.0,0.0,0.0,0.0,0.0,0.0,0.0,0.0,0.0,0.0,0.0,0.0,0.0,0.0,0.0,0.0,0.0,0.0,0.0,0.0,0.0,0.0,0.0,0.0,0.0,0.0,0.0,0.0,0.0,0.0,0.0,0.0,0.0,0.0,0.0,0.0,0.0,0.0,0.0,0.0,0.0,0.0,0.0,0.0,0.0,0.0,0.0,0.0,0.0,0.0,0.0,0.0,0.0,0.0,0.0,0.0,0.0,0.0,0.0,0.0,0.0,0.0,0.0,0.0,0.0,0.0,0.0,0.0,2.2888,2.3103,2.2927,2.2518,2.1935,0.0,0.0,0.0,0.0,0.0,0.0,0.0,0.0,0.0,0.0,0.0,0.0,0.0,0.0,0.0,0.0,0.0,0.0,0.0,0.0,0.0,0.0,0.0,0.0,0.0,0.0,0.0,0.0,0.0,0.0,0.0,0.0,0.0,0.0,0.0,0.0,0.0,0.0,0.0,0.0,0.0,0.0,0.0,0.0,0.0,0.0,0.0,0.0,0.0,0.0,0.0,0.0,0.0,0.0,0.0,0.0,0.0,0.0,0.0,0.0,0.0,0.0,0.0,0.0,0.0,0.0,0.0,0.0,0.0,0.0,0.0,0.0,0.0,0.0,0.0,0.0,0.0,0.0,0.0,0.0,0.0,0.0,0.0,0.0,0.0,0.0,0.0,0.0,0.0,0.0,0.0,0.0,0.0,0.0,0.0,0.0,0.0,0.0,0.0,0.0,0.0,0.0,0.0,0.0,0.0,0.0,0.0,0.0,0.0,0.0,0.0,0.0,2.3396,2.2967,2.207,0.0,0.0,0.0,0.0,0.0,0.0,0.0,0.0,0.0,0.0,0.0,0.0,0.0,0.0,0.0,0.0,0.0,0.0,0.0,0.0,0.0,0.0,0.0,0.0,0.0,0.0,0.0,0.0,0.0,0.0,0.0,0.0,0.0,0.0,0.0,0.0,0.0,0.0,0.0,0.0,0.0,0.0,0.0,0.0,0.0,0.0,0.0,0.0,0.0,0.0,0.0,0.0,0.0,0.0,0.0,0.0,0.0,0.0,0.0,0.0,0.0,0.0,0.0,0.0,0.0,0.0,0.0,0.0,0.0,0.0,0.0,0.0,0.0,0.0,0.0,0.0,0.0,0.0,0.0,0.0,0.0,0.0,0.0,0.0,0.0,0.0,0.0,0.0,0.0,0.0,0.0,0.0,0.0,0.0,0.0,0.0,0.0,0.0,0.0,0.0,0.0,0.0,0.0,0.0,0.0,0.0,0.0,0.0,0.0,0.0,2.3432,2.4254,2.4254,0.0,2.2539,0.0,0.0,0.0,0.0,0.0,0.0,0.0,0.0,0.0,0.0,0.0,0.0,0.0,0.0,0.0,0.0,0.0,0.0,0.0,0.0,0.0,0.0,0.0,0.0,0.0,0.0,0.0,0.0,0.0,0.0,0.0,0.0,0.0,0.0,0.0,0.0,0.0,0.0,0.0,0.0,0.0,0.0,0.0,0.0,0.0,0.0,0.0,0.0,0.0,0.0,0.0,0.0,0.0,0.0,0.0,0.0,0.0,0.0,0.0,0.0,0.0,0.0,0.0,0.0,0.0,0.0,0.0,0.0,0.0,0.0,0.0,0.0,0.0,0.0,0.0,0.0,0.0,0.0,0.0,0.0,0.0,0.0,0.0,0.0,0.0,0.0,0.0,0.0,0.0,0.0,0.0,0.0,0.0,0.0,0.0,0.0,0.0,0.0,0.0,0.0,0.0,0.0,0.0,0.0,0.0,0.0,0.0,0.0,0.0,0.0,2.3437,2.4043,2.3555,2.293,0.0,0.0,0.0,0.0,0.0,0.0,0.0,0.0,0.0,0.0,0.0,0.0,0.0,0.0,0.0,0.0,0.0,0.0,0.0,0.0,0.0,0.0,0.0,0.0,0.0,0.0,0.0,0.0,0.0,0.0,0.0,0.0,0.0,0.0,0.0,0.0,0.0,0.0,0.0,0.0,0.0,0.0,0.0,0.0,0.0,0.0,0.0,0.0,0.0,0.0,0.0,0.0,0.0,0.0,0.0,0.0,0.0,0.0,0.0,0.0,0.0,0.0,0.0,0.0,0.0,0.0,0.0,0.0,0.0,0.0,0.0,0.0,0.0,0.0,0.0,0.0,0.0,0.0,0.0,0.0,0.0,0.0,0.0,0.0,0.0,0.0,0.0,0.0,0.0,0.0,0.0,0.0,0.0,0.0,0.0,0.0,0.0,0.0,0.0,0.0,0.0,0.0,0.0,0.0,0.0,0.0,0.0,0.0,0.0,0.0,2.342,2.3557,2.3906,2.3477,2.2754,2.1738,0.0,0.0,0.0,0.0,0.0,0.0,0.0,0.0,0.0,0.0,0.0,0.0,0.0,0.0,0.0,0.0,0.0,0.0,0.0,0.0,0.0,0.0,0.0,0.0,0.0,0.0,0.0,0.0,0.0,0.0,0.0,0.0,0.0,0.0,0.0,0.0,0.0,0.0,0.0,0.0,0.0,0.0,0.0,0.0,0.0,0.0,0.0,0.0,0.0,0.0,0.0,0.0,0.0,0.0,0.0,0.0,0.0,0.0,0.0,0.0,0.0,0.0,0.0,0.0,0.0,0.0,0.0,0.0,0.0,0.0,0.0,0.0,0.0,0.0,0.0,0.0,0.0,0.0,0.0,0.0,0.0,0.0,0.0,0.0,0.0,0.0,0.0,0.0,0.0,0.0,0.0,0.0,0.0,0.0,0.0,0.0,0.0,0.0,0.0,0.0,0.0,0.0,0.0,0.0,0.0,0.0,0.0,0.0,0.0,2.3945,2.3965,2.4352,2.4727,2.3789,0.0,0.0,0.0,0.0,0.0,0.0,0.0,0.0,0.0,0.0,0.0,0.0,0.0,0.0,0.0,0.0,0.0,0.0,0.0,0.0,0.0,0.0,0.0,0.0,0.0,0.0,0.0,0.0,0.0,0.0,0.0,0.0,0.0,0.0,0.0,0.0,0.0,0.0,0.0,0.0,0.0,0.0,0.0,0.0,0.0,0.0,0.0,0.0,0.0,0.0,0.0,0.0,0.0,0.0,0.0,0.0,0.0,0.0,0.0,0.0,0.0,0.0,0.0,0.0,0.0,0.0,0.0,0.0,0.0,0.0,0.0,0.0,0.0,0.0,0.0,0.0,0.0,0.0,0.0,0.0,0.0,0.0,0.0,0.0,0.0,0.0,0.0,0.0,0.0,0.0,0.0,0.0,0.0,0.0,0.0,0.0,0.0,0.0,0.0,0.0,0.0,0.0,0.0,0.0,0.0,0.0,0.0,0.0,0.0,2.2773,2.3142,2.3848,2.4769,2.3694,2.2598,0.0,0.0,0.0,0.0,0.0,0.0,0.0,0.0,0.0,0.0,0.0,0.0,0.0,0.0,0.0,0.0,0.0,0.0,0.0,0.0,0.0,0.0,0.0,0.0,0.0,0.0,0.0,0.0,0.0,0.0,0.0,0.0,0.0,0.0,0.0,0.0,0.0,0.0,0.0,0.0,0.0,0.0,0.0,0.0,0.0,0.0,0.0,0.0,0.0,0.0,0.0,0.0,0.0,0.0,0.0,0.0,0.0,0.0,0.0,0.0,0.0,0.0,0.0,0.0,0.0,0.0,0.0,0.0,0.0,0.0,0.0,0.0,0.0,0.0,0.0,0.0,0.0,0.0,0.0,0.0,0.0,0.0,0.0,0.0,0.0,0.0,0.0,0.0,0.0,0.0,0.0,0.0,0.0,0.0,0.0,0.0,0.0,0.0,0.0,0.0,0.0,0.0,0.0,0.0,0.0,0.0,0.0,0.0,0.0,2.248,0.0,2.4062,0.0,2.3284,2.213,0.0,0.0,0.0,0.0,0.0,0.0,0.0,0.0,0.0,0.0,0.0,0.0,0.0,0.0,0.0,0.0,0.0,0.0,0.0,0.0,0.0,0.0,0.0,0.0,0.0,0.0,0.0,0.0,0.0,0.0,0.0,0.0,0.0,0.0,0.0,0.0,0.0,0.0,0.0,0.0,0.0,0.0,0.0,0.0,0.0,0.0,0.0,0.0,0.0,0.0,0.0,0.0,0.0,0.0,0.0,0.0,0.0,0.0,0.0,0.0,0.0,0.0,0.0,0.0,0.0,0.0,0.0,0.0,0.0,0.0,0.0,0.0,0.0,0.0,0.0,0.0,0.0,0.0,0.0,0.0,0.0,0.0,0.0,0.0,0.0,0.0,0.0,0.0,0.0,0.0,0.0,0.0,0.0,0.0,0.0,0.0,0.0,0.0,0.0,0.0,0.0,0.0,0.0,0.0,0.0,0.0,0.0,0.0,2.2049,2.3714,2.4574,2.4633,2.3867,2.373,2.2539,0.0,0.0,0.0,0.0,0.0,0.0,0.0,0.0,0.0,0.0,0.0,0.0,0.0,0.0,0.0,0.0,0.0,0.0,0.0,0.0,0.0,0.0,0.0,0.0,0.0,0.0,0.0,0.0,0.0,0.0,0.0,0.0,0.0,0.0,0.0,0.0,0.0,0.0,0.0,0.0,0.0,0.0,0.0,0.0,0.0,0.0,0.0,0.0,0.0,0.0,0.0,0.0,0.0,0.0,0.0,0.0,0.0,0.0,0.0,0.0,0.0,0.0,0.0,0.0,0.0,0.0,0.0,0.0,0.0,0.0,0.0,0.0,0.0,0.0,0.0,0.0,0.0,0.0,0.0,0.0,0.0,0.0,0.0,0.0,0.0,0.0,0.0,0.0,0.0,0.0,0.0,0.0,0.0,0.0,0.0,0.0,0.0,0.0,0.0,0.0,0.0,0.0,0.0,0.0,0.0,0.0,0.0,0.0,0.0,2.2891,2.375,2.4492,2.5015,2.3398,2.2383,0.0,0.0,0.0,0.0,0.0,0.0,0.0,0.0,0.0,0.0,0.0,0.0,0.0,0.0,0.0,0.0,0.0,0.0,0.0,0.0,0.0,0.0,0.0,0.0,0.0,0.0,0.0,0.0,0.0,0.0,0.0,0.0,0.0,0.0,0.0,0.0,0.0,0.0,0.0,0.0,0.0,0.0,0.0,0.0,0.0,0.0,0.0,0.0,0.0,0.0,0.0,0.0,0.0,0.0,0.0,0.0,0.0,0.0,0.0,0.0,0.0,0.0,0.0,0.0,0.0,0.0,0.0,0.0,0.0,0.0,0.0,0.0,0.0,0.0,0.0,0.0,0.0,0.0,0.0,0.0,0.0,0.0,0.0,0.0,0.0,0.0,0.0,0.0,0.0,0.0,0.0,0.0,0.0,0.0,0.0,0.0,0.0,0.0,0.0,0.0,0.0,0.0,0.0,0.0,0.0,0.0,0.0,0.0,0.0,2.322,2.4062,2.4801,2.5488,2.375,2.2695,2.236,0.0,0.0,0.0,0.0,0.0,0.0,0.0,0.0,0.0,0.0,0.0,0.0,0.0,0.0,0.0,0.0,0.0,0.0,0.0,0.0,0.0,0.0,0.0,0.0,0.0,0.0,0.0,0.0,0.0,0.0,0.0,0.0,0.0,0.0,0.0,0.0,0.0,0.0,0.0,0.0,0.0,0.0,0.0,0.0,0.0,0.0,0.0,0.0,0.0,0.0,0.0,0.0,0.0,0.0,0.0,0.0,0.0,0.0,0.0,0.0,0.0,0.0,0.0,0.0,0.0,0.0,0.0,0.0,0.0,0.0,0.0,0.0,0.0,0.0,0.0,0.0,0.0,0.0,0.0,0.0,0.0,0.0,0.0,0.0,0.0,0.0,0.0,0.0,0.0,0.0,0.0,0.0,0.0,0.0,0.0,0.0,0.0,0.0,0.0,0.0,0.0,0.0,0.0,0.0,0.0,0.0,0.0,0.0,2.4492,2.5347,2.564,2.5336,2.4707,2.3477,0.0,0.0,0.0,0.0,0.0,0.0,0.0,0.0,0.0,0.0,0.0,0.0,0.0,0.0,0.0,0.0,0.0,0.0,0.0,0.0,0.0,0.0,0.0,0.0,0.0,0.0,0.0,0.0,0.0,0.0,0.0,0.0,0.0,0.0,0.0,0.0,0.0,0.0,0.0,0.0,0.0,0.0,0.0,0.0,0.0,0.0,0.0,0.0,0.0,0.0,0.0,0.0,0.0,0.0,0.0,0.0,0.0,0.0,0.0,0.0,0.0,0.0,0.0,0.0,0.0,0.0,0.0,0.0,0.0,0.0,0.0,0.0,0.0,0.0,0.0,0.0,0.0,0.0,0.0,0.0,0.0,0.0,0.0,0.0,0.0,0.0,0.0,0.0,0.0,0.0,0.0,0.0,0.0,0.0,0.0,0.0,0.0,0.0,0.0,0.0,0.0,0.0,0.0,0.0,0.0,0.0,0.0,0.0,0.0,2.5367,2.6543,2.7272,2.7402,2.5488,2.4316,0.0,0.0,0.0,0.0,0.0,0.0,0.0,0.0,0.0,0.0,0.0,0.0,0.0,0.0,0.0,0.0,0.0,0.0,0.0,0.0,0.0,0.0,0.0,0.0,0.0,0.0,0.0,0.0,0.0,0.0,0.0,0.0,0.0,0.0,0.0,0.0,0.0,0.0,0.0,0.0,0.0,0.0,0.0,0.0,0.0,0.0,0.0,0.0,0.0,0.0,0.0,0.0,0.0,0.0,0.0,0.0,0.0,0.0,0.0,0.0,0.0,0.0,0.0,0.0,0.0,0.0,0.0,0.0,0.0,0.0,0.0,0.0,0.0,0.0,0.0,0.0,0.0,0.0,0.0,0.0,0.0,0.0,0.0,0.0,0.0,0.0,0.0,0.0,0.0,0.0,0.0,0.0,0.0,0.0,0.0,0.0,0.0,0.0,0.0,0.0,0.0,0.0,0.0,0.0,0.0,0.0,0.0,0.0,2.5289,2.5991,2.7441,2.832,2.8555,2.5981,2.455,0.0,0.0,0.0,0.0,0.0,0.0,0.0,0.0,0.0,0.0,0.0,0.0,0.0,0.0,0.0,0.0,0.0,0.0,0.0,0.0,0.0,0.0,0.0,0.0,0.0,0.0,0.0,0.0,0.0,0.0,0.0,0.0,0.0,0.0,0.0,0.0,0.0,0.0,0.0,0.0,0.0,0.0,0.0,0.0,0.0,0.0,0.0,0.0,0.0,0.0,0.0,0.0,0.0,0.0,0.0,0.0,0.0,0.0,0.0,0.0,0.0,0.0,0.0,0.0,0.0,0.0,0.0,0.0,0.0,0.0,0.0,0.0,0.0,0.0,0.0,0.0,0.0,0.0,0.0,0.0,0.0,0.0,0.0,0.0,0.0,0.0,0.0,0.0,0.0,0.0,0.0,0.0,0.0,0.0,0.0,0.0,0.0,0.0,0.0,0.0,0.0,0.0,0.0,0.0,0.0,0.0,0.0,0.0,2.5986,2.6523,2.7992,2.8784,2.8738,2.6184,2.4502,0.0,0.0,0.0,0.0,0.0,0.0,0.0,0.0,0.0,0.0,0.0,0.0,0.0,0.0,0.0,0.0,0.0,0.0,0.0,0.0,0.0,0.0,0.0,0.0,0.0,0.0,0.0,0.0,0.0,0.0,0.0,0.0,0.0,0.0,0.0,0.0,0.0,0.0,0.0,0.0,0.0,0.0,0.0,0.0,0.0,0.0,0.0,0.0,0.0,0.0,0.0,0.0,0.0,0.0,0.0,0.0,0.0,0.0,0.0,0.0,0.0,0.0,0.0,0.0,0.0,0.0,0.0,0.0,0.0,0.0,0.0,0.0,0.0,0.0,0.0,0.0,0.0,0.0,0.0,0.0,0.0,0.0,0.0,0.0,0.0,0.0,0.0,0.0,0.0,0.0,0.0,0.0,0.0,0.0,0.0,0.0,0.0,0.0,0.0,0.0,0.0,0.0,0.0,0.0,0.0,0.0,0.0,0.0,2.642,2.7383,2.771,2.8059,2.8403,2.5811,2.4538,0.0,0.0,0.0,0.0,0.0,0.0,0.0,0.0,0.0,0.0,0.0,0.0,0.0,0.0,0.0,0.0,0.0,0.0,0.0,0.0,0.0,0.0,0.0,0.0,0.0,0.0,0.0,0.0,0.0,0.0,0.0,0.0,0.0,0.0,0.0,0.0,0.0,0.0,0.0,0.0,0.0,0.0,0.0,0.0,0.0,0.0,0.0,0.0,2.1315,0.0,0.0,0.0,0.0,0.0,0.0,0.0,0.0,0.0,0.0,0.0,0.0,0.0,0.0,0.0,0.0,0.0,0.0,0.0,0.0,0.0,0.0,0.0,0.0,0.0,0.0,0.0,0.0,0.0,0.0,0.0,0.0,0.0,0.0,0.0,0.0,0.0,0.0,0.0,0.0,0.0,0.0,0.0,0.0,0.0,0.0,0.0,0.0,0.0,0.0,0.0,0.0,0.0,0.0,0.0,0.0,0.0,0.0,0.0,2.667,2.7656,2.8038,2.8052,2.7635,2.5522,2.439,0.0,0.0,0.0,0.0,0.0,0.0,0.0,0.0,0.0,0.0,0.0,0.0,0.0,0.0,0.0,0.0,0.0,0.0,0.0,0.0,0.0,0.0,0.0,0.0,0.0,0.0,0.0,0.0,0.0,0.0,0.0,0.0,0.0,0.0,0.0,0.0,0.0,0.0,0.0,0.0,0.0,0.0,0.0,0.0,0.0,0.0,0.0,0.0,0.0,0.0,0.0,0.0,0.0,0.0,0.0,0.0,0.0,0.0,0.0,0.0,0.0,0.0,0.0,0.0,0.0,0.0,0.0,0.0,0.0,0.0,0.0,0.0,0.0,0.0,0.0,0.0,0.0,0.0,0.0,0.0,0.0,0.0,0.0,0.0,0.0,0.0,0.0,0.0,0.0,0.0,0.0,0.0,0.0,0.0,0.0,0.0,0.0,0.0,0.0,0.0,0.0,0.0,0.0,0.0,0.0,0.0,0.0,2.5421,2.6592,2.7523,2.8076,2.7771,2.6581,2.4707,2.3631,2.3398,0.0,0.0,0.0,0.0,0.0,0.0,0.0,0.0,0.0,0.0,0.0,0.0,0.0,0.0,0.0,0.0,0.0,0.0,0.0,0.0,0.0,0.0,0.0,0.0,0.0,0.0,0.0,0.0,0.0,0.0,0.0,0.0,0.0,0.0,0.0,0.0,0.0,0.0,2.1785,2.1136,0.0,0.0,0.0,0.0,0.0,0.0,0.0,0.0,2.0742,0.0,0.0,0.0,0.0,0.0,0.0,0.0,0.0,0.0,0.0,0.0,0.0,0.0,0.0,0.0,0.0,0.0,0.0,0.0,0.0,0.0,0.0,0.0,0.0,0.0,0.0,0.0,0.0,0.0,0.0,0.0,0.0,0.0,0.0,0.0,0.0,0.0,0.0,0.0,0.0,0.0,0.0,0.0,0.0,0.0,0.0,0.0,0.0,0.0,0.0,0.0,0.0,0.0,0.0,0.0,0.0,2.5011,2.502,2.561,2.6793,2.615,2.5418,2.4551,2.2013,2.0983,2.1635,0.0,0.0,0.0,0.0,0.0,0.0,0.0,0.0,0.0,0.0,0.0,0.0,0.0,0.0,0.0,0.0,0.0,0.0,0.0,0.0,0.0,0.0,0.0,0.0,0.0,0.0,0.0,0.0,0.0,0.0,0.0,0.0,0.0,0.0,0.0,0.0,0.0,0.0,0.0,2.1211,2.068,0.0,0.0,0.0,0.0,0.0,0.0,0.0,0.0,1.9199,0.0,0.0,0.0,0.0,0.0,0.0,0.0,0.0,0.0,0.0,0.0,0.0,0.0,0.0,0.0,0.0,0.0,0.0,0.0,0.0,0.0,0.0,0.0,0.0,0.0,0.0,0.0,0.0,0.0,0.0,0.0,0.0,0.0,0.0,0.0,0.0,0.0,0.0,0.0,0.0,0.0,0.0,0.0,0.0,0.0,0.0,0.0,0.0,0.0,0.0,0.0,0.0,0.0,0.0,0.0,2.3845,2.4092,2.4623,2.5607,2.5432,2.474,2.3531,2.1673,2.0524,0.0,0.0,0.0,0.0,0.0,0.0,0.0,0.0,0.0,0.0,0.0,0.0,0.0,0.0,0.0,0.0,0.0,0.0,0.0,0.0,0.0,0.0,0.0,0.0,0.0,0.0,0.0,0.0,0.0,0.0,0.0,0.0,0.0,0.0,0.0,0.0,0.0,0.0,0.0,0.0,2.0623,2.034,2.005,0.0,0.0,0.0,0.0,0.0,0.0,1.836,1.8326,0.0,0.0,0.0,0.0,0.0,0.0,0.0,0.0,0.0,0.0,0.0,0.0,0.0,0.0,0.0,0.0,0.0,0.0,0.0,0.0,0.0,0.0,0.0,0.0,0.0,0.0,0.0,0.0,0.0,0.0,0.0,0.0,0.0,0.0,0.0,0.0,0.0,0.0,0.0,0.0,0.0,0.0,0.0,0.0,0.0,0.0,0.0,0.0,0.0,0.0,0.0,0.0,0.0,0.0,0.0,2.2583,2.3048,2.3517,2.4072,2.4502,2.3987,2.2509,2.1333,2.0174,0.0,0.0,0.0,0.0,0.0,0.0,0.0,0.0,0.0,0.0,0.0,0.0,0.0,0.0,0.0,0.0,0.0,0.0,0.0,0.0,0.0,0.0,0.0,0.0,0.0,0.0,0.0,0.0,0.0,0.0,0.0,0.0,0.0,0.0,0.0,0.0,0.0,0.0,0.0,0.0,0.0,1.9948,1.8947,1.8782,0.0,0.0,0.0,0.0,1.7635,1.7916,0.0,0.0,0.0,0.0,0.0,0.0,0.0,0.0,0.0,0.0,0.0,0.0,0.0,0.0,0.0,0.0,0.0,0.0,0.0,0.0,0.0,0.0,0.0,0.0,0.0,0.0,0.0,0.0,0.0,0.0,0.0,0.0,0.0,0.0,0.0,0.0,0.0,0.0,0.0,0.0,0.0,0.0,0.0,0.0,0.0,0.0,0.0,0.0,0.0,0.0,0.0,0.0,0.0,0.0,0.0,0.0,2.2351,2.2214,2.207,2.1981,2.2299,2.1875,2.0644,1.9218,1.8479,0.0,0.0,0.0,0.0,0.0,0.0,0.0,0.0,0.0,0.0,0.0,0.0,0.0,0.0,0.0,0.0,0.0,0.0,0.0,0.0,0.0,0.0,0.0,0.0,0.0,0.0,0.0,0.0,0.0,0.0,0.0,0.0,0.0,0.0,0.0,0.0,0.0,0.0,0.0,0.0,0.0,1.9561,1.8275,1.8755,1.8859,0.0,0.0,1.8657,1.7934,1.7918,0.0,0.0,0.0,0.0,0.0,0.0,0.0,0.0,0.0,0.0,0.0,0.0,0.0,0.0,0.0,0.0,0.0,0.0,0.0,0.0,0.0,0.0,0.0,0.0,0.0,0.0,0.0,0.0,0.0,0.0,0.0,0.0,0.0,0.0,0.0,0.0,0.0,0.0,0.0,0.0,0.0,0.0,0.0,0.0,0.0,0.0,0.0,0.0,0.0,0.0,0.0,0.0,0.0,0.0,0.0,2.0049,2.1476,2.1171,2.1013,2.1075,2.122,2.0902,2.0011,1.8576,1.7585,0.0,0.0,0.0,0.0,0.0,0.0,0.0,0.0,0.0,0.0,0.0,0.0,0.0,0.0,0.0,0.0,0.0,0.0,0.0,0.0,0.0,0.0,0.0,0.0,0.0,0.0,0.0,0.0,0.0,0.0,0.0,0.0,0.0,0.0,0.0,0.0,0.0,0.0,0.0,0.0,0.0,0.0,1.8329,1.8619,0.0,0.0,0.0,1.8127,1.7518,0.0,0.0,0.0,0.0,0.0,0.0,0.0,0.0,0.0,0.0,0.0,0.0,0.0,0.0,0.0,0.0,0.0,0.0,0.0,0.0,0.0,0.0,0.0,0.0,0.0,0.0,0.0,0.0,0.0,0.0,0.0,0.0,0.0,0.0,0.0,0.0,0.0,0.0,0.0,0.0,0.0,0.0,0.0,0.0,0.0,0.0,0.0,0.0,0.0,0.0,0.0,0.0,0.0,0.0,0.0,0.0,0.0,2.058,2.04,2.0342,2.0467,2.0536,2.028,1.9722,1.8469,0.0,0.0,0.0,0.0,0.0,0.0,0.0,0.0,0.0,0.0,0.0,0.0,0.0,0.0,0.0,0.0,0.0,0.0,0.0,0.0,0.0,0.0,0.0,0.0,0.0,0.0,0.0,1.4822,0.0,0.0,0.0,0.0,0.0,0.0,0.0,0.0,0.0,0.0,0.0,0.0,0.0,0.0,1.9408,1.8429,1.8657,1.8838,0.0,0.0,1.7992,1.7636,1.8004,1.7835,0.0,0.0,0.0,0.0,0.0,0.0,0.0,0.0,0.0,0.0,0.0,0.0,0.0,0.0,0.0,0.0,0.0,0.0,0.0,0.0,0.0,0.0,0.0,0.0,0.0,0.0,0.0,0.0,0.0,0.0,0.0,0.0,0.0,0.0,0.0,0.0,0.0,0.0,0.0,0.0,0.0,0.0,0.0,0.0,0.0,0.0,0.0,0.0,0.0,0.0,0.0,0.0,0.0,0.0,0.0,1.9823,2.0099,2.0097,1.9886,2.0127,1.9963,1.943,1.88,1.7742,0.0,0.0,0.0,0.0,0.0,0.0,0.0,0.0,0.0,0.0,0.0,0.0,0.0,0.0,0.0,0.0,0.0,0.0,0.0,0.0,0.0,0.0,0.0,0.0,0.0,0.0,0.0,0.0,0.0,0.0,0.0,0.0,0.0,0.0,0.0,0.0,0.0,0.0,0.0,0.0,0.0,1.9521,1.8447,1.8971,1.9443,0.0,0.0,1.8729,1.8935,1.9169,1.8862,1.7261,0.0,0.0,0.0,0.0,0.0,0.0,0.0,0.0,0.0,0.0,0.0,0.0,0.0,0.0,0.0,0.0,0.0,0.0,0.0,0.0,0.0,0.0,0.0,0.0,0.0,0.0,0.0,0.0,0.0,0.0,0.0,0.0,0.0,0.0,0.0,0.0,0.0,0.0,0.0,0.0,0.0,0.0,0.0,0.0,0.0,0.0,0.0,0.0,0.0,0.0,0.0,0.0,0.0,1.8751,1.9672,2.0012,2.0237,2.0378,2.0441,2.0258,1.9639,1.9065,1.8063,0.0,0.0,0.0,0.0,0.0,0.0,0.0,0.0,0.0,0.0,0.0,0.0,0.0,0.0,0.0,0.0,0.0,0.0,0.0,0.0,0.0,0.0,0.0,0.0,0.0,0.0,0.0,0.0,1.5558,1.5693,1.5628,0.0,0.0,0.0,0.0,0.0,0.0,0.0,0.0,0.0,0.0,1.9628,1.9548,1.9123,0.0,0.0,1.8868,1.833,1.9228,1.853,1.7718,1.7169,1.6238,0.0,0.0,0.0,0.0,0.0,0.0,0.0,0.0,0.0,0.0,0.0,0.0,0.0,0.0,0.0,0.0,0.0,0.0,0.0,0.0,0.0,0.0,0.0,0.0,0.0,0.0,0.0,0.0,0.0,0.0,0.0,0.0,0.0,0.0,0.0,0.0,0.0,0.0,0.0,0.0,0.0,0.0,0.0,0.0,0.0,0.0,0.0,0.0,0.0,0.0,0.0,0.0,1.8618,1.9325,2.0019,2.0468,2.0699,2.0793,2.0521,1.9947,1.941,1.8531,0.0,0.0,0.0,0.0,0.0,0.0,0.0,0.0,0.0,0.0,0.0,0.0,0.0,0.0,0.0,0.0,0.0,0.0,0.0,0.0,0.0,0.0,0.0,0.0,0.0,0.0,0.0,0.0,1.5844,1.5808,1.5531,0.0,0.0,0.0,0.0,0.0,0.0,0.0,0.0,0.0,0.0,1.8451,1.8801,1.8188,1.794,1.8812,1.7693,1.7071,1.8035,1.7086,1.6231,1.6149,0.0,0.0,0.0,0.0,0.0,0.0,0.0,0.0,0.0,0.0,0.0,0.0,0.0,0.0,0.0,0.0,0.0,0.0,0.0,0.0,0.0,0.0,0.0,0.0,0.0,0.0,0.0,0.0,0.0,0.0,1.5391,0.0,0.0,0.0,0.0,0.0,0.0,0.0,0.0,0.0,0.0,0.0,0.0,0.0,0.0,0.0,0.0,0.0,0.0,0.0,0.0,0.0,0.0,1.8112,1.8737,2.0026,2.0668,2.0695,2.0962,2.0815,2.021,1.9933,1.9196,1.7996,0.0,0.0,0.0,0.0,0.0,0.0,0.0,0.0,0.0,0.0,0.0,0.0,0.0,0.0,0.0,0.0,0.0,0.0,0.0,0.0,0.0,0.0,0.0,0.0,0.0,0.0,1.5467,1.5719,1.572,0.0,0.0,0.0,0.0,0.0,0.0,0.0,0.0,0.0,0.0,1.5863,1.5684,1.5691,1.5809,1.5954,1.5904,1.5265,1.4888,1.5251,1.4958,1.4576,0.0,0.0,0.0,0.0,0.0,0.0,0.0,0.0,0.0,0.0,0.0,0.0,0.0,0.0,0.0,0.0,0.0,0.0,0.0,0.0,0.0,0.0,0.0,0.0,0.0,0.0,0.0,1.7115,1.6834,0.0,0.0,0.0,0.0,0.0,0.0,0.0,0.0,0.0,0.0,0.0,1.9153,2.0142,0.0,0.0,0.0,0.0,0.0,0.0,0.0,0.0,0.0,0.0,0.0,0.0,1.8067,1.9002,1.9915,2.0575,2.0949,2.1056,2.0922,2.0535,2.0054,1.9065,1.7502,0.0,0.0,0.0,0.0,0.0,0.0,0.0,0.0,0.0,0.0,0.0,0.0,0.0,0.0,0.0,0.0,0.0,0.0,0.0,0.0,0.0,0.0,0.0,0.0,0.0,1.4315,0.0,0.0,0.0,0.0,0.0,0.0,0.0,0.0,0.0,0.0,0.0,1.4794,1.5452,1.5606,1.5718,1.5878,1.509,1.484,0.0,0.0,0.0,0.0,0.0,0.0,0.0,0.0,0.0,0.0,0.0,0.0,0.0,0.0,1.163,1.2939,1.3156,1.3159,1.3105,0.0,0.0,0.0,0.0,0.0,0.0,0.0,0.0,0.0,0.0,0.0,0.0,0.0,0.0,1.8209,0.0,1.7769,0.0,0.0,0.0,0.0,0.0,0.0,0.0,0.0,1.9776,2.0214,1.9867,2.049,2.0548,0.0,2.0123,1.9342,0.0,0.0,0.0,0.0,0.0,0.0,0.0,0.0,1.8482,1.9236,2.0059,2.0691,2.1082,2.1109,2.1015,2.0828,2.0254,1.9305,1.8023,1.7381,1.6767,0.0,0.0,0.0,0.0,0.0,0.0,0.0,0.0,0.0,0.0,0.0,0.0,0.0,0.0,0.0,0.0,0.0,0.0,0.0,0.0,0.0,0.0,0.0,1.3136,0.0,0.0,0.0,0.0,0.0,0.0,0.0,0.0,0.0,1.3738,1.3908,1.4145,1.4627,1.4457,1.4268,1.4285,0.0,0.0,0.0,0.0,0.0,0.0,0.0,1.2177,1.2878,1.2185,1.1891,1.3012,1.268,1.2235,1.1985,0.0,0.0,1.2224,1.2383,1.2392,1.2344,1.173,1.1143,1.0972,1.0419,0.9823,0.0,0.0,0.0,0.0,0.0,0.0,0.0,0.0,1.901,1.8996,0.0,1.8691,0.0,0.0,0.0,0.0,0.0,1.8893,0.0,0.0,2.143,2.2098,2.1636,2.189,2.1991,2.1997,2.1416,2.0708,1.987,1.9811,0.0,0.0,0.0,0.0,0.0,0.0,1.9328,1.9423,2.0496,2.1109,2.1091,2.1109,2.1096,2.1069,2.0504,1.9973,1.9441,1.8853,1.8277,1.7689,1.6846,0.0,0.0,0.0,0.0,0.0,0.0,0.0,0.0,0.0,0.0,0.0,0.0,0.0,0.0,0.0,0.0,0.0,0.0,0.0,0.0,1.2654,0.0,0.0,0.0,0.0,0.0,0.0,0.0,0.0,0.0,0.0,1.4033,1.3671,1.3289,1.3402,0.0,0.0,0.0,0.0,1.1097,1.0866,1.0629,1.058,1.062,1.0785,1.0928,1.0934,0.0,0.0,1.0694,1.0705,1.0797,1.0632,1.0783,1.0874,1.0669,1.0509,1.035,1.0455,1.0411,1.0172,1.0125,1.0092,0.9948,2.0828,0.0,0.0,0.0,0.0,2.0094,2.0605,2.1358,2.1007,2.0681,2.0424,1.993,0.0,0.0,0.0,0.0,0.0,0.0,2.0445,2.0655,2.1657,2.2124,2.2178,2.2505,2.2498,2.2298,2.2338,2.1943,2.1114,2.1254,2.0075,1.7738,0.0,0.0,0.0,0.0,1.9535,2.0525,2.0913,2.1216,2.1448,2.1216,2.1015,2.0846,2.0641,2.0481,2.0338,1.9733,1.9345,1.9158,1.833,0.0,0.0,0.0,0.0,0.0,0.0,0.0,0.0,0.0,0.0,0.0,0.0,0.0,0.0,0.0,0.0,0.0,0.0,0.0,1.1441,1.0659,1.0207,0.0,0.0,0.0,0.0,0.0,0.0,0.0,0.0,0.0,1.2427,1.2133,1.1852,0.0,0.0,1.0901,1.0772,1.1036,1.1206,1.1192,1.1253,0.0,1.1394,1.1306,1.1196,1.1021,1.0942,1.0767,1.0357,1.0501,1.0558,1.025,1.0229,1.0252,1.0223,1.0504,1.0673,1.0693,1.0644,1.051,1.0246,1.0143,1.0071,2.2592,2.159,2.1122,2.1203,2.1603,2.1443,2.183,2.2565,2.2098,2.179,2.1603,2.1104,2.0508,1.9773,1.9517,0.0,0.0,0.0,2.1274,2.1643,2.2111,2.2432,2.2605,2.2813,2.28,2.2605,2.2693,2.2452,2.193,2.1844,2.0833,1.8893,0.0,0.0,1.8862,1.9352,2.005,2.0889,2.1177,2.1408,2.1601,2.1256,2.1029,2.0855,2.0842,2.0788,2.0712,2.0378,2.0094,1.993,1.8503,1.7089,0.0,0.0,0.0,0.0,0.0,0.0,0.0,0.0,0.0,0.0,0.0,1.3393,1.3014,0.0,0.0,0.0,1.1937,1.1425,1.0567,1.0047,0.0,0.0,0.0,0.0,0.0,0.0,0.0,1.1144,1.1423,1.1633,1.1766,1.1592,1.1484,1.1633,1.1369,1.1103,1.1049,0.0,1.1436,1.1477,1.1558,1.1617,1.1698,1.1549,1.1256,1.0903,1.0795,1.06,1.0193,1.0274,1.0286,1.0058,1.0019,1.0019,1.0019,1.0346,1.0591,1.0509,1.0492,1.0378,1.015,1.0072,0.9963,2.3857,2.375,2.2645,2.2325,2.2525,2.2498,2.2645,2.2907,2.2579,2.2425,2.2398,2.2151,2.1724,2.1157,2.061,0.0,2.1256,2.1569,2.197,2.2458,2.2773,2.2893,2.2893,2.2893,2.2893,2.288,2.2579,2.2425,2.2418,2.193,2.1355,2.0779,2.0441,1.997,1.9508,2.0244,2.0712,2.0779,2.1315,2.1596,2.1622,2.1269,2.1109,2.1096,2.1109,2.0989,2.0735,2.0588,2.0407,2.0081,1.7745,1.6315,1.5985,0.0,0.0,0.0,0.0,0.0,0.0,0.0,0.0,0.0,0.0,0.0,0.0,0.0,0.0,0.0,1.1717,0.0,1.0563,1.0444,0.0,0.0,0.0,1.0887,1.1206,1.1383,1.1497,1.1619,0.0,0.0,1.1827,1.1827,1.1925,1.2111,1.1932,1.1726,1.164,1.1735,1.1766,1.1681,1.1687,1.1701,1.1732,1.1532,1.1221,1.0709,1.0602,1.043,1.0081,1.0008,1.0019,1.0019,1.0019,1.0019,1.0019,1.0014,1.0019,1.0047,1.0047,1.0014,0.9998,0.9921,0.9851,2.4302,2.4102,2.3999,2.3794,2.3434,2.3207,2.3118,2.3193,2.292,2.2786,2.2773,2.2445,2.2231,2.2065,2.1931,2.2098,2.2479,2.2546,2.2666,2.2786,2.2867,2.2893,2.2893,2.2893,2.2893,2.2893,2.2827,2.2786,2.2773,2.2392,2.1911,2.1395,2.1056,2.0494,1.9746,2.012,2.0668,2.1368,2.1515,2.1689,2.1857,2.1376,2.1109,2.1109,2.1109,2.1082,2.1002,1.987,1.9318,1.938,1.7078,1.5074,1.3626,1.3259,0.0,0.0,0.0,0.0,0.0,0.0,0.0,0.0,0.0,1.1525,1.0799,0.0,1.0551,0.0,1.0699,1.0809,1.0656,1.0873,0.0,0.0,1.1165,1.1307,1.1491,1.1778,1.187,1.1753,1.202,1.2182,1.2182,1.2182,1.223,1.2366,1.1979,1.1617,1.159,1.1843,1.2036,1.2023,1.2135,1.2284,1.2201,1.1734,1.1144,1.0668,1.0369,1.0097,1.0019,1.0019,1.0019,1.0019,1.0019,1.0019,1.0019,1.0019,1.0019,1.0019,1.0019,1.0019,1.0019,0.9959,0.9937,2.4743,2.4596,2.4586,2.4382,2.3991,2.3781,2.3679,2.3688,2.326,2.3073,2.3046,2.2752,2.2619,2.2619,2.2619,2.2699,2.2893,2.2893,2.2893,2.2893,2.2893,2.2893,2.2907,2.3041,2.3073,2.3073,2.3073,2.314,2.3268,2.2819,2.2479,2.2171,2.183,2.1323,2.0632,2.0317,2.0535,2.1181,2.1315,2.143,2.1577,2.1149,2.0605,1.9993,2.031,1.9963,1.884,1.8466,1.807,1.7563,1.5565,1.3906,1.2709,1.2078,1.0942,0.0,0.0,0.0,0.0,0.0,0.0,0.0,0.0,0.0,0.0,0.0,1.0365,1.0419,1.0846,1.1172,1.1307,1.1402,1.1565,1.183,1.1877,1.1972,1.2189,1.2305,1.2325,1.2244,1.2325,1.2386,1.2386,1.2379,1.2413,1.2488,1.2216,1.2013,1.202,1.2162,1.2295,1.2264,1.2239,1.2076,1.1727,1.1301,1.0835,1.0408,1.0136,1.0019,1.0019,1.0019,1.0019,1.0019,1.0019,1.0019,1.0019,1.0019,1.0019,1.0019,1.0019,1.0019,1.0019,1.0019,1.0019,2.5144,2.5117,2.4773,2.4506,2.4315,2.4275,2.4222,2.4115,2.3607,2.3332,2.3278,2.3046,2.296,2.296,2.2947,2.296,2.296,2.2907,2.2893,2.2893,2.2893,2.292,2.2974,2.3172,2.3305,2.3345,2.3305,2.3452,2.379,2.3188,2.288,2.2827,2.2552,2.2111,2.1529,2.0762,2.0508,2.0722,2.1015,2.1189,2.1184,2.0659,1.9779,1.8551,1.9039,1.8225,1.595,1.6609,1.6511,1.53,1.3683,1.2643,1.2344,1.0773,0.9795,0.0,0.9551,0.0,0.0,0.0,0.0,0.0,0.0,0.0,0.0,1.0724,1.0948,1.1261,1.1525,1.1816,1.2125,1.2033,1.2189,1.2684,1.2644,1.2671,1.2955,1.2827,1.2693,1.2693,1.2596,1.2501,1.2494,1.2501,1.2501,1.2501,1.2481,1.2461,1.2515,1.2494,1.2474,1.2501,1.2153,1.1688,1.0913,1.0641,1.0369,0.9864,0.9547,0.9586,0.9197,0.9197,0.9275,0.9275,0.9353,0.9586,0.9669,0.9786,1.0019,1.0019,1.0019,1.0019,1.0019,1.0019,1.0019,2.5424,2.5411,2.5117,2.4957,2.489,2.4663,2.4289,2.3884,2.3741,2.3554,2.3292,2.3225,2.3233,2.3233,2.3247,2.3233,2.322,2.3014,2.2893,2.2893,2.2893,2.3041,2.3233,2.3265,2.3447,2.3661,2.3447,2.3474,2.3803,2.3188,2.2773,2.2512,2.2445,2.2004,2.1243,0.0,0.0,0.0,2.1355,2.1622,2.1744,1.9801,1.8569,1.816,1.7336,0.0,1.5231,1.4538,1.4021,1.3532,1.1906,0.0,0.0,0.0,0.0,0.0,0.0,0.0,0.0,0.0,0.0,0.0,1.1138,1.0995,1.0853,1.1185,1.1482,1.1694,1.1986,1.2237,1.2406,1.2662,1.2833,1.2935,1.2935,1.2941,1.2989,1.2827,1.2693,1.2686,1.2596,1.2501,1.2501,1.2501,1.2501,1.2508,1.2501,1.2556,1.2632,1.2583,1.2501,1.2463,1.2114,1.1572,1.0758,1.0563,0.9975,0.853,0.7985,0.7517,0.642,0.6108,0.603,0.6108,0.7045,0.7985,0.7985,0.9041,0.9903,0.998,0.998,1.0019,1.0019,1.0019,1.0019,2.5732,0.0,2.5302,2.5077,0.0,2.4719,2.4426,2.4182,2.4048,2.3821,2.3554,2.3541,2.3541,2.3541,2.3541,2.3554,2.3541,2.3415,2.3348,2.3348,2.3348,2.3429,2.3554,2.3688,2.3834,2.3981,2.3834,2.3834,2.3955,2.3562,2.3268,2.3086,2.2939,2.2259,2.1124,2.0362,2.0468,2.1336,2.076,2.064,2.0803,1.8716,1.7184,1.6393,1.591,0.0,0.0,0.0,0.0,0.0,0.0,0.0,0.0,0.0,0.0,1.0948,1.0833,1.0921,1.1212,1.1341,1.1511,1.1846,1.1904,1.1816,1.1525,1.1843,1.2115,1.2219,1.2352,1.2515,1.28,1.2847,1.2935,1.318,1.3091,1.305,1.3159,1.2908,1.2766,1.2807,1.2644,1.2501,1.2501,1.2501,1.2535,1.2603,1.2617,1.2671,1.2786,1.2644,1.2385,1.1998,1.1766,1.1301,1.0525,1.0291,0.9664,0.8024,0.7517,0.6811,0.5287,0.5014,0.5014,0.5053,0.5717,0.6264,0.6381,0.7634,0.8769,0.8847,0.9431,0.998,1.0019,1.0019,1.0019,2.6078,2.6024,2.5503,2.5235,2.513,2.4836,2.4653,2.4586,0.0,0.0,0.0,2.3884,2.3884,2.3884,2.3884,2.3884,2.3884,2.383,2.3817,2.3817,2.3817,2.383,2.3897,2.4088,2.4235,2.4275,2.4222,2.4235,2.4262,2.3977,2.383,2.3857,2.3607,2.2721,2.1184,1.9416,1.9358,2.0948,1.975,1.9135,1.9321,1.7489,1.5895,1.4623,1.4634,1.3631,1.1549,1.2124,1.2009,1.0958,1.1087,1.1203,1.123,1.1405,1.158,1.1771,1.1766,1.1827,1.1942,1.2108,1.2261,1.2325,1.2433,1.24,1.2193,1.2359,1.2562,1.2679,1.2637,1.2745,1.3173,1.2983,1.2956,1.3363,1.3186,1.3146,1.3336,1.299,1.2827,1.2941,1.2691,1.2501,1.2501,1.2528,1.2583,1.2659,1.2713,1.2813,1.2895,1.2759,1.2206,1.12,1.0843,1.0475,0.9475,0.9003,0.8453,0.6651,0.6417,0.5988,0.4623,0.4114,0.4114,0.384,0.431,0.4544,0.4701,0.6225,0.7396,0.7517,0.8847,1.0019,1.0019,1.0019,1.0019,2.6333,2.6293,2.6011,2.5678,2.5438,2.5144,2.4863,2.4572,2.4329,2.4182,2.4142,2.4142,2.4142,2.4142,2.4142,2.4142,2.4128,2.3924,2.3817,2.3817,2.3817,2.3937,2.4142,2.4182,2.4292,2.4506,2.4315,2.4329,2.4452,2.4035,2.3901,2.4115,2.4102,2.3218,2.1655,1.9801,1.8964,1.925,1.8424,1.7964,1.7814,1.6158,1.5021,1.4491,1.3509,1.2442,1.1396,1.1556,1.1427,1.0939,1.1097,1.1372,1.1683,1.1889,1.2121,1.2352,1.2501,1.2544,1.2557,1.2591,1.2589,1.2488,1.2494,1.2481,1.2447,1.2474,1.2569,1.2672,1.282,1.3009,1.3152,1.3241,1.3302,1.3383,1.3363,1.3363,1.3397,1.3119,1.2975,1.3003,1.2691,1.2515,1.2535,1.2623,1.2672,1.2713,1.2874,1.2949,1.2849,1.2969,1.2039,1.0352,0.9529,0.8466,0.7036,0.5994,0.5329,0.3447,0.3407,0.3057,0.1412,0.0,0.0,0.0,0.0,0.2742,0.2938,0.5402,0.6889,0.7318,0.8647,0.9786,0.9942,1.0019,1.0019,2.64,2.636,2.6118,2.5917,2.5757,2.5277,2.4917,2.4599,2.4466,2.4399,2.4399,2.4436,2.4399,2.4399,2.4436,2.4399,2.4399,2.4302,2.4235,2.4235,2.4249,2.4315,2.4422,2.4436,2.4466,2.4586,2.4466,2.4386,2.4382,2.4128,2.4075,2.4086,2.2532,2.0821,1.9139,1.7384,1.6527,1.6629,1.7017,1.7146,1.7046,1.5228,1.4179,1.3984,1.2898,1.2209,1.1915,1.1739,1.1636,1.1545,1.1649,1.1853,1.2169,1.2257,1.2472,1.2764,1.2813,1.2854,1.2854,1.2854,1.2793,1.2637,1.2584,1.2589,1.2508,1.2501,1.2603,1.282,1.2854,1.2963,1.3254,1.3288,1.3308,1.3397,1.3329,1.3315,1.3356,1.3139,1.3037,1.3084,1.2928,1.2792,1.2792,1.2813,1.2895,1.2963,1.3105,1.2907,1.1955,1.171,1.1271,0.9888,0.8678,0.7401,0.5904,0.5497,0.4574,0.2825,0.2507,0.1803,0.0,0.0,0.0,0.0,0.0,0.1059,0.1177,0.3055,0.4816,0.6186,0.7474,0.8686,0.963,1.0019,1.0019,2.6493,2.6466,2.6212,2.6051,2.5957,2.5398,2.501,2.4706,2.4706,2.4653,2.4599,2.4599,2.4599,2.4599,2.4599,2.4599,2.4599,2.4599,2.4599,2.4599,2.4599,2.4599,2.4599,2.4599,2.4599,2.4599,2.4599,2.4295,2.3792,2.3742,2.3559,2.2961,2.0421,1.834,1.6983,1.536,1.4627,1.4824,1.5779,1.6277,1.6113,1.4547,1.3683,1.3571,1.2794,1.2387,1.2428,1.2141,1.2026,1.2139,1.2179,1.2298,1.2583,1.2637,1.2773,1.3064,1.3132,1.3098,1.3098,1.3064,1.2942,1.28,1.2779,1.2732,1.2623,1.2603,1.2698,1.2941,1.2861,1.2969,1.3349,1.3363,1.3336,1.3471,1.3397,1.3403,1.3458,1.3268,1.3173,1.32,1.3139,1.3037,1.3016,1.303,1.3105,1.32,1.304,1.2181,1.097,1.018,0.9265,0.8666,0.7417,0.6038,0.5136,0.4523,0.3745,0.2247,0.1929,0.1259,0.0,0.0,0.0,0.0,0.0,0.0,0.0,0.1455,0.2985,0.4324,0.5772,0.74,0.8925,0.9708,0.998,2.6734,2.6747,2.6466,2.6225,2.5971,2.5611,2.5304,2.5064,2.5037,2.4877,2.4639,2.4599,2.4613,2.4599,2.4613,2.4626,2.4626,2.4599,2.4613,2.4626,2.4599,2.4599,2.4626,2.4613,2.4599,2.4613,2.4576,2.3809,2.2558,2.2398,2.1653,2.0193,1.8421,1.7512,1.7132,1.5714,1.4958,1.4982,1.5081,1.4984,1.4642,1.4241,1.3979,1.3794,1.3334,1.2918,1.2568,1.2561,1.2452,1.234,1.2393,1.2635,1.2928,1.3077,1.318,1.3342,1.3478,1.3512,1.337,1.3227,1.3146,1.2996,1.2989,1.2975,1.2948,1.2948,1.2962,1.3003,1.2989,1.3186,1.3539,1.3545,1.3578,1.368,1.3707,1.3741,1.3714,1.3619,1.3526,1.339,1.3275,1.3152,1.3091,1.3139,1.3207,1.304,1.2038,1.0929,1.0008,0.8044,0.6289,0.5924,0.5228,0.4272,0.2931,0.1705,0.1535,0.104,0.0559,0.0278,0.0,0.0,0.0,0.0,0.0,0.0,0.0,0.1276,0.2404,0.3126,0.4456,0.5952,0.7439,0.9007,0.9874,2.6974,2.6814,2.6694,2.6373,2.6011,2.5864,2.5611,2.5344,2.5331,2.5264,2.5133,2.5119,2.5064,2.4917,2.5077,2.5119,2.5119,2.5119,2.5119,2.5157,2.5119,2.5157,2.5119,2.5119,2.5119,2.498,2.4032,2.3154,2.239,2.1357,1.9962,1.8499,1.7664,1.695,1.5995,1.5344,1.5006,1.5006,1.5006,1.4933,1.4697,1.4175,1.3839,1.3702,1.3125,1.2699,1.2561,1.2637,1.2642,1.2556,1.2691,1.2907,1.3111,1.318,1.3241,1.3397,1.3546,1.3682,1.3833,1.3654,1.3464,1.3241,1.3261,1.3193,1.3016,1.3003,1.3037,1.3125,1.3207,1.3308,1.3485,1.3648,1.3707,1.3693,1.3747,1.3802,1.3795,1.3747,1.368,1.3619,1.3607,1.3505,1.3383,1.3322,1.2882,1.2098,1.1059,1.018,0.8086,0.6247,0.5119,0.4073,0.3641,0.316,0.2184,0.1766,0.1308,0.0851,0.0566,0.0362,0.0,0.0,0.0,0.0,0.0,0.0,0.0,0.0,0.1243,0.24,0.49,0.6967,0.8647,0.9565,1.0039,2.7268,2.7027,2.6974,2.6653,2.6238,2.6238,2.6011,2.5651,2.5638,2.5598,2.5518,2.5598,2.5518,2.5396,2.5464,2.5518,2.5518,2.5518,2.5518,2.5518,2.5518,2.5518,2.5518,2.5518,2.5237,2.4623,2.3438,2.2262,2.1265,1.9472,1.7931,1.6917,1.6802,1.6253,1.5269,1.5114,1.5114,1.5161,1.5114,1.5114,1.5037,1.4423,1.3934,1.3741,1.3113,1.2699,1.263,1.2739,1.2793,1.2793,1.2975,1.3105,1.3207,1.3247,1.3403,1.362,1.3709,1.3858,1.4116,1.3994,1.3797,1.3553,1.3492,1.339,1.3241,1.3207,1.3207,1.3349,1.3498,1.358,1.3553,1.3749,1.3865,1.3824,1.3869,1.3923,1.393,1.3896,1.3842,1.3808,1.3761,1.3747,1.3605,1.3484,1.2993,1.1902,1.1059,1.0055,0.7459,0.6585,0.5664,0.4369,0.4241,0.3645,0.2579,0.2615,0.223,0.1477,0.1225,0.1223,0.0407,0.0,0.0,0.0,0.0,0.0,0.0,0.0,0.1744,0.3332,0.5566,0.7827,0.876,0.9689,1.0163,2.7669,2.7615,2.7362,2.7054,2.6787,2.6774,2.6466,2.6038,2.5998,2.5798,2.5638,2.5864,2.5971,2.5917,2.5678,2.5531,2.5531,2.5558,2.5571,2.5571,2.5571,2.5531,2.5518,2.548,2.4636,2.3181,2.2633,2.1002,1.8106,1.635,1.5384,1.5345,1.5462,1.5427,1.5439,1.5455,1.548,1.5455,1.5447,1.5432,1.5392,1.5035,1.452,1.3988,1.3512,1.3142,1.2988,1.2982,1.2989,1.2989,1.3139,1.318,1.3248,1.3451,1.3783,1.4156,1.4109,1.4116,1.4245,1.4187,1.3987,1.3831,1.3702,1.3668,1.3666,1.362,1.3572,1.3741,1.3892,1.3939,1.3802,1.3953,1.4109,1.4211,1.4251,1.4251,1.4272,1.4136,1.4,1.3899,1.3829,1.3774,1.3675,1.3627,1.3392,1.2756,1.1694,1.0398,0.9736,0.8599,0.7672,0.7467,0.717,0.6543,0.3694,0.3517,0.3499,0.2819,0.2558,0.2634,0.1348,0.0,0.1351,0.2013,0.2458,0.3287,0.4563,0.5044,0.4814,0.5544,0.6462,0.8014,0.8988,0.9693,1.0171,2.7869,2.7669,2.7388,2.7201,2.7108,2.7108,2.7028,2.6827,2.6587,2.6453,2.6346,2.6266,2.6265,2.6226,2.6132,2.6079,2.6079,2.6066,2.6066,2.6092,2.6266,2.574,2.4656,2.4656,2.3728,2.2041,2.065,1.873,1.652,1.5652,1.5375,1.5375,1.5415,1.5416,1.5504,1.5512,1.5512,1.552,1.5512,1.5353,1.5098,1.4915,1.4576,1.4039,1.3691,1.3333,1.2996,1.3091,1.3139,1.3139,1.3329,1.3464,1.3478,1.3612,1.3876,1.4238,1.4156,1.4177,1.4373,1.4299,1.415,1.4007,1.3946,1.3878,1.3802,1.3754,1.3741,1.3822,1.3987,1.4027,1.4034,1.4129,1.4238,1.4285,1.4299,1.434,1.4387,1.4312,1.4197,1.4136,1.4055,1.396,1.3899,1.3781,1.3275,1.2149,1.1306,1.0504,0.9389,0.8424,0.8227,0.8052,0.7968,0.7588,0.6585,0.5329,0.4816,0.4266,0.3922,0.3795,0.2946,0.3516,0.4362,0.4369,0.4638,0.4925,0.6016,0.6107,0.6236,0.7085,0.8011,0.8599,0.9325,1.0043,1.0405,2.8072,2.7871,2.767,2.7536,2.7456,2.7443,2.7389,2.7296,2.7054,2.6961,2.6921,2.676,2.6627,2.6533,2.6533,2.6533,2.6533,2.6533,2.6533,2.656,2.6827,2.5976,2.4486,2.4282,2.3054,2.0766,1.8702,1.6956,1.5778,1.5601,1.5601,1.5601,1.565,1.5683,1.5764,1.5829,1.5861,1.5861,1.5861,1.5699,1.5405,1.5243,1.4893,1.4443,1.4043,1.3691,1.3288,1.3336,1.339,1.3417,1.3545,1.368,1.3777,1.3862,1.4079,1.438,1.4299,1.4319,1.4516,1.4407,1.4258,1.4156,1.4139,1.4034,1.3987,1.3944,1.3964,1.4031,1.4197,1.4285,1.4173,1.3802,1.3681,1.4155,1.434,1.4401,1.4482,1.438,1.4278,1.4204,1.4116,1.4075,1.4105,1.3973,1.3376,1.2165,1.1899,1.1252,1.0344,0.9959,0.9847,0.9827,1.0114,1.0194,0.9609,0.8766,0.6997,0.6224,0.6173,0.5759,0.5261,0.6134,0.6721,0.6689,0.6727,0.6839,0.6944,0.7036,0.7639,0.8532,0.9058,0.9573,1.006,1.0445,1.0631,2.8192,2.8165,2.8179,2.7991,2.7722,2.7709,2.7549,2.7389,2.7322,2.7309,2.7255,2.7269,2.7041,2.6827,2.6827,2.6827,2.6827,2.6814,2.6854,2.6854,2.7134,2.63,2.4589,2.4299,2.2369,1.9179,1.7296,1.6245,1.5878,1.5837,1.5829,1.5837,1.5975,1.6072,1.6292,1.6397,1.6519,1.6495,1.647,1.6503,1.6525,1.6021,1.5563,1.5155,1.4699,1.4266,1.3817,1.381,1.3741,1.3754,1.3781,1.3912,1.4068,1.4204,1.4421,1.4599,1.4584,1.459,1.4672,1.4437,1.4346,1.4292,1.4183,1.419,1.4285,1.4299,1.4346,1.4455,1.4539,1.4654,1.4361,1.3035,1.251,1.3846,1.3918,1.3797,1.4201,1.4356,1.4258,1.417,1.4136,1.4089,1.4082,1.4082,1.3861,1.3624,1.3479,1.3366,1.3017,1.2851,1.3366,1.3307,1.2743,1.2289,1.2344,1.2131,1.0038,0.8416,0.8568,0.8395,0.7278,0.7489,0.8159,0.829,0.8328,0.8436,0.8929,0.9063,0.9447,1.0143,1.0398,1.0382,1.063,1.0832,1.073,2.8567,2.8232,2.8419,2.8283,2.8058,2.8045,2.7991,2.7884,2.7697,2.7562,2.7535,2.7389,2.7255,2.7148,2.7175,2.7175,2.7188,2.7308,2.7321,2.7174,2.7428,2.6584,2.4866,2.3557,2.1084,1.7892,1.6816,1.648,1.6382,1.6358,1.6332,1.6391,1.6381,1.6438,1.6495,1.6594,1.6584,1.6584,1.6584,1.6448,1.615,1.598,1.5736,1.5412,1.4952,1.4649,1.461,1.4082,1.3802,1.3815,1.3946,1.4109,1.4326,1.4421,1.459,1.4841,1.4708,1.4633,1.4674,1.4613,1.4543,1.4482,1.4489,1.455,1.4545,1.4552,1.4572,1.462,1.4667,1.4694,1.4368,1.2895,1.2117,1.2586,1.1399,1.1308,1.2552,1.3672,1.4455,1.4529,1.4441,1.438,1.4309,1.4261,1.4085,1.415,1.4068,1.4007,1.3994,1.3889,1.3795,1.3747,1.3788,1.3815,1.3409,1.3152,1.2081,1.0587,1.0503,1.0233,0.9224,0.8866,0.954,0.9728,0.9753,0.9923,1.0498,1.0737,1.082,1.0904,1.0757,1.084,1.1106,1.1112,1.0987,2.8818,2.8497,2.8564,2.8497,2.8339,2.8245,2.8192,2.8165,2.7991,2.7856,2.7857,2.7724,2.7563,2.7483,2.7469,2.7428,2.7483,2.7629,2.7324,2.6898,2.7583,2.6545,2.4075,2.152,1.9323,1.7177,1.6682,1.6641,1.6584,1.6584,1.6576,1.6584,1.6649,1.6682,1.669,1.6747,1.6803,1.686,1.682,1.6596,1.6238,1.594,1.566,1.5315,1.4856,1.4687,1.472,1.4281,1.4045,1.4072,1.4238,1.4414,1.4539,1.4652,1.4774,1.4896,1.4889,1.4828,1.4821,1.4721,1.466,1.4593,1.464,1.4687,1.4701,1.4728,1.4828,1.4821,1.4882,1.4903,1.4626,1.309,1.1728,1.0853,0.9739,0.9439,1.0738,1.1767,1.234,1.2238,1.2215,1.2662,1.3142,1.338,1.3707,1.4069,1.4299,1.4238,1.4204,1.4109,1.4027,1.398,1.4014,1.4007,1.3946,1.383,1.3814,1.2964,1.2245,1.1632,1.0773,1.0726,1.1126,1.0667,1.053,1.0388,1.0829,1.0717,1.0737,1.0862,1.1009,1.1029,1.1112,1.132,1.1278,2.9028,2.8961,2.8764,2.8657,2.8551,2.8353,2.8219,2.8179,2.8165,2.8152,2.8152,2.8112,2.7991,2.7762,2.7722,2.7722,2.7722,2.7749,2.6936,2.6348,2.6762,2.5902,2.2374,1.9532,1.7818,1.6971,1.6825,1.6787,1.6674,1.6665,1.6609,1.6665,1.6803,1.6833,1.6874,1.6995,1.7153,1.7266,1.7117,1.6844,1.6565,1.6022,1.5565,1.5138,1.4704,1.4459,1.4551,1.45,1.4516,1.4536,1.4572,1.4647,1.4728,1.4896,1.4996,1.5018,1.4997,1.503,1.4957,1.4882,1.4741,1.4721,1.4787,1.4714,1.4775,1.4916,1.4984,1.503,1.5079,1.5147,1.4819,1.3345,1.1464,0.9531,0.8759,0.8629,0.8715,0.8995,0.9571,0.9317,0.8906,0.9377,1.1264,1.1635,1.2658,1.3655,1.424,1.4496,1.4468,1.4367,1.4251,1.4217,1.4204,1.415,1.4095,1.4109,1.4049,1.3834,1.3196,1.265,1.1975,1.1917,1.1853,1.1475,1.1148,1.1002,1.0905,1.0846,1.0902,1.1051,1.1118,1.1056,1.1165,1.139,1.1367,2.9388,2.9028,2.9192,2.9005,2.8631,2.8511,2.8393,2.8205,2.8192,2.8205,2.8192,2.8192,2.8152,2.8072,2.8058,2.8072,2.8045,2.8058,2.7103,2.5671,2.5853,2.4038,2.1208,1.9709,1.8348,1.7222,1.7055,1.7015,1.6974,1.6958,1.6966,1.6974,1.7015,1.7112,1.7226,1.7161,1.7218,1.7295,1.6848,1.6601,1.6435,1.6022,1.5727,1.566,1.5177,1.501,1.5077,1.4956,1.4787,1.4647,1.4667,1.4794,1.4903,1.5003,1.5059,1.5208,1.5174,1.5173,1.5113,1.5079,1.5018,1.4936,1.4991,1.5065,1.5065,1.5099,1.5126,1.518,1.5214,1.5181,1.4899,1.3381,1.1348,0.9358,0.8109,0.7197,0.7336,0.8142,0.903,0.9001,0.8894,0.9216,0.9921,1.0952,1.198,1.2768,1.3763,1.4633,1.4652,1.4512,1.4414,1.438,1.436,1.4292,1.4258,1.4272,1.4272,1.4251,1.3846,1.3449,1.2698,1.2202,1.1995,1.1672,1.1446,1.1315,1.11,1.0965,1.1135,1.1204,1.1067,1.0953,1.1274,1.1496,1.1271,2.9668,2.9362,2.9459,2.9285,2.8965,2.8845,2.8617,2.8377,2.8379,2.8299,2.8232,2.8339,2.8312,2.8205,2.8312,2.8299,2.8205,2.8192,2.6673,2.4123,2.2536,2.1078,1.9849,1.9294,1.8276,1.7411,1.7299,1.7287,1.7315,1.7266,1.7266,1.7307,1.7258,1.7323,1.7461,1.7331,1.7356,1.7473,1.7104,1.675,1.6444,1.6077,1.5637,1.5499,1.5108,1.5042,1.5149,1.5061,1.495,1.4923,1.493,1.497,1.5045,1.5059,1.514,1.5309,1.5228,1.5181,1.5181,1.5181,1.5147,1.5139,1.5147,1.5174,1.5174,1.5181,1.5181,1.5181,1.5181,1.5181,1.4905,1.3423,1.1884,1.0611,0.8651,0.7497,0.7375,0.8455,0.9027,0.9062,0.9077,0.9351,0.9979,1.1202,1.2153,1.3088,1.4185,1.4651,1.4821,1.4692,1.4584,1.4536,1.4502,1.4455,1.4373,1.4367,1.4319,1.4306,1.4102,1.376,1.3324,1.2603,1.2272,1.199,1.1769,1.1556,1.135,1.1133,1.1133,1.112,1.0931,1.1036,1.1382,1.1469,1.1238,2.9913,2.99,2.9633,2.9513,2.9419,2.9148,2.8925,2.8684,2.8657,2.8511,2.8419,2.8537,2.8524,2.8299,2.8484,2.8372,2.7918,2.7692,2.5458,2.2427,1.9684,1.8208,1.9268,1.8257,1.7659,1.738,1.7559,1.7554,1.7514,1.7461,1.7494,1.7489,1.7461,1.7518,1.7607,1.7502,1.7607,1.7716,1.7296,1.6814,1.6416,1.6015,1.5486,1.5034,1.4945,1.4954,1.5049,1.5057,1.5045,1.5174,1.5181,1.516,1.5221,1.5174,1.5181,1.5194,1.5194,1.5181,1.5187,1.5208,1.5215,1.5215,1.5208,1.5201,1.5215,1.5208,1.5181,1.5181,1.5194,1.5235,1.5093,1.3686,1.3041,1.2468,1.0979,1.0085,0.9668,0.9358,0.9074,0.9078,0.9078,0.9989,1.1043,1.2091,1.2757,1.3058,1.4207,1.4892,1.4977,1.4855,1.474,1.4652,1.4631,1.4566,1.4484,1.4403,1.438,1.4333,1.4084,1.3837,1.3704,1.3142,1.2674,1.2384,1.2434,1.2129,1.1587,1.145,1.1329,1.1155,1.1095,1.1272,1.1535,1.1385,1.1179,2.9913,2.9913,2.9847,2.9686,2.9499,2.9406,2.9219,2.8908,2.8895,2.8898,2.8871,2.8881,2.8898,2.8775,2.8625,2.7883,2.6723,2.6142,2.4217,2.0671,1.8295,1.743,1.7911,1.753,1.7441,1.7453,1.7522,1.7603,1.7587,1.7587,1.7562,1.7595,1.7603,1.7635,1.7765,1.7689,1.7689,1.7706,1.7023,1.656,1.6225,1.5631,1.5181,1.4955,1.5018,1.5086,1.512,1.518,1.5153,1.5221,1.5187,1.5201,1.5201,1.5201,1.5215,1.5215,1.5194,1.5234,1.5201,1.5289,1.5357,1.535,1.5343,1.5364,1.535,1.5242,1.5194,1.5208,1.5289,1.5391,1.541,1.5175,1.4716,1.4383,1.4161,1.3843,1.34,1.107,0.9707,0.9427,0.9521,0.9503,1.0106,1.1995,1.2772,1.3228,1.4087,1.506,1.5147,1.5018,1.4909,1.4808,1.4787,1.4721,1.4593,1.4512,1.4496,1.4421,1.4202,1.4029,1.3896,1.3723,1.3274,1.3186,1.3299,1.2782,1.2035,1.1813,1.1728,1.1493,1.1259,1.1324,1.1366,1.1261,1.1254,3.0007,3.0114,2.9935,2.9833,2.97,2.9686,2.9513,2.9285,2.9245,2.9121,2.9055,2.9179,2.9165,2.9001,2.8931,2.7985,2.5926,2.3975,2.2223,2.0042,1.8279,1.7465,1.7502,1.7591,1.764,1.7656,1.7811,1.7884,1.7875,1.7773,1.7819,1.7875,1.7765,1.7867,1.7989,1.7822,1.7932,1.8032,1.7448,1.6873,1.6509,1.6002,1.5341,1.5152,1.514,1.5181,1.5174,1.5181,1.5221,1.5269,1.5289,1.5289,1.5309,1.5357,1.5391,1.5391,1.5316,1.5296,1.5323,1.5357,1.5404,1.5418,1.5411,1.5411,1.5377,1.5269,1.5235,1.5282,1.5377,1.5493,1.5703,1.5737,1.5683,1.5662,1.5683,1.5635,1.5069,1.3376,1.2101,1.209,1.2436,1.2438,1.2878,1.3285,1.3704,1.4527,1.4569,1.5452,1.5337,1.5215,1.5086,1.4997,1.4977,1.4909,1.4714,1.4626,1.4572,1.4512,1.4406,1.4321,1.4249,1.4055,1.3856,1.3717,1.354,1.3141,1.2523,1.2349,1.21,1.1874,1.1676,1.1428,1.1292,1.1291,1.1269,3.01,3.0319,3.002,2.9913,2.9913,2.99,2.9766,2.9566,2.9553,2.9432,2.9215,2.9446,2.9432,2.9272,2.9352,2.8085,2.5241,2.1979,1.987,1.9509,1.8276,1.7669,1.7651,1.7802,1.7892,1.7965,1.8062,1.8127,1.8103,1.8046,1.8005,1.8111,1.803,1.8022,1.8103,1.8095,1.8135,1.8322,1.7835,1.7359,1.6932,1.655,1.5875,1.5465,1.5282,1.5269,1.5262,1.5276,1.5309,1.5404,1.5452,1.5472,1.5506,1.5506,1.5587,1.5573,1.5451,1.5452,1.5459,1.5479,1.5506,1.5479,1.5486,1.5493,1.5466,1.5391,1.5364,1.5418,1.5513,1.5622,1.5894,1.5935,1.5922,1.5901,1.5908,1.5811,1.5696,1.5614,1.5193,1.5061,1.4549,1.4382,1.4754,1.5146,1.546,1.5676,1.5669,1.5628,1.5513,1.5391,1.5248,1.5147,1.512,1.5018,1.4869,1.4769,1.476,1.4633,1.4572,1.4539,1.4505,1.4381,1.418,1.3832,1.354,1.3242,1.3065,1.2845,1.2617,1.232,1.2036,1.1764,1.1538,1.1357,1.1313,3.0167,2.9993,2.994,2.9913,2.9913,2.9913,2.9887,2.986,2.982,2.982,2.9766,2.9806,2.9793,2.97,2.9526,2.7503,2.4094,2.058,1.8546,1.8521,1.7853,1.7737,1.7867,1.7924,1.8005,1.8103,1.8168,1.8176,1.8176,1.8144,1.8127,1.816,1.8135,1.8152,1.8217,1.8282,1.8355,1.8366,1.7828,1.7328,1.6891,1.6259,1.5801,1.5513,1.5458,1.5466,1.5418,1.5486,1.5472,1.5445,1.5649,1.5799,1.5799,1.5703,1.5627,1.5614,1.5587,1.5601,1.556,1.5703,1.5806,1.5826,1.5799,1.5806,1.573,1.5635,1.5506,1.5608,1.571,1.5894,1.6064,1.6071,1.6017,1.5976,1.5983,1.5934,1.5729,1.5811,1.5866,1.5689,1.575,1.5818,1.5839,1.5859,1.5859,1.5839,1.5825,1.575,1.5635,1.5513,1.5384,1.5303,1.5242,1.5113,1.497,1.4943,1.4903,1.4762,1.4701,1.4681,1.4654,1.4654,1.4443,1.4162,1.3973,1.3864,1.3629,1.3394,1.3103,1.2831,1.2464,1.2048,1.1831,1.1621,1.1423,3.014,3.0127,2.998,2.9913,2.9913,2.9913,2.9913,2.9913,2.9913,2.9913,2.9913,2.9913,2.9833,2.9726,2.974,2.7516,2.3654,1.983,1.8185,1.8022,1.7965,1.7949,1.8038,1.8046,1.8095,1.816,1.8176,1.8176,1.8176,1.8176,1.8176,1.8176,1.8176,1.8217,1.8361,1.8442,1.8415,1.824,1.7814,1.7292,1.6787,1.6001,1.5635,1.5593,1.5593,1.5553,1.5519,1.5533,1.5642,1.5662,1.582,1.5928,1.5969,1.5913,1.5866,1.5845,1.5791,1.575,1.575,1.5874,1.5888,1.5894,1.5908,1.5901,1.5867,1.573,1.5641,1.5764,1.5879,1.6044,1.6069,1.6133,1.6042,1.6008,1.6035,1.6001,1.594,1.6015,1.5954,1.5859,1.592,1.5961,1.5974,1.6001,1.6022,1.6008,1.6024,1.5879,1.5764,1.5622,1.5438,1.535,1.5269,1.5181,1.5065,1.5052,1.5031,1.495,1.4843,1.4869,1.4789,1.4775,1.4694,1.452,1.4395,1.4381,1.4122,1.3854,1.3579,1.3306,1.2754,1.2299,1.2077,1.1899,1.1677,3.0114,3.0247,3.002,2.9913,2.9913,2.9913,2.9913,2.9913,2.9913,2.9913,2.99,2.9847,2.9726,2.9539,2.8962,2.725,2.3779,2.0279,1.885,1.816,1.8144,1.8214,1.8168,1.8176,1.8168,1.8168,1.8176,1.8176,1.8176,1.8176,1.8176,1.8176,1.8176,1.8265,1.8459,1.835,1.828,1.8165,1.7838,1.7254,1.6573,1.6008,1.5703,1.5723,1.5675,1.573,1.5689,1.5695,1.5778,1.5867,1.5935,1.601,1.6105,1.6126,1.6133,1.6112,1.601,1.5962,1.5949,1.5956,1.5976,1.5976,1.5956,1.5956,1.5942,1.5845,1.5798,1.59,1.5988,1.6112,1.6126,1.6133,1.6076,1.6126,1.6119,1.6126,1.6105,1.6119,1.6112,1.6085,1.6133,1.6119,1.6098,1.6098,1.6105,1.6105,1.6071,1.6058,1.5886,1.5648,1.5499,1.5371,1.5262,1.5208,1.5153,1.5147,1.5126,1.5092,1.5038,1.5011,1.497,1.4936,1.4855,1.4808,1.4782,1.4709,1.4497,1.4318,1.4092,1.3681,1.2987,1.2589,1.2443,1.2127,1.1766,3.0181,2.9967,2.9927,2.9913,2.9913,2.9913,2.9913,2.9913,2.9913,2.9913,2.99,2.9686,2.9686,2.9494,2.8013,2.6139,2.3871,2.1694,1.9637,1.8442,1.8225,1.8241,1.82,1.8176,1.8255,1.8247,1.8192,1.8176,1.8176,1.8176,1.8176,1.8176,1.8208,1.832,1.8485,1.824,1.8061,1.8054,1.744,1.6757,1.6263,1.5949,1.5956,1.5967,1.5995,1.594,1.5859,1.5913,1.5961,1.5928,1.6037,1.6056,1.6133,1.6133,1.6133,1.6076,1.6062,1.6105,1.6042,1.6078,1.6078,1.6071,1.6085,1.6098,1.6022,1.6008,1.5995,1.6042,1.6076,1.6083,1.6133,1.6133,1.6133,1.6133,1.6133,1.6133,1.6133,1.6133,1.6133,1.6133,1.6133,1.6133,1.6119,1.6126,1.6126,1.6133,1.6126,1.6112,1.6044,1.5805,1.5526,1.5391,1.5296,1.5248,1.5181,1.5181,1.5181,1.5181,1.5153,1.5166,1.5086,1.5052,1.5099,1.5072,1.5079,1.5011,1.4756,1.4589,1.4502,1.4158,1.3604,1.3203,1.2894,1.2488,1.1944,3.0034,2.9913,2.9913,2.9913,2.9913,2.9913,2.9913,2.9913,2.9913,2.9913,2.99,2.9793,2.9806,2.9457,2.7701,2.5739,2.3916,2.2152,2.0227,1.8723,1.8395,1.846,1.8468,1.8387,1.8377,1.8345,1.828,1.8176,1.8176,1.8184,1.8176,1.82,1.8337,1.8475,1.8503,1.8255,1.8038,1.7686,1.7034,1.6374,1.6162,1.6078,1.6064,1.6076,1.6126,1.6085,1.6064,1.6029,1.6056,1.5995,1.6062,1.6126,1.6133,1.6133,1.6133,1.6133,1.6126,1.6126,1.6126,1.6133,1.6133,1.6133,1.6133,1.6126,1.6133,1.6133,1.6133,1.6126,1.6126,1.6133,1.6133,1.6133,1.6133,1.6133,1.6133,1.6133,1.6133,1.6133,1.6133,1.6133,1.6133,1.6133,1.6133,1.6133,1.6133,1.6133,1.6126,1.6112,1.6064,1.5949,1.5649,1.5391,1.533,1.5303,1.5221,1.5181,1.5187,1.5187,1.5181,1.516,1.5167,1.5167,1.5187,1.5187,1.5147,1.5072,1.4977,1.4856,1.4769,1.4498,1.423,1.3636,1.3105,1.2711,1.2181,2.9913,2.9913,2.9913,2.9913,2.9913,2.9913,2.9913,2.9913,2.9913,2.9913,2.9913,2.99,2.9873,2.9538,2.8086,2.6383,2.3962,2.2629,2.06,1.9231,1.8509,1.8574,1.8525,1.8508,1.8434,1.8499,1.8377,1.8288,1.8217,1.8265,1.833,1.8304,1.8483,1.8511,1.844,1.813,1.7724,1.714,1.6516,1.6182,1.6126,1.6126,1.6119,1.6133,1.6133,1.6133,1.6133,1.6083,1.6076,1.6076,1.6076,1.6133,1.6133,1.6133,1.6133,1.6133,1.6133,1.6133,1.6133,1.6133,1.6133,1.6133,1.6133,1.6133,1.6133,1.6133,1.6133,1.6133,1.6133,1.6133,1.6133,1.6133,1.6133,1.6133,1.6133,1.6133,1.6133,1.6133,1.6133,1.6133,1.6133,1.6133,1.6133,1.6133,1.6133,1.6133,1.6126,1.6062,1.6051,1.5976,1.575,1.5499,1.5466,1.5418,1.5309,1.5248,1.5228,1.5194,1.5194,1.5181,1.5181,1.5194,1.5208,1.5208,1.5208,1.5201,1.516,1.5072,1.4931,1.4599,1.4179,1.3718,1.322,1.2762,1.2335,2.9913,2.9913,2.9913,2.9913,2.9913,2.9913,2.9913,2.9913,2.9913,2.9913,2.9913,2.99,2.9735,2.9379,2.8815,2.7021,2.3871,2.3835,2.1336,1.9214,1.8233,1.8467,1.8499,1.842,1.833,1.8475,1.8442,1.8361,1.8298,1.8398,1.8461,1.8532,1.8487,1.8464,1.8186,1.7776,1.713,1.6602,1.6182,1.6133,1.6133,1.6133,1.6133,1.6133,1.6133,1.6133,1.6133,1.6133,1.6133,1.6133,1.6133,1.6133,1.6133,1.6133,1.6133,1.6133,1.6133,1.6133,1.6133,1.6133,1.6133,1.6133,1.6133,1.6133,1.6133,1.6133,1.6133,1.6133,1.6133,1.6133,1.6133,1.6133,1.6133,1.6133,1.6133,1.6133,1.6133,1.6133,1.6133,1.6133,1.6133,1.6133,1.6133,1.6133,1.6133,1.6133,1.6076,1.6069,1.5995,1.5969,1.5818,1.5676,1.5587,1.5554,1.5425,1.5357,1.5296,1.5248,1.5221,1.5201,1.5187,1.5208,1.5316,1.5282,1.5303,1.5323,1.5269,1.5046,1.4792,1.4533,1.4164,1.3747,1.3053,1.2392,1.2056,2.9913,2.9913,2.9913,2.9913,2.9913,2.9913,2.9913,2.9913,2.9913,2.9913,2.9913,2.9855,2.9162,2.8335,2.7808,2.5969,2.2606,2.2331,2.0592,1.9325,1.8589,1.8631,1.8631,1.8525,1.8509,1.8516,1.8499,1.8483,1.8395,1.84,1.8319,1.8311,1.8366,1.8316,1.8013,1.7417,1.6757,1.6297,1.6133,1.6133,1.6133,1.6133,1.6133,1.6133,1.6133,1.6133,1.6133,1.6133,1.6133,1.6133,1.6133,1.6133,1.6133,1.6133,1.6133,1.6133,1.6133,1.6133,1.6133,1.6133,1.6133,1.6133,1.6133,1.6133,1.6133,1.6133,1.6133,1.6133,1.6133,1.6133,1.6133,1.6133,1.6133,1.6133,1.6133,1.6133,1.6133,1.6133,1.6133,1.6133,1.6133,1.6133,1.6133,1.6133,1.6133,1.6133,1.6076,1.6062,1.6001,1.5961,1.5886,1.5825,1.5784,1.5587,1.5493,1.5418,1.5357,1.5303,1.5262,1.5262,1.5282,1.5432,1.5458,1.5452,1.5377,1.5371,1.5242,1.4925,1.4651,1.4385,1.4168,1.39,1.3064,1.2152,1.1912,2.9913,2.9913,2.9913,2.9913,2.9913,2.9913,2.9913,2.9913,2.9913,2.9913,2.9913,2.9824,2.8809,2.7431,2.6933,2.4865,2.2156,2.1197,2.0058,1.912,1.8573,1.8688,1.8647,1.8566,1.8444,1.8499,1.8565,1.8573,1.8444,1.8255,1.8204,1.8136,1.7961,1.7788,1.7572,1.7104,1.6474,1.6182,1.6133,1.6133,1.6133,1.6133,1.6133,1.6133,1.6133,1.6133,1.6133,1.6133,1.6133,1.6133,1.6133,1.6133,1.6133,1.6133,1.6133,1.6133,1.6133,1.6133,1.6133,1.6133,1.6133,1.6133,1.6133,1.6133,1.6133,1.6133,1.6133,1.6133,1.6133,1.6133,1.6133,1.6133,1.6133,1.6133,1.6133,1.6133,1.6133,1.6133,1.6133,1.6133,1.6133,1.6133,1.6133,1.6133,1.6133,1.6133,1.6126,1.6076,1.6112,1.6078,1.6058,1.601,1.5976,1.5744,1.5547,1.5513,1.5466,1.5364,1.5337,1.5377,1.5432,1.5533,1.558,1.5499,1.5479,1.5432,1.5214,1.4891,1.4562,1.4187,1.3812,1.3248,1.3109,1.2292,1.2039,2.9913,2.9913,2.9913,2.9913,2.9913,2.9913,2.9913,2.9913,2.9913,2.9913,2.9913,2.9869,2.8674,2.7114,2.6513,2.418,2.1342,2.0733,1.9916,1.8632,1.8402,1.8418,1.8418,1.841,1.8426,1.8476,1.8574,1.859,1.8437,1.8252,1.8213,1.7852,1.7363,1.6977,1.6906,1.6417,1.6133,1.6133,1.6133,1.6133,1.6133,1.6133,1.6133,1.6133,1.6133,1.6133,1.6133,1.6133,1.6133,1.6133,1.6133,1.6133,1.6133,1.6133,1.6133,1.6133,1.6133,1.6133,1.6133,1.6133,1.6133,1.6133,1.6133,1.6133,1.6133,1.6133,1.6133,1.6133,1.6133,1.6133,1.6133,1.6133,1.6133,1.6133,1.6133,1.6133,1.6133,1.6133,1.6133,1.6133,1.6133,1.6133,1.6133,1.6133,1.6133,1.6133,1.6133,1.6133,1.6133,1.6126,1.6105,1.6092,1.6051,1.5832,1.5655,1.558,1.5526,1.5466,1.5404,1.5418,1.5499,1.5622,1.5593,1.556,1.5506,1.539,1.5099,1.4809,1.4191,1.3481,1.2835,1.2399,1.2421,1.2479,1.2165,2.9913,2.9913,2.9913,2.9913,2.9913,2.9913,2.9913,2.9913,2.9913,2.9913,2.9913,2.9913,2.794,2.5923,2.4774,2.3035,1.9834,1.9184,1.8456,1.8324,1.832,1.8337,1.8345,1.8361,1.8314,1.8363,1.8525,1.8464,1.8065,1.8005,1.7644,1.7237,1.6828,1.6417,1.6325,1.6133,1.6133,1.6133,1.6133,1.6133,1.6133,1.6133,1.6133,1.6133,1.6133,1.6133,1.6133,1.6133,1.6133,1.6133,1.6133,1.6133,1.6133,1.6133,1.6133,1.6133,1.6133,1.6133,1.6133,1.6133,1.6133,1.6133,1.6133,1.6133,1.6133,1.6133,1.6133,1.6133,1.6133,1.6133,1.6133,1.6133,1.6133,1.6133,1.6133,1.6133,1.6133,1.6133,1.6133,1.6133,1.6133,1.6133,1.6133,1.6133,1.6133,1.6133,1.6133,1.6133,1.6133,1.6133,1.6119,1.6126,1.6078,1.5879,1.5757,1.56,1.5472,1.5371,1.5364,1.5411,1.552,1.5683,1.553,1.5407,1.5401,1.5334,1.4676,1.4039,1.3335,1.2663,1.2289,1.2053,1.2187,1.2278,1.2223,3.0007,2.9913,2.9913,2.9913,2.9913,2.9913,2.9913,2.9913,2.9913,2.9913,2.9913,2.9824,2.776,2.4967,2.3687,2.1896,1.8456,1.8223,1.8223,1.8192,1.8337,1.8312,1.8304,1.8337,1.8257,1.8298,1.8461,1.8472,1.7943,1.764,1.7208,1.6694,1.6282,1.6175,1.6133,1.6133,1.6133,1.6133,1.6133,1.6133,1.6133,1.6133,1.6133,1.6133,1.6133,1.6133,1.6133,1.6133,1.6133,1.6133,1.6133,1.6133,1.6133,1.6133,1.6133,1.6133,1.6133,1.6133,1.6133,1.6133,1.6133,1.6133,1.6133,1.6133,1.6133,1.6133,1.6133,1.6133,1.6133,1.6133,1.6133,1.6133,1.6133,1.6133,1.6133,1.6133,1.6133,1.6133,1.6133,1.6133,1.6133,1.6133,1.6133,1.6133,1.6133,1.6133,1.6133,1.6126,1.6126,1.6126,1.6126,1.6126,1.6064,1.5866,1.5716,1.5588,1.5445,1.5289,1.535,1.5466,1.5642,1.5811,1.5562,1.5252,1.5132,1.4799,1.3888,1.3175,1.285,1.255,1.2297,1.2112,1.2063,1.2102,1.2214,3.0226,2.994,2.9913,2.9913,2.9913,2.9913,2.9913,2.9913,2.9913,2.9913,2.9913,2.9913,2.7669,2.4602,2.4008,2.1803,1.882,1.8269,1.8176,1.8176,1.8217,1.8184,1.8184,1.8192,1.828,1.833,1.8375,1.8263,1.7893,1.7422,1.6843,1.6374,1.6182,1.6133,1.6133,1.6133,1.6133,1.6133,1.6133,1.6133,1.6133,1.6133,1.6133,1.6133,1.6133,1.6133,1.6133,1.6133,1.6133,1.6133,1.6133,1.6133,1.6133,1.6133,1.6133,1.6133,1.6133,1.6133,1.6133,1.6133,1.6133,1.6133,1.6133,1.6133,1.6133,1.6133,1.6133,1.6133,1.6133,1.6133,1.6133,1.6133,1.6133,1.6133,1.6133,1.6133,1.6133,1.6133,1.6133,1.6133,1.6133,1.6133,1.6133,1.6133,1.6133,1.6133,1.6119,1.6085,1.6042,1.6076,1.6076,1.6069,1.5981,1.5881,1.5696,1.5601,1.5493,1.5371,1.5486,1.5608,1.5791,1.5774,1.54,1.5078,1.4854,1.4354,1.3459,1.2962,1.2703,1.2408,1.2219,1.2209,1.2112,1.2176,1.2214,2.9993,2.9913,2.9913,2.9913,2.9913,2.9913,2.9913,2.9913,2.9913,2.9913,2.9913,2.9913,2.7669,2.4191,2.3962,2.1527,1.9509,1.8176,1.8176,1.8176,1.8176,1.8176,1.8176,1.8184,1.8296,1.8301,1.8192,1.7974,1.7442,1.7032,1.6566,1.6133,1.6133,1.6133,1.6133,1.6133,1.6133,1.6133,1.6133,1.6133,1.6133,1.6133,1.6133,1.6133,1.6133,1.6133,1.6133,1.6133,1.6133,1.6133,1.6133,1.6133,1.6133,1.6133,1.6133,1.6133,1.6133,1.6133,1.6133,1.6133,1.6133,1.6133,1.6133,1.6133,1.6133,1.6133,1.6133,1.6133,1.6133,1.6133,1.6133,1.6133,1.6133,1.6133,1.6133,1.6096,1.6096,1.609,1.609,1.6133,1.6133,1.6133,1.6133,1.6133,1.6133,1.6133,1.6112,1.6029,1.6001,1.6035,1.6035,1.6029,1.5961,1.5811,1.5764,1.5676,1.5567,1.5493,1.5588,1.5634,1.5756,1.5656,1.5162,1.4676,1.4169,1.3686,1.3063,1.2692,1.2456,1.2361,1.2219,1.2219,1.2219,1.2219,1.2219,3.002,2.9927,2.9913,2.9913,2.9913,2.9913,2.9913,2.9913,2.9913,2.9913,2.9913,2.9913,2.7715,2.4419,2.3779,2.1942,1.8409,1.8176,1.8176,1.8176,1.8176,1.8176,1.8176,1.8184,1.8225,1.819,1.7986,1.7618,1.7091,1.6489,1.6051,1.6133,1.6133,1.6133,1.6133,1.6133,1.6133,1.6133,1.6133,1.6133,1.6133,1.6133,1.6133,1.6133,1.6133,1.6133,1.6133,1.6133,1.6133,1.6133,1.6133,1.6133,1.6133,1.6133,1.6133,1.6133,1.6133,1.6133,1.6133,1.6133,1.6133,1.6133,1.6133,1.6133,1.6133,1.6133,1.6133,1.6133,1.6133,1.6133,1.6133,1.6133,1.6133,1.6133,1.6096,1.611,1.611,1.6103,1.6096,1.6133,1.6133,1.6133,1.6133,1.6133,1.6133,1.6133,1.6126,1.6056,1.6001,1.5967,1.601,1.5996,1.5893,1.5805,1.5771,1.5737,1.5628,1.556,1.5594,1.5648,1.572,1.543,1.4975,1.4128,1.3255,1.2906,1.2726,1.2461,1.2267,1.2219,1.2219,1.2219,1.2219,1.2219,1.2219,3.0154,2.9913,2.9913,2.9913,2.9913,2.9913,2.9913,2.9913,2.9913,2.9913,2.9913,2.9913,2.785,2.5058,2.4191,2.208,1.9509,1.8502,1.8176,1.8176,1.8176,1.8176,1.8176,1.8184,1.8186,1.8031,1.775,1.7207,1.6733,1.6265,1.6003,1.6112,1.6133,1.6133,1.6133,1.6133,1.6133,1.6133,1.6133,1.6133,1.6133,1.6133,1.6133,1.6133,1.6133,1.6133,1.6133,1.6133,1.6133,1.6133,1.6133,1.6133,1.6133,1.6133,1.6133,1.6133,1.6133,1.6133,1.6133,1.6133,1.6133,1.6133,1.6133,1.6133,1.6133,1.6133,1.6133,1.6133,1.6133,1.6133,1.6133,1.6133,1.6133,1.6133,1.6139,1.611,1.613,1.6117,1.609,1.6133,1.6133,1.6133,1.6133,1.6133,1.6133,1.6133,1.6126,1.6069,1.6001,1.5976,1.599,1.5969,1.5913,1.5879,1.5818,1.5771,1.5676,1.5635,1.5621,1.5757,1.5864,1.5398,1.4706,1.3786,1.2878,1.2659,1.248,1.2305,1.223,1.2219,1.2219,1.2219,1.2219,1.2219,1.2219,2.998,2.9927,2.9913,2.9913,2.9913,2.9913,2.9913,2.9913,2.9913,2.9913,2.9913,2.9734,2.8494,2.5969,2.4465,2.2356,2.0381,1.8634,1.8269,1.8176,1.8176,1.8176,1.8176,1.8137,1.8054,1.7742,1.7307,1.6733,1.6138,1.5925,1.5915,1.5976,1.6051,1.6133,1.6133,1.6133,1.6133,1.6133,1.6133,1.6133,1.6133,1.6133,1.6133,1.6133,1.6133,1.6133,1.6133,1.6133,1.6133,1.6133,1.6133,1.6133,1.6133,1.6133,1.6133,1.6133,1.6133,1.6133,1.6133,1.6133,1.6133,1.6133,1.6133,1.6133,1.6133,1.6133,1.6133,1.6133,1.6133,1.6133,1.6133,1.6133,1.6133,1.6133,1.6133,1.6167,1.6201,1.6173,1.6139,1.6133,1.6133,1.6133,1.6133,1.6133,1.6133,1.6133,1.6133,1.6098,1.6003,1.5942,1.603,1.6037,1.6022,1.5988,1.5956,1.5888,1.5771,1.5791,1.5845,1.5927,1.5952,1.514,1.4267,1.3398,1.2617,1.2502,1.2446,1.2269,1.2247,1.223,1.2219,1.2219,1.2219,1.2219,1.2219,2.9913,2.9913,2.9913,2.9913,2.9913,2.9913,2.9913,2.9913,2.9913,2.9913,2.9913,2.9689,2.8404,2.606,2.4419,2.231,2.0242,1.8773,1.8316,1.8176,1.8176,1.8176,1.8129,1.7989,1.7749,1.742,1.6783,1.6138,1.5636,1.5683,1.5771,1.5908,1.6037,1.6126,1.6126,1.6133,1.6133,1.6133,1.6133,1.6133,1.6133,1.6133,1.6133,1.6133,1.6133,1.6133,1.6133,1.6133,1.6133,1.6133,1.6133,1.6133,1.6133,1.6133,1.6133,1.6133,1.6133,1.6133,1.6133,1.6133,1.6133,1.6133,1.6133,1.6133,1.6133,1.6133,1.6133,1.6133,1.6133,1.6133,1.6133,1.6133,1.6133,1.6133,1.6133,1.6146,1.6151,1.6171,1.6123,1.6133,1.6133,1.6133,1.6133,1.6133,1.6112,1.6037,1.6051,1.6064,1.5976,1.5922,1.601,1.6064,1.6022,1.6049,1.6058,1.6003,1.5949,1.599,1.5988,1.5648,1.5314,1.4552,1.3761,1.3082,1.2645,1.2541,1.2443,1.2339,1.2258,1.223,1.2225,1.2219,1.2219,1.2219,1.2219,2.9913,2.9913,2.9913,2.9913,2.9913,2.9913,2.9913,2.9913,2.9913,2.9913,2.9913,2.9913,2.7579,2.5468,2.3871,2.1352,1.9509,1.8634,1.8269,1.8176,1.8176,1.8176,1.7989,1.7717,1.7406,1.6898,1.6249,1.5802,1.5384,1.5533,1.5683,1.5832,1.6003,1.6105,1.6126,1.6133,1.6133,1.6133,1.6133,1.6133,1.6133,1.6133,1.6133,1.6133,1.6133,1.6133,1.6133,1.6133,1.6133,1.6133,1.6133,1.6133,1.6133,1.6133,1.6133,1.6133,1.6133,1.6133,1.6133,1.6133,1.6133,1.6133,1.6133,1.6133,1.6133,1.6133,1.6133,1.6133,1.6133,1.6133,1.6133,1.6133,1.6133,1.6133,1.6133,1.6133,1.6137,1.6191,1.6137,1.6133,1.6133,1.6133,1.6133,1.6133,1.6085,1.5996,1.5969,1.5962,1.5962,1.5956,1.599,1.5996,1.599,1.603,1.6042,1.6022,1.6017,1.5797,1.5675,1.5172,1.4676,1.4129,1.3615,1.3012,1.2672,1.2574,1.2466,1.241,1.2334,1.2205,1.2225,1.2219,1.2219,1.2219,1.2219,2.9913,2.9913,2.9913,2.9913,2.9913,2.9913,2.9913,2.9913,2.9913,2.9913,2.9913,2.9734,2.8449,2.6241,2.4602,2.2264,1.988,1.882,1.8316,1.8176,1.8176,1.8176,1.7943,1.739,1.6868,1.6259,1.5704,1.5396,1.5276,1.5398,1.5533,1.5627,1.586,1.599,1.6069,1.6069,1.6112,1.6119,1.6133,1.6133,1.6133,1.6133,1.6133,1.6133,1.6133,1.6133,1.6133,1.6133,1.6133,1.6133,1.6133,1.6133,1.6133,1.6133,1.6133,1.6133,1.6133,1.6133,1.6133,1.6133,1.6133,1.6133,1.6133,1.6133,1.6133,1.6133,1.6133,1.6133,1.6133,1.6133,1.6133,1.6133,1.6133,1.6133,1.6133,1.6133,1.616,1.6117,1.6146,1.6133,1.6133,1.6133,1.6133,1.6126,1.6069,1.6008,1.6008,1.6044,1.5942,1.5949,1.5969,1.5962,1.5949,1.601,1.6042,1.6035,1.5959,1.5695,1.531,1.4757,1.4309,1.3928,1.34,1.2963,1.2743,1.2656,1.2547,1.2444,1.2324,1.2243,1.2241,1.2219,1.2219,1.2219,1.2219]},{"header":{"parameterUnit":"m.s-1","parameterCategory":1,"la1":31.0,"la2":29.5877,"lo1":-88.7671,"lo2":-86.6584,"dy":0.0162,"dx":0.0185,"nx":115,"ny":88,"refTime":"2024-09-30T06:00:00:Z","depth":0,"parameterNumber":3,"parameterNumberName":"V-component_of_WINDS"},"data":[0.0,0.0,0.0,0.0,0.0,0.0,0.0,0.0,0.0,0.0,0.0,0.0,0.0,0.0,0.0,0.0,0.0,0.0,0.0,0.0,0.0,0.0,0.0,0.0,0.0,0.0,0.0,0.0,0.0,0.0,0.0,0.0,0.0,0.0,0.0,0.0,0.0,0.0,0.0,0.0,0.0,0.0,0.0,0.0,0.0,0.0,0.0,0.0,0.0,0.0,0.0,0.0,0.0,0.0,0.0,0.0,0.0,0.0,0.0,0.0,0.0,0.0,0.0,0.0,0.0,0.0,0.0,0.0,0.0,0.0,0.0,0.0,0.0,0.0,0.0,0.0,0.0,0.0,0.0,0.0,0.0,0.0,0.0,0.0,0.0,0.0,0.0,0.0,0.0,0.0,0.0,0.0,0.0,0.0,0.0,0.0,0.0,0.0,0.0,0.0,0.0,0.0,0.0,0.0,0.0,0.0,0.0,0.0,0.0,0.0,0.0,0.0,0.0,0.0,0.0,0.0,0.0,0.0,0.0,0.0,0.0,0.0,0.0,0.0,0.0,0.0,0.0,0.0,0.0,0.0,0.0,0.0,0.0,0.0,0.0,0.0,0.0,0.0,0.0,0.0,0.0,0.0,0.0,0.0,0.0,0.0,0.0,0.0,0.0,0.0,0.0,0.0,0.0,0.0,0.0,0.0,0.0,0.0,0.0,0.0,0.0,0.0,0.0,0.0,0.0,0.0,0.0,0.0,0.0,0.0,0.0,0.0,0.0,0.0,0.0,0.0,0.0,0.0,0.0,0.0,0.0,0.0,0.0,0.0,0.0,0.0,0.0,0.0,0.0,0.0,0.0,0.0,0.0,0.0,0.0,0.0,0.0,0.0,0.0,0.0,0.0,0.0,0.0,0.0,0.0,0.0,0.0,0.0,0.0,0.0,0.0,0.0,0.0,0.0,0.0,0.0,0.0,0.0,0.0,0.0,0.0,0.0,0.0,0.0,0.0,0.0,0.0,0.0,0.0,0.0,0.0,0.0,0.0,0.0,0.0,0.0,0.0,0.0,0.0,0.0,0.0,0.0,0.0,0.0,0.0,0.0,0.0,0.0,0.0,0.0,0.0,0.0,0.0,0.0,0.0,0.0,0.0,0.0,0.0,0.0,0.0,0.0,0.0,0.0,0.0,0.0,0.0,0.0,0.0,0.0,0.0,0.0,0.0,0.0,0.0,0.0,0.0,0.0,0.0,0.0,0.0,0.0,0.0,0.0,0.0,0.0,0.0,0.0,0.0,0.0,0.0,0.0,0.0,0.0,0.0,0.0,0.0,0.0,0.0,0.0,0.0,0.0,0.0,0.0,0.0,0.0,0.0,0.0,0.0,0.0,0.0,0.0,0.0,0.0,0.0,0.0,0.0,0.0,0.0,0.0,0.0,0.0,0.0,0.0,0.0,0.0,0.0,0.0,0.0,0.0,0.0,0.0,0.0,0.0,0.0,0.0,0.0,0.0,0.0,0.0,0.0,0.0,0.0,0.0,0.0,0.0,0.0,0.0,0.0,0.0,0.0,0.0,0.0,0.0,0.0,0.0,0.0,0.0,0.0,0.0,0.0,0.0,0.0,0.0,0.0,0.0,0.0,0.0,0.0,0.0,0.0,0.0,0.0,0.0,0.0,0.0,0.0,0.0,0.0,0.0,0.0,0.0,0.0,0.0,0.0,0.0,0.0,0.0,0.0,0.0,0.0,0.0,0.0,0.0,0.0,0.0,0.0,0.0,0.0,0.0,0.0,0.0,0.0,0.0,0.0,0.0,0.0,0.0,0.0,0.0,0.0,0.0,0.0,0.0,0.0,0.0,0.0,0.0,0.0,0.0,0.0,0.0,0.0,0.0,0.0,0.0,0.0,0.0,0.0,0.0,0.0,0.0,0.0,0.0,0.0,0.0,0.0,0.0,0.0,0.0,0.0,0.0,0.0,0.0,0.0,0.0,0.0,0.0,0.0,0.0,0.0,0.0,0.0,0.0,0.0,0.0,0.0,0.0,0.0,0.0,0.0,0.0,0.0,0.0,0.0,0.0,0.0,0.0,0.0,0.0,0.0,0.0,0.0,0.0,0.0,0.0,0.0,0.0,0.0,0.0,0.0,0.0,0.0,0.0,0.0,0.0,0.0,0.0,0.0,0.0,0.0,0.0,0.0,0.0,0.0,0.0,0.0,0.0,0.0,0.0,0.0,0.0,0.0,0.0,0.0,0.0,0.0,0.0,0.0,0.0,0.0,0.0,0.0,0.0,0.0,0.0,0.0,0.0,0.0,0.0,0.0,0.0,0.0,0.0,0.0,0.0,0.0,0.0,0.0,0.0,0.0,0.0,0.0,0.0,0.0,0.0,0.0,0.0,0.0,0.0,0.0,0.0,0.0,0.0,0.0,0.0,0.0,0.0,0.0,0.0,0.0,0.0,0.0,0.0,0.0,0.0,0.0,0.0,0.0,0.0,0.0,0.0,0.0,0.0,0.0,0.0,0.0,0.0,0.0,0.0,0.0,0.0,0.0,0.0,0.0,0.0,0.0,0.0,0.0,0.0,0.0,0.0,0.0,0.0,0.0,0.0,0.0,0.0,0.0,0.0,0.0,0.0,0.0,0.0,0.0,0.0,0.0,0.0,0.0,0.0,0.0,0.0,0.0,0.0,0.0,0.0,0.0,0.0,0.0,0.0,0.0,0.0,0.0,0.0,0.0,0.0,0.0,0.0,0.0,0.0,0.0,0.0,0.0,0.0,0.0,0.0,0.0,0.0,0.0,0.0,0.0,0.0,0.0,0.0,0.0,0.0,0.0,0.0,0.0,0.0,0.0,0.0,0.0,0.0,0.0,0.0,0.0,0.0,0.0,0.0,0.0,0.0,0.0,0.0,0.0,0.0,0.0,0.0,0.0,0.0,0.0,0.0,0.0,0.0,0.0,0.0,0.0,0.0,0.0,0.0,0.0,0.0,0.0,0.0,0.0,0.0,0.0,0.0,0.0,0.0,0.0,0.0,0.0,0.0,0.0,0.0,0.0,0.0,0.0,0.0,0.0,0.0,0.0,0.0,0.0,0.0,0.0,0.0,0.0,0.0,0.0,0.0,0.0,0.0,0.0,0.0,0.0,0.0,0.0,0.0,0.0,0.0,0.0,0.0,0.0,0.0,0.0,0.0,0.0,0.0,0.0,0.0,0.0,0.0,0.0,0.0,0.0,0.0,0.0,0.0,0.0,0.0,0.0,0.0,0.0,0.0,0.0,0.0,0.0,0.0,0.0,0.0,0.0,0.0,0.0,0.0,0.0,0.0,0.0,0.0,0.0,0.0,0.0,0.0,0.0,0.0,0.0,0.0,0.0,0.0,0.0,0.0,0.0,0.0,0.0,0.0,0.0,0.0,0.0,0.0,0.0,0.0,0.0,0.0,0.0,0.0,0.0,0.0,0.0,0.0,0.0,0.0,0.0,0.0,0.0,0.0,0.0,0.0,0.0,0.0,0.0,0.0,0.0,0.0,0.0,0.0,0.0,0.0,0.0,0.0,0.0,0.0,0.0,0.0,0.0,0.0,0.0,0.0,0.0,0.0,0.0,0.0,0.0,0.0,0.0,0.0,0.0,0.0,0.0,0.0,0.0,0.0,0.0,0.0,0.0,0.0,0.0,0.0,0.0,0.0,0.0,0.0,0.0,0.0,0.0,0.0,0.0,0.0,0.0,0.0,0.0,0.0,0.0,0.0,0.0,0.0,0.0,0.0,0.0,0.0,0.0,0.0,0.0,0.0,0.0,0.0,0.0,0.0,0.0,0.0,0.0,0.0,0.0,0.0,0.0,0.0,0.0,0.0,0.0,0.0,0.0,0.0,0.0,0.0,0.0,0.0,0.0,0.0,0.0,0.0,0.0,0.0,0.0,0.0,0.0,0.0,0.0,0.0,0.0,0.0,0.0,0.0,0.0,0.0,0.0,0.0,0.0,0.0,0.0,0.0,0.0,0.0,0.0,0.0,0.0,0.0,0.0,0.0,0.0,0.0,0.0,0.0,0.0,0.0,0.0,0.0,0.0,0.0,0.0,0.0,0.0,0.0,0.0,0.0,0.0,0.0,0.0,0.0,0.0,0.0,0.0,0.0,0.0,0.0,0.0,0.0,0.0,0.0,0.0,0.0,0.0,0.0,0.0,0.0,0.0,0.0,0.0,0.0,0.0,0.0,0.0,0.0,0.0,0.0,0.0,0.0,0.0,0.0,0.0,0.0,0.0,0.0,0.0,0.0,0.0,0.0,3.7775,0.0,0.0,0.0,0.0,0.0,0.0,0.0,0.0,0.0,0.0,0.0,0.0,0.0,0.0,0.0,0.0,0.0,0.0,0.0,0.0,0.0,0.0,0.0,0.0,0.0,0.0,0.0,0.0,0.0,0.0,0.0,0.0,0.0,0.0,0.0,0.0,0.0,0.0,0.0,0.0,0.0,0.0,0.0,0.0,0.0,0.0,0.0,0.0,0.0,0.0,0.0,0.0,0.0,0.0,0.0,0.0,0.0,0.0,0.0,0.0,0.0,0.0,0.0,0.0,0.0,0.0,0.0,0.0,0.0,0.0,0.0,0.0,0.0,0.0,0.0,0.0,0.0,0.0,0.0,0.0,0.0,0.0,0.0,0.0,0.0,0.0,0.0,0.0,0.0,0.0,0.0,0.0,0.0,0.0,0.0,0.0,0.0,0.0,0.0,0.0,0.0,0.0,0.0,0.0,0.0,0.0,0.0,0.0,0.0,0.0,3.9694,4.0066,3.9762,3.9051,3.7944,0.0,0.0,0.0,0.0,0.0,0.0,0.0,0.0,0.0,0.0,0.0,0.0,0.0,0.0,0.0,0.0,0.0,0.0,0.0,0.0,0.0,0.0,0.0,0.0,0.0,0.0,0.0,0.0,0.0,0.0,0.0,0.0,0.0,0.0,0.0,0.0,0.0,0.0,0.0,0.0,0.0,0.0,0.0,0.0,0.0,0.0,0.0,0.0,0.0,0.0,0.0,0.0,0.0,0.0,0.0,0.0,0.0,0.0,0.0,0.0,0.0,0.0,0.0,0.0,0.0,0.0,0.0,0.0,0.0,0.0,0.0,0.0,0.0,0.0,0.0,0.0,0.0,0.0,0.0,0.0,0.0,0.0,0.0,0.0,0.0,0.0,0.0,0.0,0.0,0.0,0.0,0.0,0.0,0.0,0.0,0.0,0.0,0.0,0.0,0.0,0.0,0.0,0.0,0.0,0.0,0.0,0.0,0.0,0.0,0.0,0.0,0.0,4.0574,3.9829,3.8227,0.0,0.0,0.0,0.0,0.0,0.0,0.0,0.0,0.0,0.0,0.0,0.0,0.0,0.0,0.0,0.0,0.0,0.0,0.0,0.0,0.0,0.0,0.0,0.0,0.0,0.0,0.0,0.0,0.0,0.0,0.0,0.0,0.0,0.0,0.0,0.0,0.0,0.0,0.0,0.0,0.0,0.0,0.0,0.0,0.0,0.0,0.0,0.0,0.0,0.0,0.0,0.0,0.0,0.0,0.0,0.0,0.0,0.0,0.0,0.0,0.0,0.0,0.0,0.0,0.0,0.0,0.0,0.0,0.0,0.0,0.0,0.0,0.0,0.0,0.0,0.0,0.0,0.0,0.0,0.0,0.0,0.0,0.0,0.0,0.0,0.0,0.0,0.0,0.0,0.0,0.0,0.0,0.0,0.0,0.0,0.0,0.0,0.0,0.0,0.0,0.0,0.0,0.0,0.0,0.0,0.0,0.0,0.0,0.0,0.0,4.0688,4.2063,4.2063,0.0,3.9039,0.0,0.0,0.0,0.0,0.0,0.0,0.0,0.0,0.0,0.0,0.0,0.0,0.0,0.0,0.0,0.0,0.0,0.0,0.0,0.0,0.0,0.0,0.0,0.0,0.0,0.0,0.0,0.0,0.0,0.0,0.0,0.0,0.0,0.0,0.0,0.0,0.0,0.0,0.0,0.0,0.0,0.0,0.0,0.0,0.0,0.0,0.0,0.0,0.0,0.0,0.0,0.0,0.0,0.0,0.0,0.0,0.0,0.0,0.0,0.0,0.0,0.0,0.0,0.0,0.0,0.0,0.0,0.0,0.0,0.0,0.0,0.0,0.0,0.0,0.0,0.0,0.0,0.0,0.0,0.0,0.0,0.0,0.0,0.0,0.0,0.0,0.0,0.0,0.0,0.0,0.0,0.0,0.0,0.0,0.0,0.0,0.0,0.0,0.0,0.0,0.0,0.0,0.0,0.0,0.0,0.0,0.0,0.0,0.0,0.0,4.0595,4.1644,4.0798,3.9715,0.0,0.0,0.0,0.0,0.0,0.0,0.0,0.0,0.0,0.0,0.0,0.0,0.0,0.0,0.0,0.0,0.0,0.0,0.0,0.0,0.0,0.0,0.0,0.0,0.0,0.0,0.0,0.0,0.0,0.0,0.0,0.0,0.0,0.0,0.0,0.0,0.0,0.0,0.0,0.0,0.0,0.0,0.0,0.0,0.0,0.0,0.0,0.0,0.0,0.0,0.0,0.0,0.0,0.0,0.0,0.0,0.0,0.0,0.0,0.0,0.0,0.0,0.0,0.0,0.0,0.0,0.0,0.0,0.0,0.0,0.0,0.0,0.0,0.0,0.0,0.0,0.0,0.0,0.0,0.0,0.0,0.0,0.0,0.0,0.0,0.0,0.0,0.0,0.0,0.0,0.0,0.0,0.0,0.0,0.0,0.0,0.0,0.0,0.0,0.0,0.0,0.0,0.0,0.0,0.0,0.0,0.0,0.0,0.0,0.0,4.0514,4.0751,4.1407,4.0663,3.9411,3.7652,0.0,0.0,0.0,0.0,0.0,0.0,0.0,0.0,0.0,0.0,0.0,0.0,0.0,0.0,0.0,0.0,0.0,0.0,0.0,0.0,0.0,0.0,0.0,0.0,0.0,0.0,0.0,0.0,0.0,0.0,0.0,0.0,0.0,0.0,0.0,0.0,0.0,0.0,0.0,0.0,0.0,0.0,0.0,0.0,0.0,0.0,0.0,0.0,0.0,0.0,0.0,0.0,0.0,0.0,0.0,0.0,0.0,0.0,0.0,0.0,0.0,0.0,0.0,0.0,0.0,0.0,0.0,0.0,0.0,0.0,0.0,0.0,0.0,0.0,0.0,0.0,0.0,0.0,0.0,0.0,0.0,0.0,0.0,0.0,0.0,0.0,0.0,0.0,0.0,0.0,0.0,0.0,0.0,0.0,0.0,0.0,0.0,0.0,0.0,0.0,0.0,0.0,0.0,0.0,0.0,0.0,0.0,0.0,0.0,4.1474,4.1508,4.2232,4.2828,4.1204,0.0,0.0,0.0,0.0,0.0,0.0,0.0,0.0,0.0,0.0,0.0,0.0,0.0,0.0,0.0,0.0,0.0,0.0,0.0,0.0,0.0,0.0,0.0,0.0,0.0,0.0,0.0,0.0,0.0,0.0,0.0,0.0,0.0,0.0,0.0,0.0,0.0,0.0,0.0,0.0,0.0,0.0,0.0,0.0,0.0,0.0,0.0,0.0,0.0,0.0,0.0,0.0,0.0,0.0,0.0,0.0,0.0,0.0,0.0,0.0,0.0,0.0,0.0,0.0,0.0,0.0,0.0,0.0,0.0,0.0,0.0,0.0,0.0,0.0,0.0,0.0,0.0,0.0,0.0,0.0,0.0,0.0,0.0,0.0,0.0,0.0,0.0,0.0,0.0,0.0,0.0,0.0,0.0,0.0,0.0,0.0,0.0,0.0,0.0,0.0,0.0,0.0,0.0,0.0,0.0,0.0,0.0,0.0,0.0,3.9445,4.0134,4.1305,4.2848,4.0988,3.914,0.0,0.0,0.0,0.0,0.0,0.0,0.0,0.0,0.0,0.0,0.0,0.0,0.0,0.0,0.0,0.0,0.0,0.0,0.0,0.0,0.0,0.0,0.0,0.0,0.0,0.0,0.0,0.0,0.0,0.0,0.0,0.0,0.0,0.0,0.0,0.0,0.0,0.0,0.0,0.0,0.0,0.0,0.0,0.0,0.0,0.0,0.0,0.0,0.0,0.0,0.0,0.0,0.0,0.0,0.0,0.0,0.0,0.0,0.0,0.0,0.0,0.0,0.0,0.0,0.0,0.0,0.0,0.0,0.0,0.0,0.0,0.0,0.0,0.0,0.0,0.0,0.0,0.0,0.0,0.0,0.0,0.0,0.0,0.0,0.0,0.0,0.0,0.0,0.0,0.0,0.0,0.0,0.0,0.0,0.0,0.0,0.0,0.0,0.0,0.0,0.0,0.0,0.0,0.0,0.0,0.0,0.0,0.0,0.0,3.8937,0.0,4.1677,0.0,4.0278,3.8282,0.0,0.0,0.0,0.0,0.0,0.0,0.0,0.0,0.0,0.0,0.0,0.0,0.0,0.0,0.0,0.0,0.0,0.0,0.0,0.0,0.0,0.0,0.0,0.0,0.0,0.0,0.0,0.0,0.0,0.0,0.0,0.0,0.0,0.0,0.0,0.0,0.0,0.0,0.0,0.0,0.0,0.0,0.0,0.0,0.0,0.0,0.0,0.0,0.0,0.0,0.0,0.0,0.0,0.0,0.0,0.0,0.0,0.0,0.0,0.0,0.0,0.0,0.0,0.0,0.0,0.0,0.0,0.0,0.0,0.0,0.0,0.0,0.0,0.0,0.0,0.0,0.0,0.0,0.0,0.0,0.0,0.0,0.0,0.0,0.0,0.0,0.0,0.0,0.0,0.0,0.0,0.0,0.0,0.0,0.0,0.0,0.0,0.0,0.0,0.0,0.0,0.0,0.0,0.0,0.0,0.0,0.0,0.0,3.8239,4.1022,4.251,4.2611,4.1339,4.1102,3.9039,0.0,0.0,0.0,0.0,0.0,0.0,0.0,0.0,0.0,0.0,0.0,0.0,0.0,0.0,0.0,0.0,0.0,0.0,0.0,0.0,0.0,0.0,0.0,0.0,0.0,0.0,0.0,0.0,0.0,0.0,0.0,0.0,0.0,0.0,0.0,0.0,0.0,0.0,0.0,0.0,0.0,0.0,0.0,0.0,0.0,0.0,0.0,0.0,0.0,0.0,0.0,0.0,0.0,0.0,0.0,0.0,0.0,0.0,0.0,0.0,0.0,0.0,0.0,0.0,0.0,0.0,0.0,0.0,0.0,0.0,0.0,0.0,0.0,0.0,0.0,0.0,0.0,0.0,0.0,0.0,0.0,0.0,0.0,0.0,0.0,0.0,0.0,0.0,0.0,0.0,0.0,0.0,0.0,0.0,0.0,0.0,0.0,0.0,0.0,0.0,0.0,0.0,0.0,0.0,0.0,0.0,0.0,0.0,0.0,3.9648,4.1136,4.2422,4.3382,4.0527,3.8768,0.0,0.0,0.0,0.0,0.0,0.0,0.0,0.0,0.0,0.0,0.0,0.0,0.0,0.0,0.0,0.0,0.0,0.0,0.0,0.0,0.0,0.0,0.0,0.0,0.0,0.0,0.0,0.0,0.0,0.0,0.0,0.0,0.0,0.0,0.0,0.0,0.0,0.0,0.0,0.0,0.0,0.0,0.0,0.0,0.0,0.0,0.0,0.0,0.0,0.0,0.0,0.0,0.0,0.0,0.0,0.0,0.0,0.0,0.0,0.0,0.0,0.0,0.0,0.0,0.0,0.0,0.0,0.0,0.0,0.0,0.0,0.0,0.0,0.0,0.0,0.0,0.0,0.0,0.0,0.0,0.0,0.0,0.0,0.0,0.0,0.0,0.0,0.0,0.0,0.0,0.0,0.0,0.0,0.0,0.0,0.0,0.0,0.0,0.0,0.0,0.0,0.0,0.0,0.0,0.0,0.0,0.0,0.0,0.0,4.0269,4.1677,4.301,4.4147,4.1136,3.9309,3.8826,0.0,0.0,0.0,0.0,0.0,0.0,0.0,0.0,0.0,0.0,0.0,0.0,0.0,0.0,0.0,0.0,0.0,0.0,0.0,0.0,0.0,0.0,0.0,0.0,0.0,0.0,0.0,0.0,0.0,0.0,0.0,0.0,0.0,0.0,0.0,0.0,0.0,0.0,0.0,0.0,0.0,0.0,0.0,0.0,0.0,0.0,0.0,0.0,0.0,0.0,0.0,0.0,0.0,0.0,0.0,0.0,0.0,0.0,0.0,0.0,0.0,0.0,0.0,0.0,0.0,0.0,0.0,0.0,0.0,0.0,0.0,0.0,0.0,0.0,0.0,0.0,0.0,0.0,0.0,0.0,0.0,0.0,0.0,0.0,0.0,0.0,0.0,0.0,0.0,0.0,0.0,0.0,0.0,0.0,0.0,0.0,0.0,0.0,0.0,0.0,0.0,0.0,0.0,0.0,0.0,0.0,0.0,0.0,4.2422,4.3958,4.4465,4.3829,4.2794,4.0663,0.0,0.0,0.0,0.0,0.0,0.0,0.0,0.0,0.0,0.0,0.0,0.0,0.0,0.0,0.0,0.0,0.0,0.0,0.0,0.0,0.0,0.0,0.0,0.0,0.0,0.0,0.0,0.0,0.0,0.0,0.0,0.0,0.0,0.0,0.0,0.0,0.0,0.0,0.0,0.0,0.0,0.0,0.0,0.0,0.0,0.0,0.0,0.0,0.0,0.0,0.0,0.0,0.0,0.0,0.0,0.0,0.0,0.0,0.0,0.0,0.0,0.0,0.0,0.0,0.0,0.0,0.0,0.0,0.0,0.0,0.0,0.0,0.0,0.0,0.0,0.0,0.0,0.0,0.0,0.0,0.0,0.0,0.0,0.0,0.0,0.0,0.0,0.0,0.0,0.0,0.0,0.0,0.0,0.0,0.0,0.0,0.0,0.0,0.0,0.0,0.0,0.0,0.0,0.0,0.0,0.0,0.0,0.0,0.0,4.3992,4.5974,4.7177,4.7462,4.4147,4.2117,0.0,0.0,0.0,0.0,0.0,0.0,0.0,0.0,0.0,0.0,0.0,0.0,0.0,0.0,0.0,0.0,0.0,0.0,0.0,0.0,0.0,0.0,0.0,0.0,0.0,0.0,0.0,0.0,0.0,0.0,0.0,0.0,0.0,0.0,0.0,0.0,0.0,0.0,0.0,0.0,0.0,0.0,0.0,0.0,0.0,0.0,0.0,0.0,0.0,0.0,0.0,0.0,0.0,0.0,0.0,0.0,0.0,0.0,0.0,0.0,0.0,0.0,0.0,0.0,0.0,0.0,0.0,0.0,0.0,0.0,0.0,0.0,0.0,0.0,0.0,0.0,0.0,0.0,0.0,0.0,0.0,0.0,0.0,0.0,0.0,0.0,0.0,0.0,0.0,0.0,0.0,0.0,0.0,0.0,0.0,0.0,0.0,0.0,0.0,0.0,0.0,0.0,0.0,0.0,0.0,0.0,0.0,0.0,4.3856,4.5074,4.753,4.9052,4.9458,4.598,4.3558,0.0,0.0,0.0,0.0,0.0,0.0,0.0,0.0,0.0,0.0,0.0,0.0,0.0,0.0,0.0,0.0,0.0,0.0,0.0,0.0,0.0,0.0,0.0,0.0,0.0,0.0,0.0,0.0,0.0,0.0,0.0,0.0,0.0,0.0,0.0,0.0,0.0,0.0,0.0,0.0,0.0,0.0,0.0,0.0,0.0,0.0,0.0,0.0,0.0,0.0,0.0,0.0,0.0,0.0,0.0,0.0,0.0,0.0,0.0,0.0,0.0,0.0,0.0,0.0,0.0,0.0,0.0,0.0,0.0,0.0,0.0,0.0,0.0,0.0,0.0,0.0,0.0,0.0,0.0,0.0,0.0,0.0,0.0,0.0,0.0,0.0,0.0,0.0,0.0,0.0,0.0,0.0,0.0,0.0,0.0,0.0,0.0,0.0,0.0,0.0,0.0,0.0,0.0,0.0,0.0,0.0,0.0,0.0,4.5122,4.594,4.879,5.0362,5.0344,4.7789,4.4835,0.0,0.0,0.0,0.0,0.0,0.0,0.0,0.0,0.0,0.0,0.0,0.0,0.0,0.0,0.0,0.0,0.0,0.0,0.0,0.0,0.0,0.0,0.0,0.0,0.0,0.0,0.0,0.0,0.0,0.0,0.0,0.0,0.0,0.0,0.0,0.0,0.0,0.0,0.0,0.0,0.0,0.0,0.0,0.0,0.0,0.0,0.0,0.0,0.0,0.0,0.0,0.0,0.0,0.0,0.0,0.0,0.0,0.0,0.0,0.0,0.0,0.0,0.0,0.0,0.0,0.0,0.0,0.0,0.0,0.0,0.0,0.0,0.0,0.0,0.0,0.0,0.0,0.0,0.0,0.0,0.0,0.0,0.0,0.0,0.0,0.0,0.0,0.0,0.0,0.0,0.0,0.0,0.0,0.0,0.0,0.0,0.0,0.0,0.0,0.0,0.0,0.0,0.0,0.0,0.0,0.0,0.0,0.0,4.6225,4.7428,5.0249,5.2016,5.2585,4.8036,4.4727,0.0,0.0,0.0,0.0,0.0,0.0,0.0,0.0,0.0,0.0,0.0,0.0,0.0,0.0,0.0,0.0,0.0,0.0,0.0,0.0,0.0,0.0,0.0,0.0,0.0,0.0,0.0,0.0,0.0,0.0,0.0,0.0,0.0,0.0,0.0,0.0,0.0,0.0,0.0,0.0,0.0,0.0,0.0,0.0,0.0,0.0,0.0,0.0,4.3104,0.0,0.0,0.0,0.0,0.0,0.0,0.0,0.0,0.0,0.0,0.0,0.0,0.0,0.0,0.0,0.0,0.0,0.0,0.0,0.0,0.0,0.0,0.0,0.0,0.0,0.0,0.0,0.0,0.0,0.0,0.0,0.0,0.0,0.0,0.0,0.0,0.0,0.0,0.0,0.0,0.0,0.0,0.0,0.0,0.0,0.0,0.0,0.0,0.0,0.0,0.0,0.0,0.0,0.0,0.0,0.0,0.0,0.0,0.0,4.6486,4.7902,5.0066,5.1531,5.211,4.9028,4.6358,0.0,0.0,0.0,0.0,0.0,0.0,0.0,0.0,0.0,0.0,0.0,0.0,0.0,0.0,0.0,0.0,0.0,0.0,0.0,0.0,0.0,0.0,0.0,0.0,0.0,0.0,0.0,0.0,0.0,0.0,0.0,0.0,0.0,0.0,0.0,0.0,0.0,0.0,0.0,0.0,0.0,0.0,0.0,0.0,0.0,0.0,0.0,0.0,0.0,0.0,0.0,0.0,0.0,0.0,0.0,0.0,0.0,0.0,0.0,0.0,0.0,0.0,0.0,0.0,0.0,0.0,0.0,0.0,0.0,0.0,0.0,0.0,0.0,0.0,0.0,0.0,0.0,0.0,0.0,0.0,0.0,0.0,0.0,0.0,0.0,0.0,0.0,0.0,0.0,0.0,0.0,0.0,0.0,0.0,0.0,0.0,0.0,0.0,0.0,0.0,0.0,0.0,0.0,0.0,0.0,0.0,0.0,4.4141,4.6351,4.8339,4.9687,5.075,5.1471,5.0446,4.8451,4.5553,0.0,0.0,0.0,0.0,0.0,0.0,0.0,0.0,0.0,0.0,0.0,0.0,0.0,0.0,0.0,0.0,0.0,0.0,0.0,0.0,0.0,0.0,0.0,0.0,0.0,0.0,0.0,0.0,0.0,0.0,0.0,0.0,0.0,0.0,0.0,0.0,0.0,0.0,4.1682,4.28,0.0,0.0,0.0,0.0,0.0,0.0,0.0,0.0,4.4419,0.0,0.0,0.0,0.0,0.0,0.0,0.0,0.0,0.0,0.0,0.0,0.0,0.0,0.0,0.0,0.0,0.0,0.0,0.0,0.0,0.0,0.0,0.0,0.0,0.0,0.0,0.0,0.0,0.0,0.0,0.0,0.0,0.0,0.0,0.0,0.0,0.0,0.0,0.0,0.0,0.0,0.0,0.0,0.0,0.0,0.0,0.0,0.0,0.0,0.0,0.0,0.0,0.0,0.0,0.0,0.0,4.415,4.4055,4.6143,5.0523,5.1253,5.2186,5.3331,5.2018,4.9358,4.5423,0.0,0.0,0.0,0.0,0.0,0.0,0.0,0.0,0.0,0.0,0.0,0.0,0.0,0.0,0.0,0.0,0.0,0.0,0.0,0.0,0.0,0.0,0.0,0.0,0.0,0.0,0.0,0.0,0.0,0.0,0.0,0.0,0.0,0.0,0.0,0.0,0.0,0.0,0.0,4.6611,4.7489,0.0,0.0,0.0,0.0,0.0,0.0,0.0,0.0,4.5574,0.0,0.0,0.0,0.0,0.0,0.0,0.0,0.0,0.0,0.0,0.0,0.0,0.0,0.0,0.0,0.0,0.0,0.0,0.0,0.0,0.0,0.0,0.0,0.0,0.0,0.0,0.0,0.0,0.0,0.0,0.0,0.0,0.0,0.0,0.0,0.0,0.0,0.0,0.0,0.0,0.0,0.0,0.0,0.0,0.0,0.0,0.0,0.0,0.0,0.0,0.0,0.0,0.0,0.0,0.0,4.3859,4.5853,4.813,5.0872,5.157,5.2381,5.332,5.1059,4.8279,0.0,0.0,0.0,0.0,0.0,0.0,0.0,0.0,0.0,0.0,0.0,0.0,0.0,0.0,0.0,0.0,0.0,0.0,0.0,0.0,0.0,0.0,0.0,0.0,0.0,0.0,0.0,0.0,0.0,0.0,0.0,0.0,0.0,0.0,0.0,0.0,0.0,0.0,0.0,0.0,4.7429,4.8654,4.9238,0.0,0.0,0.0,0.0,0.0,0.0,4.7136,4.6898,0.0,0.0,0.0,0.0,0.0,0.0,0.0,0.0,0.0,0.0,0.0,0.0,0.0,0.0,0.0,0.0,0.0,0.0,0.0,0.0,0.0,0.0,0.0,0.0,0.0,0.0,0.0,0.0,0.0,0.0,0.0,0.0,0.0,0.0,0.0,0.0,0.0,0.0,0.0,0.0,0.0,0.0,0.0,0.0,0.0,0.0,0.0,0.0,0.0,0.0,0.0,0.0,0.0,0.0,0.0,4.3556,4.7387,4.9934,5.0968,5.1586,5.2257,5.2868,4.9803,4.7027,0.0,0.0,0.0,0.0,0.0,0.0,0.0,0.0,0.0,0.0,0.0,0.0,0.0,0.0,0.0,0.0,0.0,0.0,0.0,0.0,0.0,0.0,0.0,0.0,0.0,0.0,0.0,0.0,0.0,0.0,0.0,0.0,0.0,0.0,0.0,0.0,0.0,0.0,0.0,0.0,0.0,5.0079,5.0675,5.032,0.0,0.0,0.0,0.0,4.8287,4.8891,0.0,0.0,0.0,0.0,0.0,0.0,0.0,0.0,0.0,0.0,0.0,0.0,0.0,0.0,0.0,0.0,0.0,0.0,0.0,0.0,0.0,0.0,0.0,0.0,0.0,0.0,0.0,0.0,0.0,0.0,0.0,0.0,0.0,0.0,0.0,0.0,0.0,0.0,0.0,0.0,0.0,0.0,0.0,0.0,0.0,0.0,0.0,0.0,0.0,0.0,0.0,0.0,0.0,0.0,0.0,0.0,4.4464,4.6835,4.9352,5.1862,5.1981,5.2246,5.2744,4.982,4.6838,0.0,0.0,0.0,0.0,0.0,0.0,0.0,0.0,0.0,0.0,0.0,0.0,0.0,0.0,0.0,0.0,0.0,0.0,0.0,0.0,0.0,0.0,0.0,0.0,0.0,0.0,0.0,0.0,0.0,0.0,0.0,0.0,0.0,0.0,0.0,0.0,0.0,0.0,0.0,0.0,0.0,5.4112,5.233,5.2326,5.2081,0.0,0.0,5.1697,5.2737,5.3649,0.0,0.0,0.0,0.0,0.0,0.0,0.0,0.0,0.0,0.0,0.0,0.0,0.0,0.0,0.0,0.0,0.0,0.0,0.0,0.0,0.0,0.0,0.0,0.0,0.0,0.0,0.0,0.0,0.0,0.0,0.0,0.0,0.0,0.0,0.0,0.0,0.0,0.0,0.0,0.0,0.0,0.0,0.0,0.0,0.0,0.0,0.0,0.0,0.0,0.0,0.0,0.0,0.0,0.0,0.0,4.263,4.5153,4.9277,5.2009,5.3162,5.3189,5.3063,5.2904,4.9438,4.6263,0.0,0.0,0.0,0.0,0.0,0.0,0.0,0.0,0.0,0.0,0.0,0.0,0.0,0.0,0.0,0.0,0.0,0.0,0.0,0.0,0.0,0.0,0.0,0.0,0.0,0.0,0.0,0.0,0.0,0.0,0.0,0.0,0.0,0.0,0.0,0.0,0.0,0.0,0.0,0.0,0.0,0.0,5.4583,5.5145,0.0,0.0,0.0,5.3497,5.3124,0.0,0.0,0.0,0.0,0.0,0.0,0.0,0.0,0.0,0.0,0.0,0.0,0.0,0.0,0.0,0.0,0.0,0.0,0.0,0.0,0.0,0.0,0.0,0.0,0.0,0.0,0.0,0.0,0.0,0.0,0.0,0.0,0.0,0.0,0.0,0.0,0.0,0.0,0.0,0.0,0.0,0.0,0.0,0.0,0.0,0.0,0.0,0.0,0.0,0.0,0.0,0.0,0.0,0.0,0.0,0.0,0.0,4.5954,5.1623,5.4407,5.411,5.4293,5.3972,5.3013,4.9728,0.0,0.0,0.0,0.0,0.0,0.0,0.0,0.0,0.0,0.0,0.0,0.0,0.0,0.0,0.0,0.0,0.0,0.0,0.0,0.0,0.0,0.0,0.0,0.0,0.0,0.0,0.0,3.7152,0.0,0.0,0.0,0.0,0.0,0.0,0.0,0.0,0.0,0.0,0.0,0.0,0.0,0.0,5.5286,5.6196,5.7313,5.787,0.0,0.0,5.527,5.4277,5.5307,5.4787,0.0,0.0,0.0,0.0,0.0,0.0,0.0,0.0,0.0,0.0,0.0,0.0,0.0,0.0,0.0,0.0,0.0,0.0,0.0,0.0,0.0,0.0,0.0,0.0,0.0,0.0,0.0,0.0,0.0,0.0,0.0,0.0,0.0,0.0,0.0,0.0,0.0,0.0,0.0,0.0,0.0,0.0,0.0,0.0,0.0,0.0,0.0,0.0,0.0,0.0,0.0,0.0,0.0,0.0,0.0,4.7346,5.2704,5.5122,5.4451,5.5111,5.4755,5.3203,5.1479,4.8663,0.0,0.0,0.0,0.0,0.0,0.0,0.0,0.0,0.0,0.0,0.0,0.0,0.0,0.0,0.0,0.0,0.0,0.0,0.0,0.0,0.0,0.0,0.0,0.0,0.0,0.0,0.0,0.0,0.0,0.0,0.0,0.0,0.0,0.0,0.0,0.0,0.0,0.0,0.0,0.0,0.0,5.6694,5.6354,5.8279,5.9728,0.0,0.0,5.7536,5.8167,5.8995,5.7945,5.3125,0.0,0.0,0.0,0.0,0.0,0.0,0.0,0.0,0.0,0.0,0.0,0.0,0.0,0.0,0.0,0.0,0.0,0.0,0.0,0.0,0.0,0.0,0.0,0.0,0.0,0.0,0.0,0.0,0.0,0.0,0.0,0.0,0.0,0.0,0.0,0.0,0.0,0.0,0.0,0.0,0.0,0.0,0.0,0.0,0.0,0.0,0.0,0.0,0.0,0.0,0.0,0.0,0.0,4.5549,4.7493,5.282,5.5695,5.5893,5.6161,5.5563,5.3959,5.238,4.9627,0.0,0.0,0.0,0.0,0.0,0.0,0.0,0.0,0.0,0.0,0.0,0.0,0.0,0.0,0.0,0.0,0.0,0.0,0.0,0.0,0.0,0.0,0.0,0.0,0.0,0.0,0.0,0.0,4.4011,4.4626,4.4441,0.0,0.0,0.0,0.0,0.0,0.0,0.0,0.0,0.0,0.0,5.9091,5.994,6.1469,0.0,0.0,6.0648,5.9956,5.951,5.8994,5.7283,5.3237,5.1894,0.0,0.0,0.0,0.0,0.0,0.0,0.0,0.0,0.0,0.0,0.0,0.0,0.0,0.0,0.0,0.0,0.0,0.0,0.0,0.0,0.0,0.0,0.0,0.0,0.0,0.0,0.0,0.0,0.0,0.0,0.0,0.0,0.0,0.0,0.0,0.0,0.0,0.0,0.0,0.0,0.0,0.0,0.0,0.0,0.0,0.0,0.0,0.0,0.0,0.0,0.0,0.0,4.6446,4.8057,5.3277,5.6235,5.6774,5.7031,5.6381,5.4803,5.3419,5.0912,0.0,0.0,0.0,0.0,0.0,0.0,0.0,0.0,0.0,0.0,0.0,0.0,0.0,0.0,0.0,0.0,0.0,0.0,0.0,0.0,0.0,0.0,0.0,0.0,0.0,0.0,0.0,0.0,4.569,4.5992,4.5426,0.0,0.0,0.0,0.0,0.0,0.0,0.0,0.0,0.0,0.0,6.1307,6.2222,6.3298,6.3612,6.2504,6.1449,6.0529,5.9923,5.8859,5.7073,5.4086,0.0,0.0,0.0,0.0,0.0,0.0,0.0,0.0,0.0,0.0,0.0,0.0,0.0,0.0,0.0,0.0,0.0,0.0,0.0,0.0,0.0,0.0,0.0,0.0,0.0,0.0,0.0,0.0,0.0,0.0,4.2286,0.0,0.0,0.0,0.0,0.0,0.0,0.0,0.0,0.0,0.0,0.0,0.0,0.0,0.0,0.0,0.0,0.0,0.0,0.0,0.0,0.0,0.0,4.765,4.9293,5.4192,5.6785,5.6859,5.7593,5.7189,5.5622,5.4766,5.2831,4.9527,0.0,0.0,0.0,0.0,0.0,0.0,0.0,0.0,0.0,0.0,0.0,0.0,0.0,0.0,0.0,0.0,0.0,0.0,0.0,0.0,0.0,0.0,0.0,0.0,0.0,0.0,4.5159,4.5733,4.6228,0.0,0.0,0.0,0.0,0.0,0.0,0.0,0.0,0.0,0.0,6.0655,6.32,6.2353,6.2967,6.3253,6.2339,6.0244,5.8889,5.9643,5.9033,5.7921,0.0,0.0,0.0,0.0,0.0,0.0,0.0,0.0,0.0,0.0,0.0,0.0,0.0,0.0,0.0,0.0,0.0,0.0,0.0,0.0,0.0,0.0,0.0,0.0,0.0,0.0,0.0,4.7104,4.625,0.0,0.0,0.0,0.0,0.0,0.0,0.0,0.0,0.0,0.0,0.0,5.1057,5.2729,0.0,0.0,0.0,0.0,0.0,0.0,0.0,0.0,0.0,0.0,0.0,0.0,4.8002,5.0154,5.3983,5.6528,5.7556,5.785,5.7483,5.6418,5.5097,5.238,4.8086,0.0,0.0,0.0,0.0,0.0,0.0,0.0,0.0,0.0,0.0,0.0,0.0,0.0,0.0,0.0,0.0,0.0,0.0,0.0,0.0,0.0,0.0,0.0,0.0,0.0,4.7377,0.0,0.0,0.0,0.0,0.0,0.0,0.0,0.0,0.0,0.0,0.0,5.7986,6.0156,6.173,6.2749,6.295,6.3465,6.3644,0.0,0.0,0.0,0.0,0.0,0.0,0.0,0.0,0.0,0.0,0.0,0.0,0.0,0.0,6.0533,5.6185,5.5332,5.5211,5.4983,0.0,0.0,0.0,0.0,0.0,0.0,0.0,0.0,0.0,0.0,0.0,0.0,0.0,0.0,5.0115,0.0,4.8737,0.0,0.0,0.0,0.0,0.0,0.0,0.0,0.0,5.4242,5.5537,5.4583,5.6393,5.6455,0.0,5.4822,5.2695,0.0,0.0,0.0,0.0,0.0,0.0,0.0,0.0,4.9431,5.1026,5.4554,5.6943,5.7923,5.7997,5.774,5.7226,5.5647,5.3041,4.9351,4.7672,4.6067,0.0,0.0,0.0,0.0,0.0,0.0,0.0,0.0,0.0,0.0,0.0,0.0,0.0,0.0,0.0,0.0,0.0,0.0,0.0,0.0,0.0,0.0,0.0,4.881,0.0,0.0,0.0,0.0,0.0,0.0,0.0,0.0,0.0,5.7362,5.9209,6.1119,6.2731,6.3251,6.3375,6.297,0.0,0.0,0.0,0.0,0.0,0.0,0.0,5.919,5.9001,5.9228,6.0124,6.2049,6.4667,6.662,6.6904,0.0,0.0,6.0934,6.0025,5.9903,5.9674,5.9997,6.0307,6.0299,6.0635,6.0734,0.0,0.0,0.0,0.0,0.0,0.0,0.0,0.0,5.2317,5.2281,0.0,5.1353,0.0,0.0,0.0,0.0,0.0,5.182,0.0,0.0,5.8877,6.0713,5.9343,6.004,6.0419,6.0334,5.8841,5.6895,5.4499,5.2812,0.0,0.0,0.0,0.0,0.0,0.0,5.1867,5.2123,5.5933,5.7997,5.8045,5.7997,5.796,5.7886,5.6429,5.4876,5.3324,5.1709,5.0131,4.8517,4.6205,0.0,0.0,0.0,0.0,0.0,0.0,0.0,0.0,0.0,0.0,0.0,0.0,0.0,0.0,0.0,0.0,0.0,0.0,0.0,0.0,4.926,0.0,0.0,0.0,0.0,0.0,0.0,0.0,0.0,0.0,0.0,6.0182,6.2307,6.4066,6.4082,0.0,0.0,0.0,0.0,6.2737,6.1231,6.0281,5.9813,5.9846,6.1166,6.2172,6.221,0.0,0.0,6.728,6.8069,6.8411,6.7606,6.8809,6.9387,6.7601,6.5886,6.512,6.5776,6.5269,6.4911,6.4839,6.4172,6.3483,5.7226,0.0,0.0,0.0,0.0,5.5207,5.6517,5.8779,5.7618,5.6822,5.6209,5.4851,0.0,0.0,0.0,0.0,0.0,0.0,5.6077,5.6748,5.9501,6.0786,6.0933,6.1728,6.1814,6.1263,6.1374,6.0187,5.7912,5.7902,5.4507,4.7999,0.0,0.0,0.0,0.0,5.304,5.5173,5.707,5.829,5.8829,5.829,5.774,5.7178,5.6712,5.6271,5.5783,5.4216,5.3151,5.2637,5.0362,0.0,0.0,0.0,0.0,0.0,0.0,0.0,0.0,0.0,0.0,0.0,0.0,0.0,0.0,0.0,0.0,0.0,0.0,0.0,4.9556,5.1247,5.2056,0.0,0.0,0.0,0.0,0.0,0.0,0.0,0.0,0.0,6.4875,6.4096,6.3751,0.0,0.0,6.2018,6.1287,6.2391,6.3352,6.3474,6.382,0.0,6.4826,6.4326,6.4108,6.4772,6.6726,6.8218,6.8281,6.9484,7.0384,7.0153,7.0551,7.0706,7.0236,6.9247,6.8351,6.7992,6.7684,6.7547,6.7548,6.7366,6.7139,6.2071,5.9318,5.8033,5.8253,5.9355,5.8914,5.9979,6.1998,6.0713,5.9869,5.9355,5.8081,5.6345,5.4326,5.3712,0.0,0.0,0.0,5.8352,5.9465,6.075,6.163,6.2108,6.2572,6.2536,6.2108,6.2242,6.1582,6.015,6.0015,5.7141,5.182,0.0,0.0,5.0957,5.2899,5.4807,5.6621,5.7889,5.8719,5.9148,5.84,5.7776,5.7299,5.7262,5.7116,5.6811,5.5893,5.5207,5.4851,5.2706,5.0796,0.0,0.0,0.0,0.0,0.0,0.0,0.0,0.0,0.0,0.0,0.0,4.7889,4.6048,0.0,0.0,0.0,4.9961,5.1402,5.3736,5.471,0.0,0.0,0.0,0.0,0.0,0.0,0.0,6.3403,6.4782,6.5974,6.6942,6.5743,6.5128,6.5974,6.4474,6.3172,6.2864,0.0,6.4859,6.5089,6.5551,6.6096,6.6558,6.6346,6.6594,6.788,6.8886,6.9627,6.9767,7.0584,7.1214,7.1286,7.1291,7.1291,7.1291,7.0811,7.034,6.9799,6.9683,6.97,6.9734,6.9469,6.9248,6.5435,6.5141,6.2218,6.1337,6.1887,6.1814,6.2218,6.2829,6.2034,6.1716,6.1643,6.086,5.9685,5.8228,5.6723,0.0,5.84,5.9159,6.026,6.1704,6.2462,6.2793,6.2793,6.2793,6.2793,6.2756,6.2034,6.1716,6.1594,6.015,5.8572,5.6994,5.6161,5.4961,5.3508,5.5526,5.6811,5.6994,5.8462,5.9233,5.9306,5.8437,5.7997,5.796,5.7997,5.7666,5.6969,5.6856,5.6547,5.5834,5.3912,5.2442,5.1481,0.0,0.0,0.0,0.0,0.0,0.0,0.0,0.0,0.0,0.0,0.0,0.0,0.0,0.0,0.0,5.4537,0.0,5.934,5.9044,0.0,0.0,0.0,6.1743,6.3352,6.4352,6.5205,6.5897,0.0,0.0,6.7289,6.7289,6.7628,6.8468,6.7667,6.6712,6.6013,6.6551,6.6942,6.6244,6.6282,6.6359,6.675,6.7776,6.9134,7.0599,7.1207,7.1114,7.1164,7.1214,7.1291,7.1291,7.1291,7.1291,7.1291,7.1253,7.1291,7.1209,7.1209,7.1253,7.1137,7.0595,7.0092,6.6769,6.6219,6.6048,6.5375,6.4383,6.3759,6.3625,6.3723,6.2866,6.2499,6.2462,6.1667,6.108,6.0725,6.0358,6.0713,6.1655,6.1838,6.2169,6.2499,6.2719,6.2793,6.2793,6.2793,6.2793,6.2793,6.2609,6.2499,6.2462,6.152,6.0199,5.8682,5.785,5.6308,5.4252,5.528,5.6785,5.8609,5.9013,5.949,6.0052,5.8731,5.7997,5.7997,5.7997,5.7923,5.7703,5.74,5.7423,5.7815,5.5968,5.4355,5.3164,5.0475,0.0,0.0,0.0,0.0,0.0,0.0,0.0,0.0,0.0,5.3219,4.922,0.0,5.541,0.0,5.7728,5.9773,6.0435,6.1467,0.0,0.0,6.332,6.4128,6.5166,6.6583,6.7321,6.6865,6.8167,6.909,6.909,6.909,6.936,7.0129,6.7936,6.6096,6.5942,6.7167,6.8045,6.7968,6.8821,6.9667,6.9642,7.0119,7.061,7.1118,7.1241,7.128,7.1291,7.1291,7.1291,7.1291,7.1291,7.1291,7.1291,7.1291,7.1291,7.1291,7.1291,7.1291,7.1291,7.1142,7.0987,6.7981,6.7577,6.7664,6.699,6.5802,6.5338,6.5167,6.5081,6.3906,6.3392,6.3319,6.2511,6.2144,6.2144,6.2144,6.2365,6.2793,6.2793,6.2793,6.2793,6.2793,6.2793,6.2829,6.3196,6.3392,6.3392,6.3392,6.3576,6.382,6.2695,6.1655,6.0811,5.9979,5.8584,5.659,5.5915,5.6418,5.8095,5.8462,5.8877,5.9281,5.8107,5.739,5.7151,5.6665,5.6374,5.6307,5.5896,5.582,5.6022,5.5191,5.4383,5.3712,5.2055,5.1067,0.0,0.0,0.0,0.0,0.0,0.0,0.0,0.0,0.0,0.0,0.0,5.8781,5.9088,6.1512,6.3358,6.4128,6.4666,6.559,6.709,6.7359,6.7898,6.9129,6.9783,6.9898,6.9436,6.9898,7.0244,7.0244,7.0206,7.0398,7.0821,6.9283,6.8129,6.8167,6.8975,6.9507,6.9552,7.031,7.0972,7.103,7.11,7.1172,7.1236,7.1275,7.1291,7.1291,7.1291,7.1291,7.1291,7.1291,7.1291,7.1291,7.1291,7.1291,7.1291,7.1291,7.1291,7.1291,7.1291,7.1291,6.9082,6.9009,6.8178,6.7444,6.6806,6.6696,6.6549,6.6256,6.4861,6.4213,6.4066,6.3319,6.2976,6.2976,6.2939,6.2976,6.2976,6.2829,6.2793,6.2793,6.2793,6.2866,6.3013,6.3772,6.4139,6.4249,6.4139,6.4543,6.5251,6.36,6.2756,6.2609,6.1961,6.075,5.9049,5.7042,5.6345,5.6932,5.774,5.8217,5.8302,5.7246,5.6439,5.595,5.5001,5.437,5.4063,5.3905,5.369,5.3357,5.3754,5.4089,5.4278,5.3855,5.4001,0.0,5.4164,0.0,0.0,0.0,0.0,0.0,0.0,0.0,0.0,6.0819,6.2089,6.366,6.5359,6.7013,6.8545,6.8244,6.9129,7.1937,7.1706,7.186,7.3238,7.2745,7.2213,7.2213,7.1437,7.0898,7.086,7.0898,7.0898,7.0898,7.0783,7.0667,7.0975,7.086,7.0744,7.0898,7.0959,7.1037,7.116,7.1201,7.1241,7.1313,7.1317,7.1312,7.1363,7.1363,7.1353,7.1353,7.1343,7.1312,7.134,7.1324,7.1291,7.1291,7.1291,7.1291,7.1291,7.1291,7.1291,6.9853,6.9816,6.9009,6.8568,6.8385,6.776,6.6733,6.5508,6.5228,6.4714,6.4103,6.3919,6.3833,6.3833,6.387,6.3833,6.3796,6.3123,6.2793,6.2793,6.2793,6.3196,6.3833,6.4029,6.442,6.5007,6.442,6.4494,6.5288,6.36,6.2462,6.1851,6.1667,6.0456,5.8364,0.0,0.0,0.0,5.8572,5.9306,5.9844,5.7507,5.5903,5.5174,5.5193,0.0,5.3337,5.4137,5.4958,5.5563,5.6014,0.0,0.0,0.0,0.0,0.0,0.0,0.0,0.0,0.0,0.0,0.0,6.3166,6.2557,6.1749,6.3634,6.5327,6.632,6.7975,6.9398,7.036,7.1584,7.2545,7.3122,7.3122,7.3161,7.343,7.2745,7.2213,7.2175,7.1437,7.0898,7.0898,7.0898,7.0898,7.0937,7.0898,7.1206,7.1867,7.136,7.0898,7.0905,7.0965,7.1056,7.1184,7.1213,7.1258,7.1406,7.1469,7.152,7.1587,7.1615,7.1621,7.1615,7.1529,7.1469,7.1469,7.1383,7.1308,7.1297,7.1297,7.1291,7.1291,7.1291,7.1291,7.0697,0.0,6.9398,6.8898,0.0,6.8031,6.7223,6.6439,6.6072,6.5448,6.4714,6.4677,6.4677,6.4677,6.4677,6.4714,6.4677,6.4224,6.404,6.404,6.404,6.4261,6.4714,6.5081,6.5485,6.5888,6.5485,6.5485,6.5815,6.4628,6.382,6.3429,6.3025,6.2316,6.1348,6.1523,6.0622,5.8621,5.9241,5.9944,6.0632,5.8689,5.7323,5.6701,5.5946,0.0,0.0,0.0,0.0,0.0,0.0,0.0,0.0,0.0,0.0,6.1891,6.1633,6.2133,6.3788,6.432,6.5282,6.6968,6.7513,6.7013,6.5359,6.7167,6.8706,6.952,7.0052,7.0975,7.2591,7.286,7.336,7.4507,7.4007,7.3776,7.4392,7.3206,7.2399,7.2629,7.1706,7.0898,7.0898,7.0898,7.1091,7.1475,7.1552,7.186,7.2514,7.1706,7.0919,7.0985,7.1024,7.11,7.1219,7.1253,7.1301,7.1465,7.152,7.1551,7.168,7.17,7.17,7.1697,7.1647,7.1601,7.1591,7.1508,7.1417,7.1407,7.1332,7.1297,7.1291,7.1291,7.1291,7.1527,7.138,6.9949,6.9215,6.9045,6.8238,6.7847,6.7664,0.0,0.0,0.0,6.5508,6.5508,6.5508,6.5508,6.5508,6.5508,6.5362,6.5325,6.5325,6.5325,6.5362,6.5545,6.6182,6.6586,6.6696,6.6549,6.6586,6.6659,6.5765,6.5362,6.5435,6.4861,6.4721,6.5076,6.4769,6.3195,6.0623,6.0449,6.0688,6.1161,6.0125,5.9192,5.8513,5.71,5.6504,5.6926,5.6886,5.711,5.7719,5.8569,5.9899,6.1721,6.2682,6.4238,6.6545,6.6942,6.7289,6.7943,6.8667,6.9314,6.9898,7.0514,7.0321,6.893,7.009,7.1245,7.2136,7.1668,7.2283,7.4469,7.363,7.3714,7.5784,7.4784,7.4553,7.563,7.3906,7.2745,7.3161,7.1975,7.0898,7.0898,7.1052,7.136,7.2021,7.2329,7.2668,7.3129,7.236,7.1505,7.1471,7.1487,7.1423,7.1366,7.1388,7.1415,7.1527,7.1549,7.1586,7.1726,7.1757,7.1757,7.1772,7.1746,7.1731,7.1721,7.1605,7.1493,7.152,7.1407,7.1291,7.1291,7.1291,7.1291,7.2349,7.2239,7.1344,7.055,6.9889,6.9082,6.8311,6.7627,6.6843,6.6439,6.6329,6.6329,6.6329,6.6329,6.6329,6.6329,6.6292,6.5618,6.5325,6.5325,6.5325,6.5655,6.6329,6.6439,6.6856,6.7444,6.6806,6.6843,6.7297,6.6035,6.5668,6.6256,6.6219,6.6368,6.6771,6.6448,6.6001,6.5511,6.3596,6.2265,6.1617,6.1103,6.0105,5.8666,5.866,5.8376,5.7952,5.8598,5.9657,6.1257,6.2142,6.368,6.6045,6.7,6.8308,7.0052,7.0898,7.1367,7.1444,7.1636,7.1398,7.0821,7.086,7.0783,7.0591,7.0744,7.1283,7.2098,7.2706,7.3546,7.4591,7.5091,7.5438,7.5899,7.5784,7.5784,7.5976,7.4399,7.3353,7.3507,7.1975,7.0975,7.1091,7.1591,7.2098,7.2329,7.3014,7.3437,7.3574,7.3315,7.2919,7.2507,7.2383,7.2201,7.1844,7.1664,7.1716,7.1753,7.1755,7.181,7.19,7.1914,7.1914,7.1953,7.1875,7.1783,7.1776,7.1632,7.1544,7.1501,7.1392,7.1324,7.1302,7.1291,7.1291,7.2532,7.2422,7.1637,7.1087,7.0646,6.9449,6.8458,6.77,6.7333,6.715,6.715,6.7136,6.715,6.715,6.7136,6.715,6.715,6.6769,6.6586,6.6586,6.6623,6.6806,6.71,6.7136,6.7333,6.7664,6.7333,6.7113,6.699,6.6292,6.6145,6.6515,6.6975,6.7445,6.786,6.7524,6.7538,6.7956,6.6248,6.5124,6.4747,6.4356,6.3795,6.3078,6.287,6.2809,6.2945,6.3335,6.4148,6.5474,6.5853,6.7006,6.9013,6.9513,7.0507,7.2161,7.2668,7.2899,7.2899,7.2899,7.2552,7.1668,7.1598,7.1398,7.0937,7.0898,7.1475,7.2706,7.2899,7.3514,7.5168,7.5361,7.5476,7.5976,7.5592,7.5515,7.5745,7.4514,7.3699,7.3969,7.3084,7.2315,7.2315,7.2668,7.3129,7.3514,7.4322,7.4872,7.4951,7.499,7.4583,7.3557,7.3316,7.3103,7.2494,7.2369,7.2199,7.1897,7.1792,7.1852,7.1953,7.1992,7.1992,7.1992,7.1953,7.1906,7.1904,7.1771,7.1674,7.1608,7.1485,7.1387,7.1345,7.1291,7.1291,7.2789,7.2716,7.1894,7.1454,7.1197,6.9779,6.8715,6.7994,6.7994,6.7847,6.77,6.77,6.77,6.77,6.77,6.77,6.77,6.77,6.77,6.77,6.77,6.77,6.77,6.77,6.77,6.77,6.77,6.7437,6.6953,6.6929,6.6994,6.716,6.7853,6.8445,6.8754,6.8574,6.8814,6.9371,6.8519,6.78,6.7438,6.7353,6.7255,6.7078,6.6595,6.6632,6.726,6.7352,6.7769,6.8622,6.8853,6.9744,7.136,7.1668,7.2437,7.3853,7.4238,7.4284,7.4046,7.3853,7.3399,7.2591,7.2476,7.2206,7.1591,7.1475,7.2014,7.3161,7.2937,7.3553,7.5707,7.5784,7.563,7.6399,7.5976,7.6015,7.6322,7.5245,7.4469,7.4861,7.4276,7.3699,7.3584,7.3661,7.4084,7.4861,7.5642,7.6101,7.6246,7.6356,7.5803,7.4969,7.4475,7.4129,7.3453,7.3298,7.299,7.227,7.2162,7.2137,7.2109,7.1992,7.2148,7.2226,7.2109,7.2265,7.2422,7.2095,7.1969,7.1979,7.1839,7.1532,7.1397,7.1334,7.1297,7.3575,7.3487,7.2716,7.1931,7.1233,7.0367,6.9522,6.8862,6.8788,6.8348,6.7811,6.77,6.7737,6.77,6.7737,6.7774,6.7774,6.77,6.7737,6.7774,6.77,6.77,6.7774,6.7737,6.77,6.7737,6.7751,6.7941,6.8161,6.8173,6.8413,6.8858,6.9353,6.9588,6.9683,6.9976,7.0181,7.0296,7.0195,6.9377,6.7972,6.8656,6.8709,6.799,6.8002,6.8042,6.8227,6.8188,6.8645,6.9538,7.0283,7.143,7.3084,7.393,7.4745,7.5668,7.6438,7.663,7.5822,7.5014,7.4315,7.3469,7.343,7.3353,7.3199,7.3199,7.3276,7.3507,7.343,7.4546,7.6784,7.7061,7.7253,7.783,7.7984,7.8176,7.8023,7.7484,7.6707,7.5938,7.5284,7.4353,7.4007,7.4276,7.4899,7.5642,7.6006,7.6252,7.6339,7.6531,7.6696,7.6333,7.5953,7.523,7.4591,7.4433,7.4046,7.3352,7.3162,7.2929,7.25,7.2265,7.2226,7.3008,7.2656,7.2734,7.332,7.3114,7.2225,7.2511,7.2206,7.1628,7.1528,7.1426,7.139,7.4111,7.367,7.334,7.2459,7.1344,7.094,7.0367,6.9633,6.9596,6.9412,6.9169,6.9132,6.8862,6.8458,6.8898,6.9132,6.9132,6.9132,6.9132,6.9119,6.9132,6.9119,6.9132,6.9132,6.9132,6.91,6.8939,6.895,6.9038,6.8915,6.9047,6.9494,6.9711,6.9928,7.0153,7.0298,7.0411,7.0411,7.0411,7.0067,6.9518,6.9865,6.9973,6.9681,6.9752,6.9791,6.9896,7.0319,7.0794,7.1206,7.1975,7.2969,7.4123,7.4507,7.5091,7.5976,7.6823,7.7592,7.82,7.7438,7.6361,7.5091,7.4969,7.4584,7.3584,7.3507,7.3699,7.4199,7.4661,7.5476,7.6476,7.74,7.7984,7.7907,7.8215,7.8523,7.8484,7.8215,7.783,7.7484,7.7169,7.6592,7.5899,7.5553,7.5709,7.6115,7.6273,7.6356,7.6527,7.6699,7.6822,7.6923,7.6671,7.6184,7.5515,7.5292,7.491,7.4331,7.406,7.3827,7.3633,7.3515,7.3711,7.4023,7.3633,7.3594,7.4336,7.414,7.3505,7.332,7.2334,7.1536,7.1392,7.1748,7.1999,7.4918,7.4382,7.4111,7.323,7.1967,7.1967,7.1344,7.0477,7.044,7.033,7.011,7.033,7.011,6.9655,6.9963,7.011,7.011,7.011,7.011,7.011,7.011,7.011,7.011,7.011,7.017,7.0263,7.005,6.9941,6.9965,6.9917,6.9965,7.0298,7.0325,7.0574,7.1073,7.1107,7.1107,7.1137,7.1107,7.1107,7.1123,7.129,7.1268,7.1106,7.1185,7.1339,7.1629,7.2245,7.2552,7.2552,7.3353,7.4084,7.4661,7.513,7.6015,7.7246,7.7746,7.8592,8.0054,7.9361,7.8246,7.6861,7.6515,7.5938,7.5091,7.4661,7.4899,7.5707,7.6553,7.7015,7.6861,7.7977,7.8631,7.84,7.8907,7.9215,7.9254,7.9061,7.8754,7.8561,7.8292,7.8215,7.7407,7.6714,7.6363,7.6225,7.6273,7.6372,7.6591,7.671,7.6783,7.6946,7.6914,7.6749,7.6245,7.6088,7.5709,7.522,7.4873,7.4755,7.4686,7.457,7.4805,7.4687,7.4687,7.4844,7.5234,7.5078,7.4354,7.3557,7.2756,7.2194,7.2323,7.2677,7.2889,7.6019,7.5873,7.5175,7.4331,7.3597,7.356,7.2716,7.1417,7.1307,7.0881,7.044,7.094,7.1233,7.1087,7.055,7.0146,7.0146,7.022,7.0257,7.0257,7.0257,7.0146,7.011,7.0124,7.0424,7.1081,7.0971,7.09,7.0969,7.1354,7.1608,7.1616,7.1591,7.1998,7.2635,7.2711,7.2826,7.2711,7.2673,7.2796,7.2805,7.2879,7.2585,7.2172,7.2025,7.245,7.3192,7.3392,7.343,7.343,7.4276,7.4745,7.4892,7.6284,7.8169,8.0285,8.0015,8.0054,8.0785,8.02,7.9323,7.8438,7.7707,7.7515,7.7753,7.7246,7.7215,7.8176,7.8784,7.9054,7.8523,7.9131,8.0015,8.0592,8.0823,8.0823,8.0939,8.0169,7.94,7.8823,7.8677,7.8369,7.7553,7.7284,7.6929,7.6482,7.6257,7.6405,7.6531,7.6589,7.6609,7.6668,7.6657,7.6713,7.6903,7.6716,7.6326,7.5963,7.5621,7.5423,7.491,7.4648,7.5066,7.5285,7.5077,7.528,7.5957,7.5691,7.4689,7.405,7.3858,7.3549,7.32,7.3622,7.3834,7.657,7.6019,7.5249,7.4735,7.4478,7.4478,7.4133,7.3582,7.3046,7.2679,7.2386,7.2165,7.2041,7.2055,7.1798,7.1651,7.1651,7.1615,7.1615,7.1688,7.2165,7.2562,7.2896,7.2896,7.3162,7.3525,7.2913,7.2422,7.2276,7.2469,7.2529,7.2529,7.252,7.272,7.2941,7.2979,7.2979,7.3017,7.2979,7.3012,7.3185,7.3103,7.349,7.439,7.3422,7.3051,7.3469,7.4007,7.4276,7.4276,7.5592,7.6361,7.6438,7.7445,7.8946,8.0746,8.0285,8.04,8.1516,8.1093,8.0246,7.9438,7.9092,7.8707,7.8523,7.8253,7.8176,7.8638,7.9323,7.9554,7.9592,8.0131,8.0746,8.1016,8.1093,8.1323,8.1593,8.117,8.0516,8.0169,7.9708,7.9169,7.8823,7.8407,7.8019,7.7807,7.7381,7.7179,7.7165,7.6923,7.6669,7.6609,7.6618,7.6617,7.671,7.6807,7.6685,7.66,7.6423,7.639,7.6037,7.5778,7.6086,7.6203,7.5835,7.5777,7.6443,7.6005,7.5054,7.4861,7.4649,7.4387,7.3945,7.4403,7.4629,7.6995,7.6445,7.5894,7.5527,7.5307,7.527,7.5124,7.4867,7.4331,7.4074,7.3964,7.3523,7.3156,7.2899,7.2899,7.2899,7.2899,7.2899,7.2899,7.2973,7.3707,7.4384,7.4805,7.4872,7.5259,7.5679,7.5008,7.418,7.3441,7.3399,7.3399,7.3399,7.3628,7.3981,7.4163,7.4469,7.4622,7.4622,7.4622,7.4656,7.4677,7.4711,7.5299,7.6301,7.5541,7.5011,7.5123,7.563,7.5938,7.6092,7.7061,7.783,7.813,7.8869,8.01,8.1554,8.1093,8.1208,8.2324,8.1708,8.0862,8.0285,7.9931,7.9592,7.9323,7.9331,7.9446,7.9831,8.0516,8.1016,8.1154,8.1654,8.1754,8.1316,8.1323,8.167,8.2131,8.1554,8.0977,8.0554,8.0054,7.9823,7.9738,7.9246,7.8874,7.8753,7.8162,7.7902,7.791,7.7606,7.7069,7.6914,7.7152,7.7102,7.7217,7.7317,7.7066,7.6936,7.6823,7.6933,7.7047,7.6865,7.6816,7.6936,7.6894,7.6727,7.6482,7.6121,7.5866,7.5614,7.5474,7.5253,7.515,7.5216,7.5347,7.7326,7.7252,7.7289,7.6775,7.6166,7.613,7.5689,7.5124,7.494,7.4903,7.4882,7.4793,7.4294,7.3832,7.3707,7.3707,7.3707,7.3795,7.378,7.378,7.4551,7.5181,7.5676,7.5769,7.628,7.7103,7.6827,7.5818,7.4499,7.4507,7.4469,7.4507,7.5157,7.5815,7.6647,7.7144,7.7717,7.7602,7.7487,7.764,7.7955,7.7661,7.7794,7.8193,7.8121,7.8162,7.8361,7.8323,7.8176,7.8253,7.8407,7.89,7.9785,8.0554,8.1785,8.3062,8.2708,8.2747,8.3208,8.2139,8.1362,8.1054,8.0439,8.0477,8.1016,8.1093,8.1362,8.1977,8.2716,8.337,8.3302,8.348,8.3087,8.1647,8.207,8.2447,8.2378,8.1677,8.0862,8.0362,8.0169,7.99,7.9862,7.9862,7.9623,7.9029,7.8698,7.8558,7.8577,7.8367,7.8043,7.7697,7.7712,7.7864,7.7935,7.7968,7.7556,7.7238,7.7064,7.7044,7.7354,7.7333,7.7226,7.7252,7.6815,7.6646,7.6512,7.6221,7.6253,7.6084,7.609,7.5973,7.5939,7.5871,7.6043,7.8353,7.7436,7.7949,7.7708,7.6959,7.6922,7.6775,7.6481,7.5968,7.5726,7.5652,7.5124,7.4757,7.4588,7.4536,7.4536,7.4573,7.5028,7.5065,7.4786,7.5359,7.5992,7.653,7.6902,7.7334,7.7693,7.7653,7.7326,7.6867,7.6753,7.6838,7.6905,7.7067,7.7335,7.7602,7.786,7.8022,7.8022,7.8022,7.8011,7.8073,7.8108,7.8437,7.9058,7.9226,7.9521,8.0045,7.9108,7.8523,7.86,7.9092,8.0015,8.1246,8.1785,8.2747,8.417,8.3678,8.3255,8.3486,8.3139,8.2477,8.2131,8.217,8.2516,8.2755,8.2793,8.2909,8.3178,8.3447,8.3601,8.3618,8.3779,8.3895,8.3905,8.3759,8.3771,8.3989,8.3378,8.2771,8.2401,8.19,8.1554,8.1408,8.1139,8.0654,8.0246,7.9785,7.9438,7.9361,7.9023,7.8484,7.8215,7.8446,7.86,7.8551,7.8594,7.849,7.8114,7.781,7.7728,7.7932,7.7817,7.7698,7.7477,7.7002,7.6665,7.651,7.6397,7.6386,7.6374,7.6237,7.6225,7.6305,7.6344,7.6362,7.9176,7.8295,7.8479,7.8295,7.7729,7.7472,7.7326,7.7252,7.6775,7.6533,7.6408,7.6041,7.5601,7.538,7.5344,7.5359,7.538,7.5909,7.6103,7.6089,7.63,7.6956,7.7683,7.8429,7.8597,7.8494,7.8481,7.829,7.8022,7.8022,7.7984,7.8022,7.8328,7.8481,7.8519,7.8787,7.9054,7.9321,7.913,7.9138,7.9371,7.9233,7.9408,7.9952,8.0158,8.0467,8.0898,8.0223,7.9908,8.0062,8.0746,8.1747,8.2716,8.3093,8.3785,8.4478,8.4439,8.4093,8.4055,8.3755,8.3409,8.3024,8.3293,8.3563,8.364,8.3793,8.4093,8.4055,8.4401,8.4516,8.4565,8.4737,8.5133,8.5682,8.5069,8.4906,8.5146,8.4734,8.4139,8.3759,8.3288,8.2866,8.2396,8.2437,8.1908,8.1609,8.1093,8.0746,8.0554,8.0015,7.9554,7.9285,7.9477,7.9438,7.9092,7.9192,7.9353,7.9061,7.8701,7.8715,7.8837,7.8489,7.8236,7.8063,7.7688,7.7273,7.7055,7.6558,7.6397,7.638,7.6517,7.6356,7.6344,7.6313,7.6319,7.989,7.9706,7.9029,7.8736,7.8442,7.7766,7.7399,7.7289,7.7252,7.7215,7.7215,7.7105,7.6775,7.6276,7.6166,7.6166,7.6166,7.624,7.6862,7.7478,7.7584,7.7834,7.884,7.9632,7.9752,7.9418,7.9369,7.8978,7.8443,7.8404,7.8137,7.8404,7.9054,7.9407,7.9598,8.0171,8.0697,8.1232,8.0745,8.0762,8.1418,8.1009,8.078,8.094,8.106,8.1223,8.1484,8.1969,8.2324,8.2439,8.2909,8.3332,8.3793,8.4478,8.4777,8.517,8.5055,8.497,8.4824,8.4401,8.387,8.3755,8.3862,8.3717,8.4063,8.4593,8.4978,8.497,8.5517,8.5901,8.5958,8.6081,8.6351,8.6586,8.604,8.5699,8.5612,8.5583,8.5245,8.4645,8.4296,8.3931,8.3107,8.345,8.3143,8.2708,8.2332,8.2208,8.2054,8.1477,8.0823,8.0631,8.0554,8.0246,7.9939,8.0015,8.0185,7.9984,7.9656,7.9587,7.9533,7.9147,7.8722,7.8541,7.8391,7.7977,7.7597,7.7171,7.6966,7.7103,7.6974,7.6549,7.6415,7.65,7.6346,8.0881,7.989,8.0204,7.969,7.8662,7.8332,7.7876,7.7362,7.7326,7.7362,7.7326,7.7326,7.7215,7.6995,7.6959,7.6995,7.6922,7.6959,7.7341,7.7993,7.7974,7.8471,7.9323,7.9789,8.0073,8.0163,8.0238,8.0047,7.9856,7.978,7.9818,7.9856,8.0047,8.0506,8.1041,8.0735,8.1003,8.1585,8.1001,8.0693,8.1006,8.1009,8.1146,8.1756,8.1887,8.2235,8.2858,8.3753,8.3862,8.3332,8.3447,8.3901,8.4516,8.4816,8.5401,8.6247,8.6055,8.5778,8.5709,8.5517,8.517,8.4709,8.5016,8.544,8.544,8.5632,8.5786,8.5816,8.6008,8.6094,8.6143,8.6312,8.6564,8.6762,8.6692,8.6615,8.6565,8.6532,8.6365,8.6093,8.5515,8.5009,8.4615,8.4252,8.3915,8.3561,8.3363,8.3255,8.3093,8.2562,8.1747,8.1554,8.1439,8.1054,8.0862,8.0939,8.0939,8.0823,8.0577,8.0367,8.0172,7.9854,7.9372,7.8986,7.894,7.8643,7.8358,7.8022,7.7998,7.787,7.7219,7.6722,7.6873,7.6919,7.6557,8.1652,8.0807,8.0938,8.0461,7.958,7.925,7.8626,7.7965,7.7839,7.7619,7.7436,7.7729,7.7656,7.7362,7.7656,7.7619,7.7362,7.7326,7.7739,7.8445,7.8915,7.9358,7.9795,8.0172,8.077,8.1041,8.1385,8.1547,8.1461,8.1232,8.1232,8.1423,8.1194,8.1499,8.2149,8.1538,8.1652,8.2426,8.1785,8.142,8.2199,8.1993,8.2118,8.2621,8.2773,8.3182,8.4036,8.4607,8.4786,8.4632,8.467,8.4901,8.5324,8.5401,8.5863,8.6824,8.6363,8.6094,8.6094,8.6094,8.5901,8.5585,8.5901,8.6055,8.6055,8.6094,8.6094,8.6094,8.6094,8.6094,8.6181,8.6583,8.6965,8.7208,8.7346,8.7335,8.7032,8.6816,8.6797,8.6676,8.636,8.582,8.5513,8.5086,8.4797,8.4421,8.4204,8.4164,8.4055,8.3324,8.2708,8.2439,8.2247,8.1977,8.1516,8.1477,8.1208,8.1131,8.1008,8.0869,8.0704,8.0425,8.0318,7.9926,7.9643,7.9398,7.9191,7.8906,7.859,7.8197,7.7475,7.7302,7.7607,7.7318,7.6918,8.2186,8.215,8.1415,8.1085,8.0828,8.022,7.947,7.8809,7.8736,7.8332,7.7949,7.8405,7.8369,7.7619,7.8259,7.8216,7.7757,7.7796,7.8351,7.919,7.9876,8.0265,8.0258,8.1095,8.1547,8.1767,8.2607,8.2808,8.2617,8.2149,8.2302,8.2502,8.2149,8.2416,8.2837,8.234,8.2837,8.3572,8.2703,8.2643,8.3479,8.3358,8.3299,8.366,8.3953,8.4269,8.4808,8.5124,8.5324,8.6055,8.6094,8.5978,8.6047,8.6055,8.6094,8.617,8.617,8.6094,8.6132,8.6247,8.6286,8.6286,8.6247,8.6209,8.6286,8.6247,8.6094,8.6094,8.617,8.6401,8.6704,8.7332,8.7589,8.7672,8.7832,8.7664,8.6964,8.6762,8.6792,8.6831,8.6831,8.6417,8.6052,8.6029,8.6328,8.5769,8.5468,8.5272,8.4939,8.4247,8.3593,8.3093,8.2978,8.287,8.2408,8.1947,8.1554,8.1285,8.117,8.1054,8.1076,8.0972,8.1165,8.1051,8.049,8.026,8.0222,7.9887,7.9351,7.906,7.8635,7.8649,7.8651,7.7922,7.74,8.2186,8.2186,8.2003,8.1562,8.1048,8.0791,8.0277,7.9559,7.9522,7.9396,7.9323,7.9486,7.9396,7.9192,7.8914,7.9013,7.9578,7.9277,7.9519,8.0473,8.0446,8.0917,8.1212,8.1815,8.1834,8.2111,8.2655,8.3037,8.2961,8.2961,8.2846,8.2999,8.3037,8.319,8.3802,8.3219,8.3219,8.3974,8.3437,8.3252,8.3715,8.3828,8.3951,8.4547,8.517,8.5555,8.5747,8.5816,8.594,8.6047,8.6132,8.6209,8.6209,8.6209,8.6286,8.6286,8.617,8.6124,8.6209,8.6709,8.7094,8.7055,8.7017,8.7132,8.7055,8.644,8.617,8.6247,8.6709,8.7286,8.7957,8.8315,8.8234,8.8012,8.8167,8.802,8.6744,8.6639,8.6881,8.6951,8.7373,8.765,8.7425,8.7778,8.7747,8.7205,8.6794,8.6511,8.5901,8.517,8.4555,8.3978,8.3862,8.3755,8.3024,8.2562,8.2208,8.1785,8.1585,8.1378,8.14,8.1192,8.1227,8.1241,8.1104,8.099,8.0828,8.0544,7.9965,7.988,7.9795,7.9628,7.9307,7.8572,7.8218,8.2443,8.2737,8.2386,8.1966,8.1599,8.1562,8.1085,8.0461,8.0351,8.0147,7.9963,8.0167,8.0131,7.9816,7.9758,8.0137,8.0539,8.0775,8.0991,8.1518,8.1611,8.1948,8.234,8.276,8.299,8.3066,8.3792,8.4136,8.4098,8.384,8.383,8.4098,8.3802,8.4059,8.4632,8.4069,8.4365,8.5063,8.4347,8.4105,8.4934,8.4792,8.4835,8.5385,8.5863,8.6094,8.6055,8.6094,8.6324,8.6594,8.6709,8.6709,8.6824,8.7094,8.7286,8.7286,8.6863,8.6748,8.6901,8.7094,8.7363,8.744,8.7401,8.7401,8.7209,8.6594,8.6401,8.6671,8.7209,8.7863,8.9056,8.9248,8.894,8.8825,8.894,8.8671,8.7699,8.7538,8.7487,8.741,8.7795,8.815,8.8482,8.8895,8.8713,8.7988,8.7942,8.7632,8.6978,8.6286,8.5555,8.5055,8.4939,8.4555,8.3717,8.3216,8.2909,8.2562,8.2224,8.2001,8.1855,8.1532,8.1169,8.1153,8.1183,8.1249,8.107,8.082,8.066,8.0654,8.0525,8.0363,8.0027,7.9396,7.9242,8.27,8.3161,8.248,8.2186,8.2186,8.215,8.1782,8.1232,8.1195,8.0865,8.0404,8.0901,8.0865,8.0424,8.0645,8.0847,8.1288,8.2028,8.2564,8.265,8.2652,8.2903,8.3267,8.3754,8.4174,8.4518,8.4976,8.5282,8.5167,8.49,8.4709,8.5206,8.4824,8.4785,8.5167,8.5129,8.532,8.6199,8.5743,8.5561,8.6602,8.6398,8.6445,8.6599,8.6671,8.6594,8.6555,8.6632,8.6824,8.7363,8.7632,8.7748,8.794,8.8218,8.8679,8.8603,8.791,8.7632,8.7671,8.7786,8.794,8.7786,8.7825,8.7863,8.7709,8.7286,8.7132,8.744,8.7979,8.8594,8.9855,9.0086,9.0009,8.9893,8.9932,8.9671,8.9017,8.8833,8.8708,8.7938,8.842,8.8922,8.9059,8.9311,8.9098,8.8902,8.8863,8.8632,8.7979,8.7286,8.6478,8.5901,8.5747,8.517,8.4324,8.4024,8.3708,8.3255,8.2909,8.2716,8.2524,8.2347,8.1986,8.1292,8.1183,8.1311,8.134,8.1098,8.1094,8.1219,8.1143,8.0828,8.0505,8.0176,8.0182,8.2884,8.2406,8.226,8.2186,8.2186,8.2186,8.2113,8.2039,8.1929,8.1929,8.1782,8.1893,8.1856,8.1599,8.1122,8.1459,8.2328,8.3316,8.3872,8.3758,8.3543,8.3448,8.4059,8.4327,8.4709,8.5167,8.5473,8.5511,8.5511,8.5358,8.5282,8.5435,8.532,8.5397,8.5702,8.6008,8.6352,8.7108,8.714,8.736,8.7406,8.7725,8.7927,8.7979,8.7948,8.7709,8.744,8.7825,8.8025,8.7594,8.8748,8.9316,8.9316,8.9056,8.891,8.8833,8.8679,8.8479,8.8526,8.9056,8.9355,8.947,8.9316,8.9355,8.921,8.8671,8.8218,8.8517,8.9094,8.9855,9.0816,9.0855,9.0547,9.0316,9.0355,9.0364,8.9487,8.9671,8.9979,8.8979,8.9325,8.971,8.9825,8.994,8.994,8.9825,8.9748,8.9325,8.8671,8.7979,8.7248,8.6786,8.644,8.5709,8.4901,8.4747,8.4516,8.3986,8.364,8.3524,8.337,8.337,8.2971,8.2147,8.1585,8.1485,8.1445,8.1405,8.1294,8.1298,8.1276,8.122,8.0976,8.077,8.0956,8.281,8.2774,8.237,8.2186,8.2186,8.2186,8.2186,8.2186,8.2186,8.2186,8.2186,8.2186,8.1966,8.1672,8.1709,8.2237,8.3349,8.4421,8.487,8.4785,8.4518,8.4441,8.4862,8.49,8.5129,8.5435,8.5511,8.5511,8.5511,8.5511,8.5511,8.5511,8.5511,8.5702,8.6151,8.6533,8.7337,8.7933,8.8299,8.8442,8.842,8.8764,8.8671,8.8718,8.8718,8.8487,8.8295,8.8372,8.8709,8.8825,8.9432,9.0047,9.0278,9.0248,8.9979,8.9863,8.9556,8.9325,8.9325,8.9739,8.9816,8.9855,8.9932,8.9893,8.9701,8.921,8.8987,8.9402,9.0056,9.0701,9.1133,9.1201,9.0979,9.0787,9.0941,9.0748,9.0402,9.0825,9.0479,8.994,9.0287,9.0517,9.0594,9.0748,9.0864,9.0787,9.0586,9.0056,8.9402,8.8594,8.7833,8.7055,8.6594,8.6094,8.544,8.5363,8.5247,8.4786,8.4447,8.4324,8.414,8.4063,8.3601,8.2878,8.2424,8.2347,8.1916,8.1962,8.1691,8.142,8.1389,8.138,8.1414,8.144,8.1472,8.2737,8.3104,8.248,8.2186,8.2186,8.2186,8.2186,8.2186,8.2186,8.2186,8.215,8.2003,8.1672,8.1574,8.2071,8.2943,8.3963,8.4876,8.5245,8.5435,8.5358,8.5463,8.5473,8.5511,8.5473,8.5473,8.5511,8.5511,8.5511,8.5511,8.5511,8.5511,8.5511,8.5932,8.6609,8.7032,8.8124,8.8786,8.9171,8.9285,8.9692,8.9359,8.9056,8.9171,8.918,8.921,8.8979,8.9295,8.9479,8.9701,9.0086,9.0509,9.1047,9.1163,9.1201,9.1086,9.0509,9.0239,9.0163,9.0201,9.0316,9.0316,9.0201,9.0201,9.0124,8.9863,8.9594,9.0171,9.0671,9.1086,9.1163,9.1201,9.1171,9.1163,9.1124,9.1163,9.1047,9.1124,9.1086,9.0932,9.1201,9.1124,9.1009,9.1009,9.1047,9.1047,9.0855,9.0778,9.0094,8.9026,8.8179,8.7171,8.6555,8.6247,8.594,8.5901,8.5786,8.5593,8.5286,8.5132,8.4901,8.4709,8.4247,8.3978,8.4101,8.3955,8.3279,8.2517,8.2278,8.2031,8.1709,8.1494,8.1437,8.1446,8.1459,8.292,8.2333,8.2223,8.2186,8.2186,8.2186,8.2186,8.2186,8.2186,8.2186,8.215,8.1562,8.1562,8.2006,8.2523,8.3218,8.3937,8.4647,8.5268,8.5614,8.5741,8.5817,8.5626,8.5511,8.5654,8.5616,8.5588,8.5511,8.5511,8.5511,8.5511,8.5511,8.5664,8.596,8.6963,8.7693,8.8528,8.9486,9.0244,9.0691,9.0781,9.0163,9.0201,9.0556,9.071,9.0402,8.994,9.0248,9.0517,9.0047,9.0663,9.1056,9.1201,9.1201,9.1201,9.1171,9.1095,9.1047,9.0979,9.0893,9.0893,9.0855,9.0932,9.1009,9.0864,9.0787,9.071,9.0979,9.1171,9.121,9.1201,9.1201,9.1201,9.1201,9.1201,9.1201,9.1201,9.1201,9.1201,9.1201,9.1201,9.1201,9.1124,9.1163,9.1163,9.1201,9.1163,9.1086,9.0701,8.9633,8.8333,8.7286,8.6748,8.6478,8.6094,8.6094,8.6094,8.6094,8.594,8.5739,8.5555,8.5363,8.5632,8.5478,8.5517,8.5132,8.4225,8.354,8.304,8.2663,8.24,8.1911,8.1407,8.1431,8.1749,8.2517,8.2186,8.2186,8.2186,8.2186,8.2186,8.2186,8.2186,8.2186,8.2186,8.215,8.1856,8.1893,8.2185,8.234,8.2893,8.3924,8.4892,8.5692,8.6233,8.6543,8.6849,8.6887,8.6505,8.6227,8.6074,8.5769,8.5511,8.5511,8.555,8.5511,8.5626,8.6036,8.6686,8.7518,8.8488,8.9409,9.0196,9.0799,9.1118,9.1077,9.0893,9.0816,9.1171,9.1163,9.0932,9.0816,9.0902,9.1056,9.071,9.1095,9.1163,9.1201,9.1201,9.1201,9.1201,9.1163,9.1163,9.1163,9.1201,9.1201,9.1201,9.1201,9.1163,9.1201,9.1201,9.1201,9.1163,9.1163,9.1201,9.1201,9.1201,9.1201,9.1201,9.1201,9.1201,9.1201,9.1201,9.1201,9.1201,9.1201,9.1201,9.1201,9.1201,9.1201,9.1201,9.1163,9.1086,9.0816,9.0163,8.8748,8.7286,8.694,8.6786,8.6324,8.6094,8.6132,8.6132,8.6094,8.5978,8.6017,8.6017,8.6132,8.6132,8.5901,8.5478,8.4939,8.4524,8.4024,8.3556,8.3087,8.2593,8.2164,8.2582,8.2741,8.2186,8.2186,8.2186,8.2186,8.2186,8.2186,8.2186,8.2186,8.2186,8.2186,8.2186,8.215,8.2076,8.199,8.2003,8.2731,8.3911,8.5008,8.5804,8.6521,8.7078,8.7384,8.7154,8.6839,8.6495,8.68,8.6227,8.5807,8.5702,8.5932,8.6237,8.5883,8.6724,8.7557,8.841,8.9112,8.987,9.0818,9.1053,9.1192,9.1163,9.1163,9.1124,9.1201,9.1201,9.1201,9.1201,9.121,9.1171,9.1171,9.1171,9.1201,9.1201,9.1201,9.1201,9.1201,9.1201,9.1201,9.1201,9.1201,9.1201,9.1201,9.1201,9.1201,9.1201,9.1201,9.1201,9.1201,9.1201,9.1201,9.1201,9.1201,9.1201,9.1201,9.1201,9.1201,9.1201,9.1201,9.1201,9.1201,9.1201,9.1201,9.1201,9.1201,9.1201,9.1201,9.1163,9.1095,9.074,9.0316,8.9325,8.7902,8.7709,8.744,8.6824,8.6478,8.6363,8.617,8.617,8.6094,8.6094,8.617,8.6247,8.6247,8.6247,8.6209,8.5978,8.5478,8.4948,8.4411,8.3888,8.3371,8.3174,8.3523,8.3468,8.2186,8.2186,8.2186,8.2186,8.2186,8.2186,8.2186,8.2186,8.2186,8.2186,8.2186,8.215,8.1835,8.1549,8.2081,8.2853,8.3937,8.3988,8.498,8.5564,8.5779,8.6648,8.68,8.6658,8.6237,8.6686,8.6533,8.6151,8.6084,8.7022,8.7088,8.6953,8.7681,8.8525,8.914,8.9621,9.0224,9.0958,9.1192,9.1201,9.1201,9.1201,9.1201,9.1201,9.1201,9.1201,9.1201,9.1201,9.1201,9.1201,9.1201,9.1201,9.1201,9.1201,9.1201,9.1201,9.1201,9.1201,9.1201,9.1201,9.1201,9.1201,9.1201,9.1201,9.1201,9.1201,9.1201,9.1201,9.1201,9.1201,9.1201,9.1201,9.1201,9.1201,9.1201,9.1201,9.1201,9.1201,9.1201,9.1201,9.1201,9.1201,9.1201,9.1201,9.1201,9.1201,9.1171,9.1133,9.071,9.0278,8.971,8.8902,8.8679,8.8209,8.7478,8.7094,8.6748,8.6478,8.6324,8.6209,8.6132,8.6247,8.6863,8.6671,8.6786,8.6901,8.6871,8.6157,8.5527,8.5135,8.4643,8.4118,8.3596,8.3539,8.347,8.2186,8.2186,8.2186,8.2186,8.2186,8.2186,8.2186,8.2186,8.2186,8.2186,8.2186,8.2166,8.2207,8.2289,8.251,8.3312,8.4367,8.5006,8.5565,8.65,8.7221,8.7651,8.7651,8.7154,8.7078,8.6877,8.68,8.6724,8.6543,8.774,8.8315,8.8516,8.8784,8.9034,8.9534,9.0129,9.0691,9.0973,9.1201,9.1201,9.1201,9.1201,9.1201,9.1201,9.1201,9.1201,9.1201,9.1201,9.1201,9.1201,9.1201,9.1201,9.1201,9.1201,9.1201,9.1201,9.1201,9.1201,9.1201,9.1201,9.1201,9.1201,9.1201,9.1201,9.1201,9.1201,9.1201,9.1201,9.1201,9.1201,9.1201,9.1201,9.1201,9.1201,9.1201,9.1201,9.1201,9.1201,9.1201,9.1201,9.1201,9.1201,9.1201,9.1201,9.1201,9.1201,9.1171,9.1095,9.0748,9.0517,9.0094,8.9748,8.9517,8.8679,8.7863,8.744,8.7094,8.6786,8.6555,8.6555,8.6671,8.7517,8.7948,8.7632,8.7209,8.7171,8.6995,8.6574,8.6106,8.5676,8.5237,8.4766,8.4267,8.3811,8.3766,8.2186,8.2186,8.2186,8.2186,8.2186,8.2186,8.2186,8.2186,8.2186,8.2186,8.2186,8.2219,8.2497,8.2883,8.3046,8.3607,8.4527,8.5215,8.5812,8.6466,8.7144,8.7918,8.7727,8.7345,8.6772,8.68,8.7106,8.7144,8.6772,8.8249,8.8977,8.939,8.9783,8.9937,9.0139,9.0627,9.11,9.1192,9.1201,9.1201,9.1201,9.1201,9.1201,9.1201,9.1201,9.1201,9.1201,9.1201,9.1201,9.1201,9.1201,9.1201,9.1201,9.1201,9.1201,9.1201,9.1201,9.1201,9.1201,9.1201,9.1201,9.1201,9.1201,9.1201,9.1201,9.1201,9.1201,9.1201,9.1201,9.1201,9.1201,9.1201,9.1201,9.1201,9.1201,9.1201,9.1201,9.1201,9.1201,9.1201,9.1201,9.1201,9.1201,9.1201,9.1201,9.1201,9.1163,9.1171,9.1086,9.0893,9.0778,9.0509,9.0316,8.9286,8.8171,8.7979,8.7709,8.7132,8.6978,8.7209,8.7517,8.8372,8.8641,8.8179,8.7786,8.7517,8.7119,8.6659,8.6438,8.6223,8.5691,8.5147,8.5169,8.4777,8.4656,8.2186,8.2186,8.2186,8.2186,8.2186,8.2186,8.2186,8.2186,8.2186,8.2186,8.2186,8.2203,8.2544,8.2987,8.314,8.3808,8.4615,8.4928,8.5203,8.5813,8.6342,8.6418,8.6418,8.638,8.6456,8.6925,8.7384,8.746,8.6973,8.8967,8.9772,9.0004,9.0378,9.077,9.0942,9.1071,9.1201,9.1201,9.1201,9.1201,9.1201,9.1201,9.1201,9.1201,9.1201,9.1201,9.1201,9.1201,9.1201,9.1201,9.1201,9.1201,9.1201,9.1201,9.1201,9.1201,9.1201,9.1201,9.1201,9.1201,9.1201,9.1201,9.1201,9.1201,9.1201,9.1201,9.1201,9.1201,9.1201,9.1201,9.1201,9.1201,9.1201,9.1201,9.1201,9.1201,9.1201,9.1201,9.1201,9.1201,9.1201,9.1201,9.1201,9.1201,9.1201,9.1201,9.1201,9.1201,9.1201,9.1163,9.1047,9.097,9.074,8.9787,8.8786,8.8641,8.8333,8.7709,8.7363,8.744,8.7902,8.8594,8.8718,8.8526,8.8218,8.7841,8.7297,8.6753,8.6539,8.6336,8.5882,8.5512,8.5666,8.5737,8.5545,8.2186,8.2186,8.2186,8.2186,8.2186,8.2186,8.2186,8.2186,8.2186,8.2186,8.2186,8.2186,8.2754,8.3326,8.3634,8.413,8.5062,8.5211,8.5451,8.552,8.596,8.6036,8.6074,8.6151,8.6161,8.639,8.7154,8.8046,8.7809,8.9496,9.0244,9.0522,9.0797,9.1071,9.1127,9.1201,9.1201,9.1201,9.1201,9.1201,9.1201,9.1201,9.1201,9.1201,9.1201,9.1201,9.1201,9.1201,9.1201,9.1201,9.1201,9.1201,9.1201,9.1201,9.1201,9.1201,9.1201,9.1201,9.1201,9.1201,9.1201,9.1201,9.1201,9.1201,9.1201,9.1201,9.1201,9.1201,9.1201,9.1201,9.1201,9.1201,9.1201,9.1201,9.1201,9.1201,9.1201,9.1201,9.1201,9.1201,9.1201,9.1201,9.1201,9.1201,9.1201,9.1201,9.1201,9.1201,9.1201,9.1201,9.1124,9.1163,9.0893,9.0056,8.9363,8.8756,8.8025,8.7171,8.7132,8.7401,8.8017,8.894,8.8927,8.879,8.8474,8.8089,8.7409,8.6801,8.6636,8.6342,8.608,8.5759,8.57,8.6003,8.6287,8.2443,8.2186,8.2186,8.2186,8.2186,8.2186,8.2186,8.2186,8.2186,8.2186,8.2186,8.2219,8.2815,8.3618,8.3989,8.4474,8.5451,8.5501,8.5501,8.5588,8.6036,8.5922,8.5883,8.6036,8.5893,8.6084,8.7088,8.8084,8.8193,8.9449,9.0368,9.0901,9.1175,9.1154,9.1201,9.1201,9.1201,9.1201,9.1201,9.1201,9.1201,9.1201,9.1201,9.1201,9.1201,9.1201,9.1201,9.1201,9.1201,9.1201,9.1201,9.1201,9.1201,9.1201,9.1201,9.1201,9.1201,9.1201,9.1201,9.1201,9.1201,9.1201,9.1201,9.1201,9.1201,9.1201,9.1201,9.1201,9.1201,9.1201,9.1201,9.1201,9.1201,9.1201,9.1201,9.1201,9.1201,9.1201,9.1201,9.1201,9.1201,9.1201,9.1201,9.1201,9.1201,9.1201,9.1201,9.1163,9.1163,9.1163,9.1163,9.1163,9.0816,8.9979,8.9133,8.8402,8.7594,8.6709,8.7055,8.7709,8.8709,8.9671,8.9398,8.9055,8.8639,8.8141,8.738,8.6858,8.663,8.6556,8.6474,8.6184,8.5836,8.6107,8.6564,8.2904,8.226,8.2186,8.2186,8.2186,8.2186,8.2186,8.2186,8.2186,8.2186,8.2186,8.2186,8.2845,8.3726,8.3898,8.4498,8.5332,8.5491,8.5511,8.5511,8.5702,8.555,8.555,8.5588,8.5769,8.6237,8.7146,8.8287,8.8442,8.989,9.0874,9.1118,9.1192,9.1201,9.1201,9.1201,9.1201,9.1201,9.1201,9.1201,9.1201,9.1201,9.1201,9.1201,9.1201,9.1201,9.1201,9.1201,9.1201,9.1201,9.1201,9.1201,9.1201,9.1201,9.1201,9.1201,9.1201,9.1201,9.1201,9.1201,9.1201,9.1201,9.1201,9.1201,9.1201,9.1201,9.1201,9.1201,9.1201,9.1201,9.1201,9.1201,9.1201,9.1201,9.1201,9.1201,9.1201,9.1201,9.1201,9.1201,9.1201,9.1201,9.1201,9.1201,9.1201,9.1201,9.1124,9.0932,9.0979,9.1171,9.1171,9.1133,9.0633,8.9778,8.9017,8.8479,8.7863,8.7171,8.7825,8.8517,8.9556,9.0035,8.9624,8.9203,8.8765,8.8135,8.713,8.6732,8.6612,8.6576,8.6603,8.6526,8.6184,8.6293,8.6564,8.2406,8.2186,8.2186,8.2186,8.2186,8.2186,8.2186,8.2186,8.2186,8.2186,8.2186,8.2186,8.2845,8.3845,8.3911,8.4569,8.5137,8.5511,8.5511,8.5511,8.5511,8.5511,8.5511,8.555,8.5845,8.6563,8.7464,8.8346,8.9209,9.0521,9.1044,9.1201,9.1201,9.1201,9.1201,9.1201,9.1201,9.1201,9.1201,9.1201,9.1201,9.1201,9.1201,9.1201,9.1201,9.1201,9.1201,9.1201,9.1201,9.1201,9.1201,9.1201,9.1201,9.1201,9.1201,9.1201,9.1201,9.1201,9.1201,9.1201,9.1201,9.1201,9.1201,9.1201,9.1201,9.1201,9.1201,9.1201,9.1201,9.1201,9.1201,9.1201,9.1201,9.1201,9.1201,9.1287,9.1287,9.1248,9.1248,9.1201,9.1201,9.1201,9.1201,9.1201,9.1201,9.1201,9.1086,9.0902,9.0748,9.0941,9.0941,9.0902,9.0517,8.9671,8.9402,8.8902,8.8286,8.7863,8.8402,8.8949,8.9641,8.9936,8.9704,8.9191,8.8521,8.7649,8.6756,8.6535,8.6569,8.6583,8.6603,8.6603,8.6603,8.6603,8.6603,8.248,8.2223,8.2186,8.2186,8.2186,8.2186,8.2186,8.2186,8.2186,8.2186,8.2186,8.2186,8.283,8.3779,8.3963,8.4462,8.5461,8.5511,8.5511,8.5511,8.5511,8.5511,8.5511,8.555,8.5741,8.6506,8.7187,8.782,8.8959,9.0065,9.074,9.1201,9.1201,9.1201,9.1201,9.1201,9.1201,9.1201,9.1201,9.1201,9.1201,9.1201,9.1201,9.1201,9.1201,9.1201,9.1201,9.1201,9.1201,9.1201,9.1201,9.1201,9.1201,9.1201,9.1201,9.1201,9.1201,9.1201,9.1201,9.1201,9.1201,9.1201,9.1201,9.1201,9.1201,9.1201,9.1201,9.1201,9.1201,9.1201,9.1201,9.1201,9.1201,9.1201,9.1287,9.1364,9.1364,9.1325,9.1287,9.1201,9.1201,9.1201,9.1201,9.1201,9.1201,9.1201,9.1163,9.1056,9.0748,9.0556,9.0509,9.0432,9.0133,8.9633,8.944,8.9248,8.8632,8.8248,8.844,8.9026,8.9727,9.0094,9.0092,8.92,8.8031,8.7333,8.6767,8.6608,8.6596,8.6603,8.6603,8.6603,8.6603,8.6603,8.6603,8.2847,8.2186,8.2186,8.2186,8.2186,8.2186,8.2186,8.2186,8.2186,8.2186,8.2186,8.2186,8.2784,8.359,8.3845,8.4426,8.5137,8.5441,8.5511,8.5511,8.5511,8.5511,8.5511,8.555,8.5789,8.5981,8.6518,8.7504,8.7874,8.9114,9.047,9.1086,9.1201,9.1201,9.1201,9.1201,9.1201,9.1201,9.1201,9.1201,9.1201,9.1201,9.1201,9.1201,9.1201,9.1201,9.1201,9.1201,9.1201,9.1201,9.1201,9.1201,9.1201,9.1201,9.1201,9.1201,9.1201,9.1201,9.1201,9.1201,9.1201,9.1201,9.1201,9.1201,9.1201,9.1201,9.1201,9.1201,9.1201,9.1201,9.1201,9.1201,9.1201,9.1201,9.124,9.1364,9.1479,9.1402,9.1248,9.1201,9.1201,9.1201,9.1201,9.1201,9.1201,9.1201,9.1163,9.1133,9.0748,9.0316,9.0393,9.0278,9.0248,9.0056,8.971,8.944,8.8902,8.8671,8.8872,8.9363,9.0257,9.0496,9.0611,8.957,8.8482,8.7645,8.7079,8.6867,8.668,8.6603,8.6603,8.6603,8.6603,8.6603,8.6603,8.237,8.2223,8.2186,8.2186,8.2186,8.2186,8.2186,8.2186,8.2186,8.2186,8.2186,8.2251,8.2606,8.3312,8.3766,8.4353,8.4892,8.5373,8.5491,8.5511,8.5511,8.5511,8.5511,8.5559,8.5857,8.648,8.7006,8.7357,8.8144,8.9175,8.997,9.0316,9.074,9.1201,9.1201,9.1201,9.1201,9.1201,9.1201,9.1201,9.1201,9.1201,9.1201,9.1201,9.1201,9.1201,9.1201,9.1201,9.1201,9.1201,9.1201,9.1201,9.1201,9.1201,9.1201,9.1201,9.1201,9.1201,9.1201,9.1201,9.1201,9.1201,9.1201,9.1201,9.1201,9.1201,9.1201,9.1201,9.1201,9.1201,9.1201,9.1201,9.1201,9.1201,9.1201,9.1393,9.1586,9.1432,9.124,9.1201,9.1201,9.1201,9.1201,9.1201,9.1201,9.1201,9.1201,9.1009,9.047,9.0124,9.0624,9.0663,9.0864,9.0671,9.0201,8.9816,8.944,8.9556,8.9863,9.0325,9.0757,9.0777,9.0721,8.9984,8.9072,8.8259,8.7518,8.6951,8.6796,8.668,8.6603,8.6603,8.6603,8.6603,8.6603,8.2186,8.2186,8.2186,8.2186,8.2186,8.2186,8.2186,8.2186,8.2186,8.2186,8.2186,8.2267,8.2637,8.3284,8.3779,8.4365,8.4925,8.5342,8.5481,8.5511,8.5511,8.5511,8.5521,8.5551,8.58,8.6346,8.6592,8.7072,8.8115,8.894,8.944,8.9932,9.0663,9.1163,9.1163,9.1201,9.1201,9.1201,9.1201,9.1201,9.1201,9.1201,9.1201,9.1201,9.1201,9.1201,9.1201,9.1201,9.1201,9.1201,9.1201,9.1201,9.1201,9.1201,9.1201,9.1201,9.1201,9.1201,9.1201,9.1201,9.1201,9.1201,9.1201,9.1201,9.1201,9.1201,9.1201,9.1201,9.1201,9.1201,9.1201,9.1201,9.1201,9.1201,9.1201,9.1278,9.1595,9.171,9.1441,9.1201,9.1201,9.1201,9.1201,9.1201,9.1086,9.0663,9.074,9.0816,9.0316,9.0009,9.0509,9.0816,9.0864,9.1018,9.0778,9.047,9.0163,9.0393,9.0671,9.077,9.0906,9.0913,9.072,9.0228,8.962,8.8885,8.8189,8.7454,8.6874,8.668,8.6642,8.6603,8.6603,8.6603,8.6603,8.2186,8.2186,8.2186,8.2186,8.2186,8.2186,8.2186,8.2186,8.2186,8.2186,8.2186,8.2186,8.2875,8.3466,8.3937,8.4653,8.5137,8.5373,8.5491,8.5511,8.5511,8.5511,8.5551,8.5647,8.5791,8.5932,8.6097,8.6577,8.7248,8.8094,8.894,8.9787,9.047,9.1047,9.1163,9.1201,9.1201,9.1201,9.1201,9.1201,9.1201,9.1201,9.1201,9.1201,9.1201,9.1201,9.1201,9.1201,9.1201,9.1201,9.1201,9.1201,9.1201,9.1201,9.1201,9.1201,9.1201,9.1201,9.1201,9.1201,9.1201,9.1201,9.1201,9.1201,9.1201,9.1201,9.1201,9.1201,9.1201,9.1201,9.1201,9.1201,9.1201,9.1201,9.1201,9.1201,9.1518,9.1825,9.1518,9.1201,9.1201,9.1201,9.1201,9.1201,9.0932,9.0432,9.0278,9.0239,9.0239,9.0201,9.0393,9.0432,9.0393,9.0624,9.0979,9.0864,9.0547,9.0744,9.0924,9.097,9.1051,9.1138,9.1097,9.0791,9.0168,8.9472,8.8698,8.7957,8.7415,8.6842,8.6642,8.6603,8.6603,8.6603,8.6603,8.2186,8.2186,8.2186,8.2186,8.2186,8.2186,8.2186,8.2186,8.2186,8.2186,8.2186,8.2251,8.2622,8.3227,8.3726,8.4378,8.5051,8.5332,8.5481,8.5511,8.5511,8.5511,8.5561,8.5714,8.5779,8.5896,8.6039,8.6214,8.6632,8.7325,8.8094,8.891,8.9663,9.0393,9.1133,9.1133,9.1086,9.1124,9.1201,9.1201,9.1201,9.1201,9.1201,9.1201,9.1201,9.1201,9.1201,9.1201,9.1201,9.1201,9.1201,9.1201,9.1201,9.1201,9.1201,9.1201,9.1201,9.1201,9.1201,9.1201,9.1201,9.1201,9.1201,9.1201,9.1201,9.1201,9.1201,9.1201,9.1201,9.1201,9.1201,9.1201,9.1201,9.1201,9.1201,9.1201,9.1355,9.1402,9.1278,9.1201,9.1201,9.1201,9.1201,9.1163,9.1133,9.0787,9.0787,9.0701,9.0124,9.0163,9.0278,9.0239,9.0163,9.0509,9.0979,9.0941,9.0795,9.104,9.1184,9.1236,9.1307,9.1485,9.1366,9.1153,9.0671,9.0052,8.9279,8.8544,8.7693,8.7112,8.6758,8.6603,8.6603,8.6603,8.6603]}]]